[[{"header":{"parameterUnit":"m.s-1","parameterCategory":1,"la1":30.6,"la2":29.2853,"lo1":-89.7004,"lo2":-87.6739,"dy":0.0162,"dx":0.0183,"nx":112,"ny":82,"refTime":"2023-06-12T06:00:00:Z","depth":0,"parameterNumber":2,"parameterNumberName":"U-component_of_WINDS"},"data":[0.0,0.0,0.0,0.0,0.0,0.0,0.0,0.0,0.0,0.0,0.0,0.0,0.0,0.0,0.0,0.0,0.0,0.0,0.0,0.0,0.0,0.0,0.0,0.0,0.0,0.0,0.0,0.0,0.0,0.0,0.0,0.0,0.0,0.0,0.0,0.0,0.0,0.0,0.0,0.0,0.0,0.0,0.0,0.0,0.0,0.0,0.0,0.0,0.0,0.0,0.0,0.0,0.0,0.0,0.0,0.0,0.0,0.0,0.0,0.0,0.0,0.0,0.0,0.0,0.0,0.0,0.0,0.0,0.0,0.0,0.0,0.0,0.0,0.0,0.0,0.0,0.0,0.0,0.0,0.0,0.0,0.0,0.0,0.0,0.0,0.0,0.0,0.0,0.0,0.0,-5.0627,-5.5483,-6.4534,-7.0567,-7.1429,-7.2464,-6.8807,-5.8749,0.0,0.0,0.0,0.0,0.0,0.0,0.0,0.0,0.0,0.0,0.0,0.0,0.0,0.0,0.0,0.0,0.0,0.0,0.0,0.0,0.0,0.0,0.0,0.0,0.0,0.0,0.0,0.0,0.0,0.0,0.0,0.0,0.0,0.0,0.0,0.0,0.0,0.0,0.0,0.0,0.0,0.0,0.0,0.0,0.0,0.0,0.0,0.0,0.0,0.0,0.0,0.0,0.0,0.0,0.0,0.0,0.0,0.0,0.0,0.0,0.0,0.0,0.0,0.0,0.0,0.0,0.0,0.0,0.0,0.0,0.0,0.0,0.0,0.0,0.0,0.0,0.0,0.0,0.0,0.0,0.0,0.0,0.0,0.0,0.0,0.0,0.0,0.0,0.0,0.0,0.0,0.0,0.0,0.0,0.0,0.0,0.0,0.0,0.0,0.0,0.0,0.0,0.0,0.0,-5.086,-6.0325,-6.621,-7.0015,-7.136,-7.0567,-6.6608,-5.8681,0.0,0.0,0.0,0.0,0.0,0.0,0.0,0.0,0.0,0.0,0.0,0.0,0.0,0.0,0.0,0.0,0.0,0.0,0.0,0.0,0.0,0.0,0.0,0.0,0.0,0.0,0.0,0.0,0.0,0.0,0.0,0.0,0.0,0.0,0.0,0.0,0.0,0.0,0.0,0.0,0.0,0.0,0.0,0.0,0.0,0.0,0.0,0.0,0.0,0.0,0.0,0.0,0.0,0.0,0.0,0.0,0.0,0.0,0.0,0.0,0.0,0.0,0.0,0.0,0.0,0.0,0.0,0.0,0.0,0.0,0.0,0.0,0.0,0.0,0.0,0.0,0.0,0.0,0.0,0.0,0.0,0.0,0.0,0.0,0.0,0.0,0.0,0.0,0.0,0.0,0.0,0.0,0.0,0.0,0.0,0.0,0.0,0.0,0.0,0.0,0.0,0.0,0.0,-5.0159,-5.4527,-6.168,-6.6548,-6.9739,-7.0808,-6.9673,-6.5989,-5.9191,-5.6328,0.0,0.0,0.0,0.0,0.0,0.0,0.0,0.0,0.0,0.0,0.0,0.0,0.0,0.0,0.0,0.0,0.0,0.0,0.0,0.0,0.0,0.0,0.0,0.0,0.0,0.0,0.0,0.0,0.0,0.0,0.0,0.0,0.0,0.0,0.0,0.0,0.0,0.0,0.0,0.0,0.0,0.0,0.0,0.0,0.0,0.0,0.0,0.0,0.0,0.0,0.0,0.0,0.0,0.0,0.0,0.0,0.0,0.0,0.0,0.0,0.0,0.0,0.0,0.0,0.0,0.0,0.0,0.0,0.0,0.0,0.0,0.0,0.0,0.0,0.0,0.0,0.0,0.0,0.0,0.0,0.0,0.0,0.0,0.0,0.0,0.0,0.0,0.0,0.0,0.0,0.0,0.0,0.0,0.0,0.0,0.0,0.0,0.0,0.0,0.0,0.0,0.0,-5.4557,-5.8131,-6.1985,-6.6205,-6.9118,-7.0049,-6.832,-6.4811,-5.929,-5.4464,0.0,0.0,0.0,0.0,0.0,0.0,0.0,0.0,0.0,0.0,0.0,0.0,0.0,0.0,0.0,0.0,0.0,0.0,0.0,0.0,0.0,0.0,0.0,0.0,0.0,0.0,0.0,0.0,0.0,0.0,0.0,0.0,0.0,0.0,0.0,0.0,0.0,0.0,0.0,0.0,0.0,0.0,0.0,0.0,0.0,0.0,0.0,0.0,0.0,0.0,0.0,0.0,0.0,0.0,0.0,0.0,0.0,0.0,0.0,0.0,0.0,0.0,0.0,0.0,0.0,0.0,0.0,0.0,0.0,0.0,0.0,0.0,0.0,0.0,0.0,0.0,0.0,0.0,0.0,0.0,0.0,0.0,0.0,0.0,0.0,0.0,0.0,0.0,0.0,0.0,0.0,0.0,0.0,0.0,0.0,0.0,0.0,0.0,0.0,0.0,0.0,0.0,-5.4925,-5.9749,-6.2154,-6.5241,-6.7738,-6.9222,-6.5428,-6.1551,-5.8409,-5.1989,0.0,0.0,0.0,0.0,0.0,0.0,0.0,0.0,0.0,0.0,0.0,0.0,0.0,0.0,0.0,0.0,0.0,0.0,0.0,0.0,0.0,0.0,0.0,0.0,0.0,0.0,0.0,0.0,0.0,0.0,0.0,0.0,0.0,0.0,0.0,0.0,0.0,0.0,0.0,0.0,0.0,0.0,0.0,0.0,0.0,0.0,0.0,0.0,0.0,0.0,0.0,0.0,0.0,0.0,0.0,0.0,0.0,0.0,0.0,0.0,0.0,0.0,0.0,0.0,0.0,0.0,0.0,0.0,0.0,0.0,0.0,0.0,0.0,0.0,0.0,0.0,0.0,0.0,0.0,0.0,0.0,0.0,0.0,0.0,0.0,0.0,0.0,0.0,0.0,0.0,0.0,0.0,0.0,0.0,0.0,0.0,0.0,0.0,0.0,0.0,0.0,0.0,-5.3906,-5.8474,0.0,-6.4186,-6.6352,-6.7416,-6.4816,-6.1197,-5.6658,0.0,0.0,0.0,0.0,0.0,0.0,0.0,0.0,0.0,0.0,0.0,0.0,0.0,0.0,0.0,0.0,0.0,0.0,0.0,0.0,0.0,0.0,0.0,0.0,0.0,0.0,0.0,0.0,0.0,0.0,0.0,0.0,0.0,0.0,0.0,0.0,0.0,0.0,0.0,0.0,0.0,0.0,0.0,0.0,0.0,0.0,0.0,0.0,0.0,0.0,0.0,0.0,0.0,0.0,0.0,0.0,0.0,0.0,0.0,0.0,0.0,0.0,0.0,0.0,0.0,0.0,0.0,0.0,0.0,0.0,0.0,0.0,0.0,0.0,0.0,0.0,0.0,0.0,0.0,0.0,0.0,0.0,0.0,0.0,0.0,0.0,0.0,0.0,0.0,0.0,0.0,0.0,0.0,0.0,0.0,0.0,0.0,0.0,0.0,0.0,0.0,0.0,-4.9028,-5.343,-5.751,0.0,-6.3023,-6.4619,-6.5403,-6.2508,-5.8886,-5.4858,0.0,0.0,0.0,0.0,0.0,0.0,0.0,0.0,0.0,0.0,0.0,0.0,0.0,0.0,0.0,0.0,0.0,0.0,0.0,0.0,0.0,0.0,0.0,0.0,0.0,0.0,0.0,0.0,0.0,0.0,0.0,0.0,0.0,0.0,0.0,0.0,0.0,0.0,0.0,0.0,0.0,0.0,0.0,0.0,0.0,0.0,0.0,0.0,0.0,0.0,0.0,0.0,0.0,0.0,0.0,0.0,0.0,0.0,0.0,0.0,0.0,0.0,0.0,0.0,0.0,0.0,0.0,0.0,0.0,0.0,0.0,0.0,0.0,0.0,0.0,0.0,0.0,0.0,0.0,0.0,0.0,0.0,0.0,0.0,0.0,0.0,0.0,0.0,0.0,0.0,0.0,0.0,0.0,0.0,0.0,0.0,0.0,0.0,0.0,0.0,0.0,0.0,-4.9724,-5.3764,-5.7394,-6.0269,-6.1638,-6.2657,-6.3408,-5.7949,-5.4091,0.0,0.0,0.0,0.0,0.0,0.0,0.0,0.0,0.0,0.0,0.0,0.0,0.0,0.0,0.0,0.0,0.0,0.0,0.0,0.0,0.0,0.0,0.0,0.0,0.0,0.0,0.0,0.0,0.0,0.0,0.0,0.0,0.0,0.0,0.0,0.0,0.0,0.0,0.0,0.0,0.0,0.0,0.0,0.0,0.0,0.0,0.0,0.0,0.0,0.0,0.0,0.0,0.0,0.0,0.0,0.0,0.0,0.0,0.0,0.0,0.0,0.0,0.0,0.0,0.0,0.0,0.0,0.0,0.0,0.0,0.0,0.0,0.0,0.0,0.0,0.0,0.0,0.0,0.0,0.0,0.0,0.0,0.0,0.0,0.0,0.0,0.0,0.0,0.0,0.0,0.0,0.0,0.0,0.0,0.0,0.0,0.0,0.0,0.0,0.0,0.0,0.0,0.0,-4.9028,-5.2713,-5.6054,-5.8763,-5.9856,-6.0438,-6.0673,-5.7682,-5.4448,-5.1258,0.0,0.0,0.0,0.0,0.0,0.0,0.0,0.0,0.0,0.0,0.0,0.0,0.0,0.0,0.0,0.0,0.0,0.0,0.0,0.0,0.0,0.0,0.0,0.0,0.0,0.0,0.0,0.0,0.0,0.0,0.0,0.0,0.0,0.0,0.0,0.0,0.0,0.0,0.0,0.0,0.0,0.0,0.0,0.0,0.0,0.0,0.0,0.0,0.0,0.0,0.0,0.0,0.0,0.0,0.0,0.0,0.0,0.0,0.0,0.0,0.0,0.0,0.0,0.0,0.0,0.0,0.0,0.0,0.0,0.0,0.0,0.0,0.0,0.0,0.0,0.0,0.0,0.0,0.0,0.0,0.0,0.0,0.0,0.0,0.0,0.0,0.0,0.0,0.0,0.0,0.0,0.0,0.0,0.0,0.0,0.0,0.0,0.0,0.0,0.0,0.0,0.0,-4.873,-5.2009,-5.4966,-5.7463,-5.8364,-5.8831,-5.8831,-5.6563,-5.3356,-4.9161,0.0,0.0,0.0,0.0,0.0,0.0,0.0,0.0,0.0,0.0,0.0,0.0,0.0,0.0,0.0,0.0,0.0,0.0,0.0,0.0,0.0,0.0,0.0,0.0,0.0,0.0,0.0,0.0,0.0,0.0,0.0,0.0,0.0,0.0,0.0,0.0,0.0,0.0,0.0,0.0,0.0,0.0,0.0,0.0,0.0,0.0,0.0,0.0,0.0,0.0,0.0,0.0,0.0,0.0,0.0,0.0,0.0,0.0,0.0,0.0,0.0,0.0,0.0,0.0,0.0,0.0,0.0,0.0,0.0,0.0,0.0,0.0,0.0,0.0,0.0,0.0,0.0,0.0,0.0,0.0,0.0,0.0,0.0,0.0,0.0,0.0,0.0,0.0,0.0,0.0,0.0,0.0,0.0,0.0,0.0,0.0,0.0,0.0,0.0,0.0,0.0,0.0,-4.873,-5.1512,-5.4063,-5.6249,-5.7144,-5.7574,-5.7508,-5.4924,-5.1512,-4.7272,0.0,0.0,0.0,0.0,0.0,0.0,0.0,0.0,0.0,0.0,0.0,0.0,0.0,0.0,0.0,0.0,0.0,0.0,0.0,0.0,0.0,0.0,0.0,0.0,0.0,0.0,0.0,0.0,0.0,0.0,0.0,0.0,0.0,0.0,0.0,0.0,0.0,0.0,0.0,0.0,0.0,0.0,0.0,0.0,0.0,0.0,0.0,0.0,0.0,0.0,0.0,0.0,0.0,0.0,0.0,0.0,0.0,0.0,0.0,0.0,-6.0073,0.0,0.0,0.0,0.0,0.0,0.0,0.0,0.0,0.0,0.0,0.0,0.0,0.0,0.0,0.0,0.0,0.0,0.0,0.0,0.0,0.0,0.0,0.0,0.0,0.0,0.0,0.0,0.0,0.0,0.0,0.0,0.0,0.0,0.0,0.0,0.0,0.0,0.0,0.0,0.0,0.0,-4.873,-5.0651,-5.2572,-5.4759,-5.5653,-5.5814,-5.5256,-5.3599,-5.1214,-4.7968,-4.4754,0.0,0.0,0.0,0.0,0.0,0.0,0.0,0.0,0.0,0.0,0.0,0.0,0.0,0.0,0.0,0.0,0.0,0.0,0.0,0.0,0.0,0.0,0.0,0.0,0.0,0.0,0.0,0.0,0.0,0.0,0.0,0.0,0.0,0.0,0.0,0.0,0.0,0.0,0.0,0.0,0.0,0.0,0.0,0.0,0.0,0.0,0.0,0.0,0.0,0.0,0.0,0.0,0.0,0.0,0.0,0.0,0.0,0.0,0.0,0.0,-6.1507,0.0,0.0,0.0,0.0,0.0,0.0,0.0,0.0,0.0,0.0,0.0,0.0,0.0,0.0,0.0,0.0,0.0,0.0,0.0,0.0,0.0,0.0,0.0,0.0,0.0,0.0,0.0,0.0,0.0,0.0,0.0,0.0,0.0,0.0,0.0,0.0,0.0,0.0,0.0,0.0,-4.8299,-5.0154,-5.1976,-5.3798,-5.4622,-5.4887,-5.4523,-5.3202,-5.1115,-4.8199,-4.5549,0.0,0.0,0.0,0.0,0.0,0.0,0.0,0.0,0.0,0.0,0.0,0.0,0.0,0.0,0.0,0.0,0.0,0.0,0.0,0.0,0.0,0.0,0.0,0.0,0.0,0.0,0.0,0.0,0.0,0.0,0.0,0.0,0.0,0.0,0.0,0.0,0.0,0.0,0.0,0.0,0.0,0.0,0.0,0.0,0.0,0.0,0.0,0.0,0.0,0.0,0.0,0.0,0.0,-7.1733,-7.289,-7.3926,-7.3255,-7.2904,-7.2606,-6.9119,-6.6343,-6.4101,0.0,0.0,0.0,0.0,0.0,0.0,0.0,0.0,0.0,0.0,0.0,0.0,0.0,0.0,0.0,0.0,0.0,0.0,0.0,0.0,0.0,0.0,0.0,0.0,0.0,-5.2166,-5.1127,0.0,0.0,0.0,0.0,0.0,0.0,0.0,0.0,0.0,0.0,0.0,0.0,-4.7636,-4.9723,-5.1645,-5.3069,-5.3897,-5.4262,-5.4162,-5.3069,-5.1181,-4.8365,-4.6676,-4.4238,0.0,0.0,0.0,0.0,0.0,0.0,0.0,0.0,0.0,0.0,0.0,0.0,0.0,0.0,0.0,0.0,0.0,0.0,0.0,0.0,0.0,0.0,0.0,0.0,0.0,0.0,0.0,0.0,0.0,0.0,0.0,0.0,-5.6929,-5.8672,0.0,0.0,0.0,0.0,0.0,0.0,0.0,0.0,0.0,0.0,0.0,0.0,0.0,-6.9964,-7.095,-7.385,-7.5002,-7.4417,-7.7356,-7.8811,-7.884,-7.873,-7.8694,-7.8589,-7.7378,0.0,-6.6747,-6.5779,0.0,0.0,0.0,0.0,0.0,0.0,0.0,0.0,0.0,0.0,0.0,0.0,0.0,0.0,0.0,0.0,0.0,0.0,0.0,0.0,0.0,0.0,-5.4127,-5.4126,-5.3638,-5.2873,0.0,-5.0088,-4.7968,-4.5086,-4.4191,0.0,0.0,0.0,0.0,0.0,0.0,0.0,-4.6941,-4.8995,-5.0916,-5.2373,-5.3135,-5.3334,-5.2705,-5.2542,-5.1413,-4.9094,-4.6974,-4.5284,-4.4098,-4.1436,0.0,0.0,0.0,0.0,0.0,0.0,0.0,0.0,0.0,0.0,0.0,0.0,0.0,0.0,0.0,0.0,0.0,0.0,0.0,0.0,0.0,0.0,0.0,0.0,0.0,0.0,0.0,0.0,0.0,-5.6428,-6.0394,-5.9012,-6.1525,-6.1899,0.0,0.0,0.0,0.0,0.0,0.0,0.0,0.0,0.0,-7.3529,-7.4476,-7.5513,-7.6727,-7.8847,-7.9885,-7.9909,-8.1786,-8.312,-8.3838,-8.3361,-8.3177,-8.3104,-8.1856,-7.8893,-7.4665,-7.0529,-6.6895,-6.3819,0.0,0.0,0.0,0.0,-6.0093,-5.9953,-6.0841,-6.0371,0.0,0.0,0.0,0.0,0.0,0.0,0.0,0.0,0.0,0.0,0.0,0.0,0.0,-5.5471,-5.5515,-5.5355,-5.4398,-5.3467,-5.1777,0.0,-4.7868,-4.7438,-4.5881,0.0,0.0,0.0,0.0,0.0,-4.7371,-4.9094,-5.0518,-5.1451,-5.231,-5.2539,-5.1846,-5.1779,-5.1181,-4.9823,-4.8034,-4.651,-4.5351,-4.3149,-4.1482,0.0,0.0,0.0,0.0,0.0,0.0,0.0,0.0,0.0,0.0,0.0,0.0,0.0,0.0,0.0,0.0,0.0,0.0,0.0,0.0,0.0,0.0,0.0,0.0,0.0,0.0,0.0,0.0,-6.0399,-6.3815,-6.0279,-6.4894,-6.6128,0.0,0.0,0.0,0.0,0.0,0.0,-7.2477,-7.3695,-7.5994,-7.9742,-8.032,-8.1311,-8.2825,-8.382,-8.4502,-8.4776,-8.5585,-8.6326,-8.6995,-8.6591,-8.6297,-8.6004,-8.4425,-8.292,-8.1126,-7.4818,-7.0492,-6.7651,-6.5605,-6.3519,-6.1808,-6.3081,-6.2959,-6.2385,-6.3863,-6.3414,-6.2023,-6.1499,0.0,-5.7322,-5.5426,0.0,0.0,0.0,0.0,-5.4844,-5.6094,-5.6577,-5.6848,-5.7029,-5.7282,-5.7193,-5.6245,-5.5904,-5.4771,0.0,-5.0883,-5.0353,-4.8365,0.0,0.0,0.0,0.0,-4.6543,-4.7835,-4.916,-5.0255,-5.0856,-5.1315,-5.151,-5.1217,-5.1083,-5.0684,-4.9988,-4.8895,-4.7703,-4.6411,-4.4663,-4.2795,-4.084,0.0,0.0,0.0,0.0,0.0,0.0,0.0,0.0,0.0,0.0,0.0,0.0,0.0,0.0,0.0,0.0,0.0,0.0,0.0,0.0,0.0,0.0,0.0,0.0,0.0,0.0,0.0,0.0,0.0,-6.4399,-7.0952,0.0,0.0,0.0,0.0,-6.9911,-7.2987,-7.5928,-7.8328,-8.063,-8.3246,-8.6233,-8.6772,-8.773,-8.9219,-8.9119,-8.8683,-8.7949,-8.8793,-8.8426,-8.7031,-8.7766,-8.7655,-8.6848,-8.5233,-8.4058,-8.292,-7.7897,-7.3823,-7.0478,-6.8041,-6.6214,-6.4795,-6.4213,-6.4434,-6.4931,-6.3928,-6.3274,-6.3101,-6.4161,-6.2461,-5.9875,-5.8978,-5.7185,0.0,0.0,-5.7116,-5.8012,-5.953,-5.9183,-5.8558,-5.924,-5.8611,-5.7772,-5.7331,-5.6687,-5.5405,0.0,-5.1181,-4.979,-4.8266,0.0,-4.5781,-4.5781,-4.6378,-4.7106,-4.7901,-4.8829,-4.9825,-5.079,-5.0085,-4.9918,-5.0822,-5.0521,-4.9955,-4.9193,-4.9094,-4.8696,-4.7934,-4.5781,-4.4197,-4.3224,-4.0315,0.0,0.0,0.0,0.0,0.0,0.0,0.0,0.0,0.0,0.0,0.0,0.0,0.0,0.0,0.0,0.0,0.0,0.0,0.0,0.0,0.0,0.0,0.0,0.0,0.0,0.0,0.0,0.0,-6.9896,-7.587,0.0,-7.2262,-7.4472,-7.6356,-7.648,-7.9676,-8.2858,-8.5685,-8.6665,-8.8242,-9.0647,-9.0272,-9.0153,-9.0471,-9.026,-8.9528,-8.8206,-8.85,-8.8059,-8.7031,-8.7325,-8.7288,-8.6921,-8.5306,-8.4462,-8.3875,-8.0057,-7.671,-7.3836,-7.2449,-7.0191,-6.7848,-6.8359,-6.7947,-6.7165,-6.7199,-6.6352,-6.4945,-6.3124,-6.1461,-5.9944,-5.8668,-5.8081,-5.7874,-5.8185,-5.8426,-5.8978,-6.0496,-6.0252,-5.9596,-5.9587,-5.9306,-5.8613,-5.7195,-5.6536,-5.595,-5.4998,-5.3449,-5.2108,-5.1578,-4.9491,-4.7934,-4.7934,-4.7338,-4.7173,-4.7901,-4.8696,-4.9161,-4.9061,-4.9557,-4.9688,-4.9092,-4.8861,-4.8663,-4.8398,-4.7504,-4.6841,-4.6609,-4.4828,-4.3221,-4.1884,-3.9748,-3.7959,0.0,0.0,0.0,0.0,0.0,0.0,0.0,0.0,0.0,0.0,0.0,0.0,0.0,0.0,0.0,0.0,0.0,0.0,0.0,0.0,0.0,0.0,0.0,0.0,0.0,0.0,-7.4947,-7.4,-8.0288,-8.2874,-7.8076,-8.087,-8.3171,-8.3611,-8.6573,-8.919,-9.1174,-9.1616,-9.2322,-9.3526,-9.2909,-9.2262,-9.1653,-9.1509,-9.0482,-8.861,-8.8867,-8.8316,-8.7031,-8.7288,-8.6958,-8.6151,-8.5049,-8.4132,-8.3214,-8.1085,-7.861,-7.6115,-7.5019,-7.2704,-7.0126,-7.0898,-7.0257,-6.8964,-6.8958,-6.7747,-6.5873,-6.3295,-6.1772,-6.0771,-5.9771,-5.9806,-6.0185,-6.022,-6.0392,-6.0806,-6.1806,-6.153,-6.0908,-6.0659,-6.0175,-5.9417,-5.8001,-5.7198,-5.667,-5.6288,-5.4885,-5.3662,-5.3467,-5.1645,-5.0121,-4.9889,-4.8796,-4.8266,-4.9028,-4.9193,-4.8894,-4.8101,-4.916,-4.9425,-4.81,-4.8001,-4.7802,-4.7305,-4.6344,-4.5582,-4.5086,-4.4034,-4.2825,-4.146,-3.956,-3.7834,-3.6278,0.0,0.0,0.0,0.0,0.0,0.0,0.0,0.0,0.0,0.0,0.0,0.0,0.0,0.0,0.0,0.0,0.0,0.0,0.0,0.0,0.0,0.0,0.0,-6.7597,-7.3885,-7.7923,-7.6786,-8.4336,-8.7802,-8.3144,-8.7801,-9.1154,-9.1124,-9.3395,-9.4713,-9.4552,-9.5264,-9.5477,-9.4884,-9.4775,-9.4189,-9.3125,-9.3088,-9.184,-8.9382,-9.0188,-8.9307,-8.7031,-8.7802,-8.6848,-8.4609,-8.4609,-8.3251,-8.1048,-8.0975,-7.9543,-7.7127,-7.5579,-7.3538,-7.1531,-7.1494,-7.1078,-7.0268,-6.8716,-6.7215,-6.5811,-6.4979,-6.3738,-6.2565,-6.253,-6.253,-6.253,-6.253,-6.3013,-6.3565,-6.3565,-6.3013,-6.2461,-6.2427,-6.1289,-6.008,-5.9623,-5.8683,-5.7572,-5.6466,-5.5288,-5.4295,-5.3533,-5.2804,-5.2144,-5.1415,-5.0651,0.0,-5.1149,-5.0116,-4.9056,-4.8165,-4.8861,-4.8995,-4.81,-4.7968,-4.7305,-4.5847,-4.5682,-4.5019,-4.3598,-4.3499,-4.3076,-4.2232,-3.9813,-3.7861,-3.6341,0.0,0.0,0.0,0.0,0.0,0.0,0.0,0.0,0.0,0.0,0.0,0.0,0.0,0.0,0.0,0.0,0.0,0.0,0.0,0.0,0.0,0.0,-7.1487,-7.3301,-7.7784,-8.2347,-8.6348,-8.9876,-9.1779,-9.1156,-9.3125,-9.4366,-9.4198,-9.5488,-9.675,-9.7738,-9.6708,-9.6275,-9.6619,-9.4741,-9.3528,-9.3088,-9.2464,-9.1253,-8.9382,-8.9638,-8.8793,-8.7031,-8.7252,-8.6334,-8.4609,-8.4609,-8.3544,-8.1782,-8.0608,-7.9029,-7.72,-7.6166,-7.4531,-7.2667,-7.2085,-7.1236,-7.0163,-6.8391,-6.7489,-6.6882,-6.523,-6.4427,-6.3979,-6.3462,-6.3289,-6.3289,-6.3289,-6.3048,-6.2772,-6.2772,-6.222,-6.1496,-6.0944,-6.0496,-5.984,-5.8634,-5.7946,-5.7462,-5.7083,-5.5871,-5.4592,-5.3569,-5.2407,-5.1547,-5.1348,-5.022,0.0,-4.969,-4.8928,-4.8696,-4.9493,-4.936,-4.8861,-4.8067,-4.701,-4.598,-4.5052,-4.3495,-4.2435,-4.2009,-4.1541,-4.08,-3.979,-3.8977,-3.8209,0.0,0.0,0.0,0.0,0.0,0.0,0.0,0.0,0.0,0.0,0.0,0.0,0.0,0.0,0.0,0.0,0.0,0.0,0.0,0.0,0.0,0.0,-7.1772,-7.6523,-7.9948,-8.2675,-8.6196,-9.1147,-9.3054,-9.4507,-9.576,-9.6318,-9.6842,-9.7409,-9.7995,-9.8667,-9.9457,-9.846,-9.7799,-9.7654,-9.6179,-9.4963,-9.4116,-9.3272,-9.2024,-9.0408,-8.9748,-8.8757,-8.7472,-8.6811,-8.5637,0.0,-8.4095,-8.281,-8.0608,-7.969,-7.8112,0.0,0.0,0.0,0.0,0.0,-7.0742,-6.9672,-6.7786,-6.7029,-6.6598,-6.4813,-6.422,-6.4152,-6.3738,-6.36,-6.3531,-6.322,-6.2806,-6.2393,-6.2082,-6.1634,-6.1185,-6.0771,-6.0427,-5.9944,-5.9047,-5.8084,-5.7226,-5.6918,0.0,0.0,-5.2957,-5.2414,-5.1976,-5.1415,-5.0551,-4.9922,-4.9591,-4.9193,-4.9161,-4.9826,-4.9393,-4.8795,-4.8068,-4.6943,0.0,0.0,0.0,-4.1607,-4.1011,-4.0525,0.0,0.0,0.0,-3.8594,-3.7669,0.0,0.0,0.0,-3.6196,-3.5838,0.0,0.0,0.0,0.0,0.0,0.0,0.0,0.0,0.0,0.0,0.0,0.0,0.0,0.0,0.0,0.0,-7.6344,-8.1025,-8.6449,-8.7958,-8.9707,-9.2914,-9.4697,-9.6294,-9.7892,-9.8115,-9.8783,-10.0307,-10.0418,-10.0421,-10.0314,0.0,0.0,0.0,0.0,-9.7244,-9.5547,-9.4593,-9.3382,-9.1767,-9.0188,-8.8942,-8.8027,-8.6483,-8.4869,-8.3298,-8.3364,-8.1636,-7.8736,-7.8626,-7.7084,-7.4771,-7.4661,-7.3566,-7.1927,-7.0809,-6.999,-6.9205,-6.7322,0.0,0.0,-6.4361,-6.3807,-6.3669,-6.3531,-6.3531,-6.3427,-6.2703,-6.2496,-6.2289,-6.1496,-6.1254,-6.1151,-6.1082,-6.053,-6.0047,-6.0047,-5.8702,-5.7295,-5.6508,-5.5451,-5.416,-5.2471,-5.2761,-5.2741,-5.1382,-5.1116,-5.0817,-5.0187,-5.0021,-4.9756,-4.9293,0.0,0.0,-4.8067,-4.7272,-4.5947,-4.3962,-4.3002,-4.1872,-4.0475,-4.021,-3.9709,-3.8821,-3.9331,-3.8869,-3.7381,-3.7454,-3.7417,-3.7328,-3.6414,-3.6116,0.0,0.0,0.0,0.0,0.0,0.0,0.0,0.0,0.0,0.0,0.0,0.0,0.0,0.0,0.0,-7.5517,-8.0654,-8.5483,-8.9273,-9.1618,-9.3438,-9.4771,-9.6406,-9.778,-9.8783,-9.9452,-10.0195,-10.1198,-10.131,-10.1496,-10.2091,-10.1278,0.0,-9.9463,-9.7833,-9.6503,-9.5511,-9.4079,-9.2831,-9.1767,0.0,0.0,-8.7449,-8.631,-8.4627,-8.2606,-8.3197,-8.1929,-7.9507,-7.8883,-7.6754,-7.3854,-7.323,-7.276,-7.2226,-7.0839,-7.0438,-7.03,-6.8435,-6.7565,-6.7058,-6.5852,-6.5014,-6.4255,-6.3048,-6.3117,0.0,-6.2703,-6.2496,-6.2289,-6.1496,-6.0875,-6.0254,-5.9599,-5.9357,-5.9254,-5.9254,-5.8944,-5.8462,-5.7704,-5.6678,-5.5587,-5.4634,-5.3146,-5.1727,-5.0586,-4.9922,-4.9458,-4.9326,-4.8796,-4.8398,-4.8265,-4.8762,-4.8795,-4.8067,-4.6778,-4.5814,-4.5384,-4.3595,-4.1872,-4.0475,-4.0382,-3.9853,-3.8821,-3.8925,-3.8576,-3.778,-3.7793,-3.7535,-3.706,-3.6352,-3.6034,0.0,0.0,0.0,0.0,0.0,0.0,0.0,0.0,0.0,0.0,0.0,-6.5608,0.0,0.0,-7.5888,-7.9539,-8.3552,-8.7341,-9.0647,-9.2876,-9.4808,-9.6443,-9.7743,-9.8969,-10.0195,-10.0715,-10.1198,-10.2015,-10.2498,-10.2574,-10.2389,-10.2201,-10.1308,-9.9456,-9.8454,-9.7309,-9.6098,-9.452,-9.3492,-9.3015,-9.0264,-8.8581,-8.7846,-8.541,-8.3846,-8.3081,-8.225,-8.0975,-7.934,-7.6905,-7.4538,-7.2253,-7.1853,-7.1707,-7.1547,-7.037,-6.9849,-6.9565,-6.8062,-6.7204,-6.6595,-6.5607,-6.4772,-6.3945,-6.2841,-6.2737,-6.2806,-6.1668,-6.1358,-6.1151,-6.0358,-5.9875,-5.9495,-5.9116,-5.9012,-5.9012,-5.9012,-5.8737,-5.8254,-5.7495,-5.657,-5.5511,-5.4216,-5.2907,-5.1799,-5.1127,-5.0223,-4.9558,-4.9293,-4.8928,-4.853,-4.8035,-4.8332,-4.8398,-4.8035,-4.6314,-4.5086,-4.4721,-4.2999,-4.1806,-4.1475,-4.1021,-4.0381,-3.9489,-3.9317,-3.893,-3.8262,-3.7857,-3.7565,-3.7419,-3.6631,-3.6315,0.0,0.0,0.0,0.0,0.0,0.0,0.0,0.0,-6.4493,-6.858,-6.9434,-7.0735,-7.5007,-7.7125,-7.9502,-8.3292,-8.6078,-8.879,-9.1762,-9.3619,-9.5588,-9.8077,-9.8932,-9.9861,-10.1124,-10.1495,-10.2015,-10.2721,-10.339,-10.3317,-10.22,-10.2788,-10.2006,-9.948,-9.9181,-9.8337,-9.6722,-9.5107,-9.4226,-9.4006,-9.0258,-8.8424,-8.82,-8.4624,-8.3199,-8.337,-8.0974,-7.9321,-7.8027,-7.4579,-7.2245,-7.0875,-7.0676,-7.0609,-7.0541,-6.9778,-6.9198,-6.8604,-6.745,-6.6497,-6.5738,-6.4945,-6.4186,-6.3427,-6.253,-6.2358,-6.2151,-6.0634,-6.0185,-6.0047,-5.9392,-5.9116,-5.9012,-5.9012,-5.9012,-5.9012,-5.9012,-5.8426,-5.7667,-5.6943,-5.615,-5.5088,-5.3393,-5.2663,-5.2134,-5.1665,-5.0791,-4.9988,-4.9426,-4.9324,-4.9026,-4.81,-4.8001,-4.7869,-4.7571,-4.6046,-4.4688,-4.3664,-4.2738,-4.2336,-4.2473,-4.1956,-4.1177,-4.0099,-3.9902,-3.9373,-3.8604,-3.7943,-3.7711,-3.7886,-3.7118,-3.6847,-5.6506,-5.6692,-5.8549,-6.2896,-6.3119,-6.4345,0.0,0.0,-7.2135,-7.6233,-7.705,-7.7645,-7.9651,-8.1397,-8.3366,-8.5966,-8.9087,-9.1799,-9.3657,-9.5328,-9.726,-9.9749,-10.0121,-10.0195,-10.0418,-10.1718,-10.261,-10.2721,-10.2796,-10.2686,-10.2389,-10.2274,-10.1676,-10.0524,-9.9554,-9.8337,-9.6722,-9.5107,-9.3932,-9.3198,-9.0003,-8.8193,-8.7537,-8.497,-8.3105,-8.1871,-7.9349,-7.702,-7.49,-7.3262,-7.1903,-7.0809,-6.992,-6.9598,-6.9671,-6.9563,-6.9345,-6.8945,-6.7492,-6.6497,-6.5738,-6.4945,-6.4186,-6.3324,-6.1875,-6.191,-6.2151,-6.0634,-6.0185,-6.0185,-6.0082,-5.953,-5.9012,-5.9012,-5.9012,-5.9012,-5.9012,-5.8426,-5.7667,-5.6943,-5.615,-5.5228,-5.408,-5.297,-5.1964,-5.0961,-5.0458,-4.9955,-4.9226,-4.9127,-4.8829,-4.81,-4.8001,-4.7471,-4.6146,-4.6411,-4.5781,-4.3731,-4.4688,-4.4456,-4.2572,-4.3035,-4.2319,-4.0132,-4.0071,-3.957,-3.8604,-3.852,-3.8262,-3.7915,-3.7799,-3.7596,-6.0444,0.0,0.0,0.0,-6.7911,-7.0623,-7.4821,-7.575,-7.678,-8.0394,-8.1137,-8.162,-8.3254,-8.4518,-8.575,0.0,-8.9803,-9.2216,-9.365,-9.5044,-9.6409,-9.7826,-9.8082,-9.9081,-10.1495,-10.2313,-10.2721,-10.2721,-10.3094,-10.3019,-10.2275,-10.2489,-10.1704,-9.9777,-9.9331,-9.8117,-9.6025,-9.485,-9.3489,-9.1757,-8.9177,-8.7353,-8.6198,-8.3929,-8.178,-7.9834,-7.7854,-7.5667,-7.3396,-7.1934,-7.0804,-6.9991,-6.956,-6.9266,-6.8978,-6.8558,-6.8197,-6.7753,-6.6716,-6.5842,-6.5083,-6.4289,-6.3565,-6.2668,-6.1116,-6.0875,-6.0909,-5.9806,-5.9495,-5.9495,-5.9495,-5.9254,-5.9012,-5.9012,-5.9012,-5.8909,-5.8461,-5.8116,-5.7529,-5.6357,-5.5839,-5.5327,-5.4441,-5.3739,-5.3139,-5.2668,-5.1631,-5.0851,-5.0989,-5.0482,-4.9916,-4.9325,-4.8531,-4.7735,-4.71,-4.6573,-4.5881,-4.4953,-4.5052,-4.492,-4.4456,-4.4291,-4.3598,-4.2154,-4.1124,-4.0226,-3.9331,-3.857,-3.8205,-3.8177,-3.7799,-3.774,-6.2673,0.0,0.0,-6.8431,-7.1961,-7.5416,-7.7385,-7.8759,-8.0505,-8.3529,-8.3975,-8.4279,-8.5844,-8.6592,-8.7407,-8.8609,-9.0782,-9.2785,-9.4247,-9.5195,-9.5889,-9.6345,-9.6337,-9.7446,-10.0418,-10.131,-10.1905,-10.2314,-10.2686,-10.2609,-10.1714,-10.2112,-10.1289,-9.9181,-9.8888,-9.7635,-9.5242,-9.4219,-9.256,-9.0262,-8.7996,-8.6424,-8.5351,-8.289,-8.047,-7.8188,-7.6643,-7.4642,-7.2395,-7.1061,-7.0078,-6.9412,-6.9412,-6.9118,-6.86,-6.7626,-6.7191,-6.6807,-6.5669,-6.4876,-6.422,-6.3289,-6.2599,-6.191,-6.0599,-6.0185,-6.0047,-5.9254,-5.9012,-5.9012,-5.9012,-5.9012,-5.9012,-5.9012,-5.9012,-5.8806,-5.8081,-5.7736,-5.7219,-5.5874,-5.546,-5.5118,-5.4471,-5.4143,-5.3948,-5.3849,-5.2707,-5.2027,-5.2462,-5.1479,-5.0608,-5.0252,-4.8895,-4.7933,-4.7729,-4.6539,-4.5715,-4.5516,-4.5185,-4.5152,-4.5483,-4.5351,-4.4787,-4.3598,-4.2107,-4.0877,-3.9902,-3.8671,-3.8205,-3.8408,-3.7918,-3.7947,0.0,0.0,-6.6202,-7.1812,-7.4487,-7.7013,-8.1843,-8.2994,-8.3708,-8.601,-8.5868,-8.5799,-8.7193,-8.746,-8.8339,-9.0946,-9.2758,-9.4456,-9.626,-9.6554,-9.6591,-9.6591,-9.5923,-9.5477,0.0,-9.7817,-9.979,-10.1093,-10.1315,-10.1091,-10.071,-10.0671,-10.0225,-9.9145,-9.8337,-9.6816,-9.454,-9.2976,-9.1023,-8.8747,-8.6507,-8.5464,-8.5273,-8.2325,-7.9662,-7.738,-7.58,-7.3834,-7.1693,-7.085,-7.0078,-6.9412,-6.9412,-6.9118,-6.8531,-6.7071,-6.674,-6.6669,-6.4427,-6.3634,-6.3393,-6.1875,-6.1358,-6.1185,-6.0427,-6.0185,-6.0047,-5.9254,-5.9012,-5.9012,-5.9012,-5.9012,-5.9012,-5.9012,-5.9012,-5.8806,-5.8081,-5.7357,-5.6598,-5.577,-5.5046,-5.4434,-5.4078,-5.4013,-5.3882,-5.3483,-5.3382,-5.3247,-5.2904,-5.1323,-5.0219,-5.022,-4.8895,-4.7703,-4.6974,-4.6245,-4.5483,-4.4754,-4.5384,-4.545,-4.4754,-4.6079,-4.5814,-4.3631,-4.2719,-4.1486,-3.9902,-3.9014,-3.852,-3.8408,-3.8379,-3.8379,-6.4419,0.0,-7.0958,-7.6159,-7.9094,-8.1545,-8.4852,-8.5912,-8.6301,-8.6566,-8.5143,-8.3991,-8.4252,-8.4023,-8.4665,-8.7439,-8.9821,-9.2069,-9.4108,-9.5577,-9.6048,-9.4938,-9.5186,0.0,0.0,0.0,0.0,-9.798,-9.8391,-9.8725,-9.8978,-9.9414,-9.8733,-9.6903,-9.6571,-9.5122,-9.2249,-9.1707,-9.0042,-8.7215,-8.4513,-8.3215,-8.3144,-8.0563,-7.8644,-7.7275,-7.4677,-7.2851,-7.1622,-7.0288,-6.9621,-6.9412,-6.9412,-6.8803,-6.7835,-6.6862,-6.5769,-6.4565,-6.3289,-6.2841,-6.2599,-6.1082,-6.0565,-6.0427,-5.9633,-5.9392,-5.9357,-5.9081,-5.9012,-5.9012,-5.9012,-5.9012,-5.9012,-5.9012,-5.9012,-5.8806,-5.8081,-5.7322,-5.6564,-5.577,-5.5012,-5.4463,-5.4335,-5.4748,-5.4928,-5.4598,-5.3281,-5.2269,-5.2201,-5.0592,-4.9525,-4.9658,-4.8696,-4.7901,-4.7636,-4.651,-4.5682,-4.545,-4.5185,-4.4984,-4.4688,-4.5152,-4.4854,-4.3598,-4.2257,-4.1025,-3.9902,-3.9014,-3.8548,-3.8408,-3.8408,-3.8408,-6.7057,-7.0586,-7.4673,-7.9576,-8.2445,-8.4508,-8.6397,-8.6902,-8.6557,-8.5184,-8.3273,-8.1641,-8.108,-8.0662,-8.1399,-8.433,-8.6734,-8.9381,-9.2635,-9.4025,-9.4639,-9.4456,-9.4518,0.0,0.0,0.0,0.0,-9.6134,-9.6363,-9.6655,-9.7207,-9.7376,-9.6651,-9.4904,-9.4622,-9.326,-9.0739,-9.0165,-8.8321,-8.5277,-8.3112,-8.1945,-8.1593,-7.9522,-7.7837,-7.6432,-7.3905,-7.2219,-7.1166,-6.9902,-6.9412,-6.934,-6.906,-6.8418,-6.7417,-6.6166,-6.4797,-6.3427,-6.2427,-6.1875,-6.1461,-6.0185,-5.9771,-5.9668,-5.9185,-5.9012,-5.9012,-5.9012,-5.9012,-5.9012,-5.9012,-5.9012,-5.9012,-5.9012,-5.9012,-5.8806,-5.8081,-5.7322,-5.6564,-5.577,-5.5012,-5.4494,-5.4494,-5.4908,-5.5122,-5.4928,-5.3106,-5.1866,-5.2167,-5.0726,-4.9659,-4.9691,-4.8663,-4.8001,-4.8001,-4.6874,-4.6079,-4.5814,-4.5351,-4.4953,-4.4688,-4.4953,-4.4622,-4.3598,-4.229,-4.1025,-3.9902,-3.9014,-3.8548,-3.8408,-3.8408,-3.8408,-6.9893,-7.367,-7.731,-8.2148,-8.4373,-8.5641,-8.6549,-8.6015,-8.4603,-8.2178,-8.0406,-7.8849,0.0,0.0,-7.8552,-8.1728,-8.3898,-8.6902,-9.1949,-9.2262,-9.2769,0.0,0.0,0.0,0.0,0.0,0.0,-9.5441,0.0,-9.4792,-9.525,-9.4707,-9.3982,-9.3107,-9.246,-9.1427,-8.9858,-8.8294,-8.6099,-8.3244,-8.2436,-8.1629,-8.0821,-7.9206,-7.7205,-7.4958,-7.3413,-7.1903,-7.0429,-6.9691,-6.9412,-6.9235,-6.8498,-6.7891,-6.7208,-6.5015,-6.3894,-6.3255,-6.1772,-6.0806,-6.0082,-5.9254,-5.9012,-5.9012,-5.9012,-5.9012,-5.9012,-5.9012,-5.9012,-5.9012,-5.9012,-5.9012,-5.9012,-5.9012,-5.9012,-5.8806,-5.8116,-5.7357,-5.6564,-5.5805,-5.5046,-5.4529,-5.4563,-5.4529,-5.4529,-5.4563,-5.2935,-5.1981,-5.2705,-5.1497,-5.046,-5.0122,-4.8829,-4.8001,-4.8001,-4.7305,-4.6543,-4.5847,-4.5715,-4.5351,-4.4655,-4.5317,-4.4986,-4.3499,-4.2686,-4.1453,-3.9837,-3.9042,-3.8548,-3.8408,-3.8408,-3.8408,-7.4524,-7.8351,-8.1911,-8.4378,-8.5283,-8.5487,-8.519,-8.4391,-8.2867,-7.99,-7.6697,-7.379,0.0,0.0,0.0,-7.8316,-8.278,0.0,-9.1766,-9.3894,0.0,-9.5161,0.0,-9.5,-9.2794,-9.1364,0.0,0.0,-9.1382,-9.1587,-9.2197,-9.2652,-9.1991,-9.008,-8.9828,-8.8792,-8.6687,-8.5691,-8.4862,-8.4086,-8.2155,-8.0821,-8.0014,-7.7837,-7.5941,-7.4185,-7.2641,-7.1412,-7.0429,-6.9691,-6.9024,-6.8498,-6.8287,-6.7226,-6.5746,-6.4633,-6.3201,-6.1737,-6.0806,-6.0358,-6.0082,-5.9254,-5.9012,-5.9012,-5.9012,-5.9012,-5.9012,-5.9012,-5.9012,-5.9012,-5.9012,-5.9012,-5.9012,-5.9012,-5.9012,-5.8944,-5.8771,-5.7702,-5.6736,-5.6529,-5.5426,-5.4667,-5.5221,-5.4874,-5.4701,-5.5253,-5.347,-5.1953,-5.1658,-5.012,-4.8924,-4.8597,-4.8233,-4.8001,-4.8001,-4.7136,-4.6339,-4.5814,-4.4787,-4.4062,-4.3863,-4.4062,-4.3466,-4.2005,-4.1716,-4.0838,-3.9221,-3.9029,-3.8766,-3.8548,-3.8548,-3.8492,-7.7861,-8.1282,-8.4198,-8.5696,-8.6028,-8.5446,-8.3438,-8.1946,-7.9782,-7.537,-7.2157,0.0,-6.7096,0.0,0.0,0.0,0.0,0.0,-8.9584,-9.2423,-9.4264,0.0,-9.5391,0.0,-9.3425,-9.1625,-9.0415,0.0,-8.9793,-8.9869,-9.054,-9.0717,-9.005,-8.8409,-8.81,-8.7034,-8.5034,-8.4613,-8.4051,-8.3384,-8.1699,-8.033,-7.9206,-7.7205,-7.5274,-7.3413,0.0,-7.1061,-6.9972,-6.9551,-6.8919,-6.8145,-6.7757,-6.6454,-6.4667,-6.3483,-6.2125,-6.0703,-5.9944,-5.9668,-5.9599,-5.915,-5.9012,-5.9012,-5.9012,-5.9012,-5.9012,-5.9012,-5.9012,-5.9012,-5.9012,-5.9012,-5.9012,-5.9012,-5.9012,-5.9012,-5.9012,-5.8116,-5.7081,-5.6426,-5.5322,-5.4632,-5.5046,-5.477,-5.4667,-5.5046,-5.3429,-5.2035,-5.1503,-4.9835,-4.8545,-4.8062,-4.8,-4.8001,-4.8001,-4.7469,-4.6771,-4.5847,-4.5019,-4.4291,-4.3631,-4.3598,-4.3069,-4.1939,-4.1574,-4.0762,-3.9473,-3.9144,-3.8876,-3.8604,-3.8604,-3.8548,-8.0545,-8.3302,-8.5515,-8.6441,-8.6574,-8.5362,-8.1545,-7.9202,-7.6125,-7.0156,0.0,-6.5652,-6.3208,-6.4699,-6.739,-7.0568,0.0,-8.1271,-8.7036,-8.9872,-9.2257,-9.4716,-9.4259,-9.3697,-9.3515,-9.1453,-9.0017,-8.9716,-8.8936,-8.8782,-8.9563,-8.9083,-8.834,-8.7417,-8.6617,-8.5596,-8.4262,-8.4156,-8.3419,-8.2085,-8.1067,-7.9838,-7.8363,-7.6819,-7.4853,-7.2606,0.0,0.0,-6.9412,-6.9412,-6.8849,-6.797,-6.7159,-6.572,-6.3867,-6.2231,-6.1051,-6.0082,-5.9288,-5.9012,-5.9012,-5.9012,-5.9012,-5.9012,-5.9012,-5.9012,-5.9012,-5.9012,-5.8944,-5.8875,-5.8875,-5.8875,-5.8875,-5.8875,-5.8944,-5.9012,-5.9012,-5.8426,-5.746,-5.5908,-5.5081,-5.4632,-5.4529,-5.4494,-5.4494,-5.4494,-5.3287,-5.22,-5.1716,-5.0144,-4.8759,-4.815,-4.803,-4.8,-4.8001,-4.8,-4.737,-4.5881,-4.5746,-4.5052,-4.3664,-4.3598,-4.3234,-4.2506,-4.1844,-4.1092,-4.0127,-3.9468,-3.8975,-3.8632,-3.8632,-3.8548,-8.3301,-8.6052,-8.8104,-8.7054,-8.6275,-8.4563,-8.0052,-7.6775,0.0,0.0,-6.4741,-6.2589,-6.059,-6.2852,-6.6566,-7.1268,0.0,0.0,0.0,0.0,-9.2016,0.0,0.0,0.0,0.0,0.0,0.0,0.0,0.0,0.0,-8.8189,-8.8121,-8.7406,-8.5918,-8.4517,-8.37,-8.3419,-8.2787,-8.2331,-8.205,-7.9978,-7.8504,-7.7556,-7.6011,-7.4045,-7.1903,0.0,0.0,-6.9412,-6.9412,-6.8533,-6.7199,-6.7023,-6.5442,-6.3101,-6.2162,-6.1155,-6.0082,-5.9288,-5.9012,-5.9012,-5.9012,-5.9012,-5.9012,-5.9012,-5.9012,-5.9012,-5.9012,-5.8564,-5.8081,-5.8081,-5.8081,-5.8081,-5.8081,-5.8564,-5.9012,-5.9012,-5.8426,-5.746,-5.5908,-5.5529,-5.5219,-5.4632,-5.4494,-5.4494,-5.4494,-5.377,-5.2777,-5.1661,-5.0214,-4.9036,-4.8578,-4.8221,-4.7995,-4.8001,-4.7997,-4.7364,-4.5912,-4.5445,-4.4716,-4.3631,-4.3598,-4.3234,-4.2506,-4.2373,-4.1645,-4.0354,-4.0051,-3.9522,-3.8766,-3.8628,-3.8548,-8.5906,-8.7793,-8.9019,-8.8171,-8.6444,-8.3521,-7.8031,0.0,0.0,0.0,-6.1553,-5.9969,-5.8255,0.0,0.0,0.0,0.0,0.0,0.0,0.0,0.0,0.0,0.0,0.0,0.0,0.0,0.0,0.0,0.0,0.0,-8.6614,-8.6263,-8.5736,-8.4964,-8.3805,-8.3033,-8.2612,-8.2261,-8.1699,-8.0856,-7.9311,-7.7977,-7.6784,-7.5625,-7.3869,-7.1728,-7.1728,0.0,-6.934,-6.8954,-6.8076,-6.6917,-6.6353,-6.4602,-6.237,-6.1814,-6.0704,-5.953,-5.915,-5.9012,-5.9012,-5.9012,-5.9012,-5.9012,-5.9012,-5.9012,-5.9012,-5.9012,-5.8771,-5.8392,-5.8012,-5.8185,-5.8288,-5.7529,-5.7909,-5.853,-5.8944,-5.8426,-5.7702,-5.6943,-5.615,-5.5495,-5.515,-5.477,-5.4494,-5.4494,-5.3873,-5.3015,-5.1989,-5.0571,-4.9445,-4.888,-4.8308,-4.8023,-4.7995,-4.7997,-4.7368,-4.5881,-4.558,-4.4884,-4.3631,-4.3598,-4.3433,-4.3069,-4.2704,-4.217,-4.1508,-4.0662,-3.999,-3.9456,-3.893,-3.8628,-8.7322,-8.8791,-8.9589,-8.8908,-8.6533,-8.2629,-7.6251,-7.1536,0.0,0.0,-5.8838,-5.779,-5.6632,0.0,0.0,0.0,0.0,0.0,0.0,0.0,0.0,0.0,0.0,0.0,0.0,0.0,0.0,0.0,0.0,0.0,-8.5491,-8.4823,-8.4402,-8.4402,-8.363,-8.2857,-8.2085,-8.1909,-8.1067,-7.9522,-7.8574,-7.7275,-7.5765,-7.4958,-7.3448,-7.1447,-7.1447,0.0,0.0,-6.8708,-6.7901,-6.6917,-6.5999,-6.4252,-6.2126,-6.1605,-6.0531,-5.9323,-5.9081,-5.9012,-5.9012,-5.9012,-5.9012,-5.9012,-5.9012,-5.9012,-5.9012,-5.9012,-5.8909,-5.8633,-5.8047,-5.8323,-5.853,-5.7529,-5.7702,-5.8288,-5.8875,-5.8564,-5.8081,-5.7943,-5.6943,-5.6012,-5.5667,-5.515,-5.4701,-5.4529,-5.3873,-5.3115,-5.2291,-5.1098,-5.0022,-4.9295,-4.8588,-4.815,-4.802,-4.7997,-4.7438,-4.6113,-4.5881,-4.5218,-4.3863,-4.3664,-4.3598,-4.3598,-4.3035,-4.2638,-4.2506,-4.1347,-4.0568,-4.0066,-3.9368,-3.8869,-8.646,-8.8943,-9.063,-8.8522,-8.6055,-8.2311,-7.5417,0.0,0.0,-5.9689,-5.7425,-5.6443,-5.6392,-5.7258,-5.9666,0.0,0.0,-7.1136,0.0,0.0,0.0,0.0,0.0,0.0,0.0,0.0,0.0,0.0,0.0,0.0,0.0,-8.4823,-8.4402,-8.4402,-8.363,-8.2857,-8.2085,-8.1383,-8.0259,-7.8679,-7.7205,-7.5695,-7.4185,-7.3378,-7.2114,-7.0604,0.0,0.0,0.0,-6.9305,-6.8392,-6.6988,-6.6882,-6.5338,-6.3065,-6.2161,-6.1224,-6.022,-5.9323,-5.9012,-5.9012,-5.9012,-5.9012,-5.9012,-5.9012,-5.9012,-5.9012,-5.9012,-5.853,-5.8012,-5.7909,-5.7943,-5.815,-5.8668,-5.8875,-5.8944,-5.9012,-5.8944,-5.8702,-5.8047,-5.7805,-5.7253,-5.5807,-5.5531,-5.5288,-5.4598,-5.3873,-5.3115,-5.2291,-5.1731,-5.1006,-4.9987,-4.932,-4.8666,-4.8054,-4.7997,-4.7669,-4.6841,-4.6179,-4.5417,-4.4622,-4.3959,-4.3598,-4.3598,-4.3532,-4.3168,-4.2506,-4.2224,-4.144,-4.0099,-3.9893,-3.936,-8.666,-8.8871,-9.0072,-8.8671,-8.5019,-8.0194,-7.4159,0.0,0.0,-5.8482,-5.6365,-5.5355,-5.5417,-5.5846,-5.7328,0.0,0.0,0.0,0.0,0.0,0.0,0.0,0.0,0.0,0.0,0.0,0.0,0.0,0.0,0.0,0.0,-8.384,-8.37,-8.37,-8.2928,-8.2155,-8.1383,-8.0154,-7.896,-7.7872,-7.5871,-7.4607,-7.3975,-7.2711,-7.1552,-7.0499,0.0,0.0,0.0,-6.8357,-6.7585,-6.6882,-6.5829,-6.4288,-6.2541,-6.1953,-6.0878,-5.9701,-5.9184,-5.9323,-5.9633,-5.9322,-5.9426,-5.9633,-5.915,-5.9012,-5.9012,-5.9012,-5.8806,-5.8461,-5.8012,-5.7564,-5.7426,-5.815,-5.8357,-5.8357,-5.8357,-5.8702,-5.8909,-5.8633,-5.8219,-5.7564,-5.6495,-5.5943,-5.5219,-5.4011,-5.3598,-5.2942,-5.1701,-5.1356,-5.0942,-5.008,-4.9282,-4.856,-4.8039,-4.7995,-4.7703,-4.6941,-4.6212,-4.545,-4.4721,-4.3992,-4.3598,-4.3598,-4.3598,-4.3466,-4.3168,-4.2646,-4.189,-4.0866,-4.0297,-3.9565,-8.5329,-8.7841,-8.9081,-8.8069,-8.3903,-7.8641,0.0,0.0,-6.1605,-5.7763,-5.5756,-5.4717,-5.478,-5.4961,-5.5776,0.0,0.0,-6.0506,0.0,0.0,0.0,0.0,0.0,0.0,0.0,0.0,0.0,0.0,0.0,0.0,0.0,-8.2647,-8.2647,-8.2857,-8.2366,-8.1488,-8.0224,-7.9136,-7.7837,-7.6397,-7.4782,-7.362,-7.2844,-7.1795,-7.0845,-6.996,0.0,0.0,0.0,-6.8109,-6.7373,-6.6847,-6.5583,-6.4044,-6.2436,-6.1849,-6.0739,-5.9597,-5.915,-5.9392,-5.9771,-5.9424,-5.9529,-5.9737,-5.9253,-5.9047,-5.9012,-5.9012,-5.9012,-5.8875,-5.8357,-5.784,-5.7529,-5.784,-5.8081,-5.8185,-5.7943,-5.8495,-5.9012,-5.9012,-5.8599,-5.8012,-5.7253,-5.646,-5.5529,-5.4253,-5.3494,-5.2666,-5.1597,-5.1045,-5.0597,-5.008,-4.9218,-4.8622,-4.8326,-4.8125,-4.7769,-4.7272,-4.6543,-4.5781,-4.5052,-4.4324,-4.3797,-4.3598,-4.3598,-4.3499,-4.3267,-4.2969,-4.2237,-4.111,-4.0701,-3.9874,-8.1793,-8.553,-8.7931,-8.6316,-8.2859,-7.8316,0.0,0.0,-6.1392,-5.7598,-5.5563,-5.4557,-5.4749,-5.478,-5.5359,-5.701,0.0,0.0,0.0,0.0,0.0,0.0,0.0,0.0,0.0,0.0,0.0,0.0,0.0,0.0,0.0,-8.1348,-8.1277,-8.2085,-8.2085,-8.0961,-7.8644,-7.8609,-7.7064,-7.4045,-7.401,-7.2665,-7.0231,-7.0421,-6.9852,0.0,0.0,0.0,0.0,-6.9115,-6.8245,-6.6987,-6.6843,-6.5337,-6.3135,-6.2023,-6.112,-6.0324,-5.9357,-5.9012,-5.9047,-5.9251,-5.9183,-5.9047,-5.9251,-5.9149,-5.9012,-5.9012,-5.9012,-5.9012,-5.9012,-5.8978,-5.8806,-5.8081,-5.8461,-5.8806,-5.8081,-5.8495,-5.9012,-5.9012,-5.9012,-5.8771,-5.8012,-5.7288,-5.6529,-5.5701,-5.3635,-5.2188,-5.2188,-5.0907,-5.0011,-5.0011,-4.9415,-4.8984,-4.8984,-4.8356,-4.8001,-4.8001,-4.7305,-4.6543,-4.5814,-4.5052,-4.4357,-4.3598,-4.3598,-4.3234,-4.2506,-4.3234,-4.2502,-4.0442,-4.1077,-4.0446,-7.4857,-7.7476,-7.9074,-7.7511,-7.5257,-7.2209,-6.7649,0.0,-6.0737,-5.746,-5.5563,-5.4667,-5.5248,-5.5063,-5.599,-5.9629,-5.9902,0.0,0.0,0.0,0.0,0.0,0.0,0.0,0.0,0.0,0.0,0.0,0.0,0.0,0.0,-8.0575,-8.0505,-8.1277,-8.0786,-7.9908,-7.8609,-7.6871,-7.5248,-7.3777,-7.201,-7.0775,-7.0004,-6.9485,0.0,0.0,0.0,0.0,0.0,-6.7738,-6.7041,-6.6556,-6.5437,-6.3938,-6.2265,-6.178,-6.0808,-5.9597,-5.9184,-5.9357,-5.9771,-5.9424,-5.9529,-5.9771,-5.9424,-5.9149,-5.9012,-5.9012,-5.9012,-5.9012,-5.9012,-5.9012,-5.8702,-5.746,-5.8116,-5.853,-5.6736,-5.7357,-5.8116,-5.7598,-5.7495,-5.7253,-5.646,-5.615,-5.5563,-5.4287,-5.3011,-5.2015,-5.1498,-5.0597,-4.9923,-4.9683,-4.9263,-4.892,-4.8754,-4.8257,-4.8001,-4.8001,-4.7305,-4.6576,-4.5814,-4.5086,-4.4357,-4.3598,-4.3598,-4.3499,-4.3234,-4.3499,-4.2704,-4.1077,-4.0172,-3.9413,0.0,-7.2082,-7.3649,-7.2756,-7.0965,0.0,0.0,0.0,-5.9702,-5.6909,-5.5357,-5.4736,-5.5428,-5.5107,-5.5724,-5.8837,0.0,0.0,0.0,0.0,0.0,0.0,0.0,0.0,0.0,0.0,0.0,0.0,0.0,0.0,0.0,0.0,-7.9059,-7.9465,-7.8729,-7.7859,-7.6731,-7.4816,-7.3297,-7.2245,-7.0663,-6.971,-6.932,-6.8875,0.0,0.0,0.0,0.0,0.0,-6.6748,-6.6229,-6.592,-6.4595,-6.3135,-6.1745,-6.1259,-6.0082,-5.8734,-5.8633,-5.8909,-5.9288,-5.8974,-5.9355,-5.9771,-5.9322,-5.8908,-5.8668,-5.8944,-5.8806,-5.8668,-5.8944,-5.9012,-5.8702,-5.7495,-5.815,-5.8461,-5.6495,-5.7047,-5.7667,-5.6943,-5.6805,-5.6633,-5.615,-5.5805,-5.5288,-5.4391,-5.308,-5.2114,-5.1864,-5.0764,-4.986,-4.9466,-4.9168,-4.8889,-4.8599,-4.8226,-4.8001,-4.8001,-4.757,-4.6974,-4.6245,-4.5483,-4.4754,-4.4026,-4.3731,-4.3466,-4.3168,-4.2903,-4.244,-4.1778,-4.0238,-3.9408,0.0,-6.8552,0.0,0.0,0.0,0.0,0.0,-6.0978,0.0,-5.6081,-5.5012,-5.4736,-5.5563,-5.5046,-5.4839,-5.5839,0.0,0.0,0.0,0.0,0.0,0.0,0.0,0.0,0.0,0.0,0.0,0.0,0.0,0.0,0.0,0.0,-7.7116,-7.6838,-7.6034,-7.4986,-7.3692,-7.2619,-7.135,-6.9888,-6.9814,-6.9246,-6.8397,-6.852,0.0,0.0,0.0,0.0,0.0,-6.6041,-6.5702,-6.5082,-6.4104,-6.2818,-6.1398,-6.0531,-5.9254,-5.7978,-5.7909,-5.7909,-5.7942,-5.8074,-5.8558,-5.9078,-5.8909,-5.8392,-5.8047,-5.8806,-5.8495,-5.8081,-5.8806,-5.9012,-5.8806,-5.8081,-5.8461,-5.8599,-5.7047,-5.7288,-5.7598,-5.6805,-5.6633,-5.6633,-5.6633,-5.6012,-5.5497,-5.5497,-5.3635,-5.2425,-5.2926,-5.1247,-4.9835,-4.9406,-4.9138,-4.8829,-4.8483,-4.8196,-4.8001,-4.8001,-4.8001,-4.7669,-4.6941,-4.6245,-4.5483,-4.4718,-4.3992,-4.3267,-4.2572,-4.1778,-4.1778,-4.244,-4.0978,-4.0177,-5.8874,0.0,-6.1668,-6.053,-6.0703,-6.0668,0.0,0.0,-5.7702,-5.5977,0.0,-5.4908,-5.6288,-5.5426,0.0,0.0,0.0,0.0,0.0,0.0,0.0,0.0,0.0,0.0,0.0,0.0,0.0,0.0,0.0,0.0,0.0,0.0,-7.5055,-7.4223,-7.2731,-7.2383,-7.338,-7.1891,-7.0625,-6.9654,-6.8907,-6.8374,-6.8162,-6.7614,0.0,0.0,0.0,0.0,-6.5849,-6.4675,-6.4125,-6.3885,-6.2466,-6.1325,-6.0497,-6.0289,-5.9599,-5.8668,-5.8116,-5.7909,-5.7805,-5.7287,-5.7251,-5.7389,-5.7322,-5.7598,-5.8047,-5.8806,-5.8495,-5.8081,-5.8806,-5.9012,-5.8806,-5.8081,-5.8461,-5.8426,-5.6357,-5.6495,-5.6667,-5.5322,-5.5046,-5.5046,-5.5046,-5.4874,-5.477,-5.477,-5.3639,-5.285,-5.2988,-5.1261,-4.996,-4.9859,-4.9169,-4.8517,-4.8164,-4.8033,-4.8001,-4.8001,-4.8001,-4.7669,-4.6941,-4.6709,-4.6013,-4.4721,-4.3992,-4.3499,-4.3333,-4.2009,-4.1778,-4.244,-4.0481,-3.9627,-5.615,-5.7874,-5.9357,-5.8564,-5.8668,-5.8702,-5.7564,0.0,0.0,0.0,0.0,0.0,0.0,0.0,0.0,0.0,0.0,0.0,0.0,0.0,0.0,0.0,0.0,0.0,0.0,0.0,0.0,0.0,0.0,0.0,0.0,0.0,-7.3311,-7.269,-7.1076,-7.066,-7.1613,-7.0228,-6.9352,-6.8902,-6.8024,-6.7601,-6.7566,-6.6807,0.0,0.0,0.0,0.0,-6.4292,-6.3537,-6.2984,-6.2571,-6.1466,-6.0532,-5.9771,-5.9425,-5.8494,-5.7391,-5.6978,-5.684,-5.684,-5.6805,-5.6805,-5.6805,-5.6805,-5.684,-5.7012,-5.7771,-5.7702,-5.7564,-5.8323,-5.8495,-5.8495,-5.8426,-5.8461,-5.8081,-5.6495,-5.6495,-5.6357,-5.4805,-5.4494,-5.4494,-5.4494,-5.4218,-5.4115,-5.446,-5.326,-5.241,-5.2626,-5.0707,-4.9283,-4.9108,-4.878,-4.8455,-4.8033,-4.8001,-4.8001,-4.8001,-4.8001,-4.7835,-4.7404,-4.7073,-4.6212,-4.4721,-4.4324,-4.3959,-4.3598,-4.244,-4.2109,-4.244,-4.053,-3.9704,-5.5701,-5.8116,-6.0185,-5.9495,-5.8909,-5.8288,-5.7564,0.0,0.0,0.0,0.0,0.0,0.0,0.0,0.0,0.0,0.0,0.0,0.0,0.0,0.0,0.0,0.0,0.0,0.0,0.0,0.0,0.0,0.0,0.0,0.0,0.0,0.0,-7.1509,-7.0228,-6.9431,-6.9189,-6.8438,-6.8049,-6.7911,-6.729,-6.6945,-6.6807,-6.6048,-6.5255,0.0,0.0,0.0,-6.2325,-6.233,-6.1882,-6.119,-6.0563,-5.9799,-5.8936,-5.8245,-5.7073,-5.5803,-5.5667,-5.5529,-5.5563,-5.6219,-5.646,-5.646,-5.646,-5.5977,-5.5598,-5.6253,-5.6529,-5.6805,-5.7529,-5.7736,-5.7909,-5.853,-5.8185,-5.7529,-5.6771,-5.6633,-5.6219,-5.477,-5.4494,-5.4494,-5.4494,-5.3908,-5.3632,-5.4253,-5.298,-5.2131,-5.2495,-5.0181,-4.8397,-4.8025,-4.8289,-4.8391,-4.8033,-4.8001,-4.8001,-4.8001,-4.8001,-4.8001,-4.8001,-4.7305,-4.6245,-4.4887,-4.4754,-4.4324,-4.3598,-4.2738,-4.2373,-4.2411,-4.0772,-3.9944,-5.7012,-5.9288,-6.022,-5.6357,-5.577,-5.5943,0.0,0.0,0.0,0.0,0.0,0.0,0.0,0.0,0.0,0.0,0.0,0.0,0.0,0.0,0.0,0.0,0.0,0.0,0.0,0.0,0.0,0.0,0.0,0.0,0.0,0.0,0.0,-6.9751,-6.9474,-6.8749,-6.7437,-6.7881,-6.7773,-6.7152,-6.7049,-6.6669,-6.6014,-6.5255,-6.4462,0.0,0.0,-6.2324,-6.1427,-6.0947,-6.0289,-5.9596,-5.8965,-5.8266,-5.7573,-5.7272,-5.6999,-5.669,-5.5872,-5.5219,-5.4701,-5.4805,-5.4839,-5.4839,-5.4839,-5.477,-5.4701,-5.4839,-5.5322,-5.5977,-5.6771,-5.6978,-5.7012,-5.7116,-5.7047,-5.6736,-5.5977,-5.5805,-5.5529,-5.4667,-5.4494,-5.4494,-5.4494,-5.3908,-5.3425,-5.3563,-5.3848,-5.3921,-5.3594,-5.0338,-4.8089,-4.8001,-4.8067,-4.8066,-4.8001,-4.8001,-4.8001,-4.8001,-4.8001,-4.8001,-4.8001,-4.7305,-4.651,-4.5649,-4.5019,-4.4324,-4.3598,-4.2208,-4.1819,-4.2294,-4.0326,-3.9451,-5.4667,-5.6495,-5.7736,-5.5632,-5.7219,-5.8909,0.0,0.0,0.0,0.0,0.0,0.0,0.0,0.0,0.0,0.0,0.0,0.0,0.0,0.0,0.0,0.0,0.0,0.0,0.0,0.0,0.0,0.0,0.0,0.0,0.0,0.0,0.0,0.0,-6.8176,-6.7586,-6.7014,-6.6945,-6.6738,-6.6393,-6.5945,-6.5566,-6.5186,-6.4048,-6.3324,-6.2944,0.0,-6.1427,-6.0703,-6.0601,-5.987,-5.8826,-5.8738,-5.7964,-5.6722,-5.6053,-5.5819,-5.5718,-5.5213,-5.4805,-5.4494,-5.4494,-5.4494,-5.4494,-5.4494,-5.4494,-5.4494,-5.4494,-5.5046,-5.5701,-5.6081,-5.615,-5.6253,-5.6702,-5.646,-5.6046,-5.5701,-5.5598,-5.5391,-5.4667,-5.4494,-5.4494,-5.4494,-5.3529,-5.2908,-5.3322,-5.2658,-5.2084,-5.2059,-5.0396,-4.8946,-4.8329,-4.8132,-4.8001,-4.8001,-4.8001,-4.8001,-4.8001,-4.8001,-4.8001,-4.8001,-4.7305,-4.6543,-4.5814,-4.5052,-4.4324,-4.3598,-4.2109,-4.1517,-4.1758,-3.9974,-3.938,-5.3015,-5.4425,-5.5839,-5.5667,0.0,0.0,0.0,0.0,0.0,0.0,0.0,0.0,0.0,0.0,0.0,0.0,0.0,0.0,0.0,0.0,0.0,0.0,0.0,0.0,0.0,0.0,0.0,0.0,0.0,0.0,0.0,0.0,0.0,0.0,-6.7133,-6.6583,-6.6186,-6.5635,-6.5359,-6.5324,-6.4738,-6.4255,-6.3876,-6.2774,-6.2153,-6.191,-6.136,-6.0635,-5.9771,-6.0112,-5.9306,-5.7945,-5.8297,-5.7456,-5.5946,-5.5143,-5.4811,-5.4717,-5.4526,-5.4494,-5.4494,-5.4494,-5.4494,-5.4494,-5.4494,-5.4494,-5.4494,-5.4494,-5.4908,-5.5357,-5.5357,-5.5357,-5.5529,-5.6115,-5.5805,-5.5357,-5.5357,-5.5357,-5.5184,-5.4632,-5.4494,-5.446,-5.4287,-5.3115,-5.2356,-5.2804,-5.1236,-5.0159,-5.056,-5.015,-4.9535,-4.8849,-4.8296,-4.8001,-4.8001,-4.8001,-4.8001,-4.8001,-4.8001,-4.8001,-4.8001,-4.7305,-4.6543,-4.5814,-4.5052,-4.4324,-4.3598,-4.2109,-4.148,-4.1584,-4.0045,-3.9666,-5.4805,-5.6046,-5.6529,-5.5805,-5.5874,0.0,-6.0358,-5.9426,0.0,-6.2393,0.0,0.0,0.0,0.0,0.0,0.0,0.0,0.0,0.0,0.0,0.0,0.0,0.0,0.0,0.0,0.0,0.0,0.0,0.0,0.0,0.0,0.0,0.0,0.0,0.0,-6.5979,-6.3876,-6.3772,-6.3772,-6.3772,-6.3703,-6.291,-6.153,-6.1639,-6.1224,-6.0393,-6.0635,-5.9835,-5.8349,-5.8709,-5.7929,-5.6563,-5.6711,-5.6099,-5.5092,-5.5026,-5.4776,-5.4529,-5.4529,-5.4494,-5.4494,-5.4494,-5.4494,-5.4494,-5.4494,-5.4494,-5.4494,-5.4494,-5.4563,-5.4598,-5.4598,-5.4598,-5.4598,-5.4667,-5.4632,-5.4598,-5.4598,-5.4598,-5.4563,-5.4529,-5.4494,-5.4287,-5.3598,-5.277,-5.1981,-5.1356,-5.0533,-5.014,-5.056,-4.9511,-4.8933,-4.9453,-4.8595,-4.8001,-4.8001,-4.8001,-4.8001,-4.8001,-4.8001,-4.8001,-4.8001,-4.7305,-4.6543,-4.5814,-4.5052,-4.4324,-4.3598,-4.2109,-4.1687,-4.2199,-4.0889,-4.054,-5.2597,-5.3952,-5.5094,-5.4785,-5.5814,0.0,0.0,-6.0562,-6.1212,-6.3621,-6.4427,0.0,0.0,0.0,0.0,0.0,0.0,0.0,0.0,0.0,0.0,0.0,0.0,0.0,0.0,0.0,0.0,0.0,0.0,0.0,0.0,0.0,0.0,0.0,0.0,-6.4693,-6.4102,-6.3208,-6.2318,-6.1496,-6.1944,-6.1875,-6.1289,-6.0911,-6.0255,-5.9426,-5.9249,-5.8519,-5.748,-5.7802,-5.7332,-5.6383,-5.6044,-5.5664,-5.5299,-5.5083,-5.493,-5.4776,-5.4557,-5.4494,-5.4494,-5.4494,-5.4494,-5.4494,-5.4494,-5.4494,-5.4494,-5.4494,-5.4494,-5.4494,-5.4494,-5.4494,-5.4494,-5.4494,-5.4494,-5.4494,-5.4494,-5.4494,-5.4494,-5.4494,-5.4494,-5.4287,-5.3529,-5.2735,-5.1946,-5.1218,-5.0493,-5.0056,-5.0214,-4.9509,-4.9073,-4.9234,-4.8492,-4.8001,-4.8001,-4.8001,-4.8001,-4.8001,-4.8001,-4.7802,-4.7338,-4.6609,-4.5847,-4.5119,-4.439,-4.3893,-4.3598,-4.2572,-4.2179,-4.2415,-4.1446,-4.1352,-5.103,-5.2176,-5.3555,-5.3731,0.0,0.0,-6.0421,-6.1682,-6.314,-6.6439,-6.6541,0.0,0.0,0.0,0.0,0.0,0.0,0.0,0.0,0.0,0.0,0.0,0.0,0.0,0.0,0.0,0.0,0.0,0.0,0.0,0.0,0.0,0.0,0.0,0.0,0.0,-6.3299,-6.186,-6.0594,-5.9461,-5.9737,-5.9875,-5.9875,-5.9426,-5.8874,-5.8389,-5.8102,-5.754,-5.6808,-5.685,-5.6414,-5.5709,-5.5553,-5.5478,-5.5354,-5.5113,-5.4961,-5.4869,-5.4589,-5.4494,-5.4494,-5.4494,-5.4494,-5.4494,-5.4494,-5.4494,-5.4494,-5.4494,-5.4356,-5.4149,-5.4149,-5.4322,-5.446,-5.4218,-5.4149,-5.4149,-5.4149,-5.3977,-5.3873,-5.4115,-5.4149,-5.4011,-5.3494,-5.2942,-5.2252,-5.1252,-5.0735,-5.0385,-5.0045,-4.9713,-4.9354,-4.8925,-4.8357,-4.8001,-4.8001,-4.8001,-4.8001,-4.8001,-4.8001,-4.7669,-4.6941,-4.6179,-4.545,-4.4688,-4.3992,-4.3598,-4.3598,-4.2837,-4.2605,-4.2837,-4.2075,-4.2142,-5.0861,-5.1268,-5.2149,0.0,0.0,0.0,-6.1801,0.0,-6.4557,-7.1591,0.0,0.0,0.0,0.0,0.0,0.0,0.0,0.0,0.0,0.0,0.0,0.0,0.0,0.0,0.0,0.0,0.0,0.0,0.0,0.0,0.0,0.0,0.0,0.0,0.0,0.0,-6.1,-5.9526,-5.8497,-5.7874,-5.7116,-5.6771,-5.6805,-5.6934,-5.6997,-5.6997,-5.7384,-5.7122,-5.6348,-5.5699,-5.5016,-5.4384,-5.5191,-5.5383,-5.5199,-5.5018,-5.49,-5.478,-5.4557,-5.4494,-5.4494,-5.4494,-5.4494,-5.4494,-5.4494,-5.4494,-5.4494,-5.4494,-5.3942,-5.3391,-5.3391,-5.3942,-5.4287,-5.3563,-5.3391,-5.3391,-5.3391,-5.277,-5.2429,-5.3253,-5.3391,-5.3391,-5.3391,-5.3391,-5.2873,-5.1356,-5.1316,-5.1139,-5.0149,-4.9978,-4.9627,-4.8711,-4.8228,-4.8001,-4.8001,-4.8001,-4.8001,-4.8001,-4.8001,-4.7669,-4.6908,-4.6179,-4.545,-4.4688,-4.3992,-4.3598,-4.3598,-4.287,-4.287,-4.3565,-4.2837,-4.2903,-5.0556,-5.1114,0.0,0.0,0.0,0.0,0.0,0.0,0.0,0.0,0.0,0.0,0.0,0.0,0.0,0.0,0.0,0.0,0.0,0.0,0.0,0.0,0.0,0.0,0.0,0.0,0.0,0.0,0.0,0.0,0.0,0.0,0.0,0.0,0.0,0.0,-5.9816,-5.8422,-5.7227,-5.6125,-5.5499,-5.5736,-5.6805,-5.6871,-5.6625,-5.62,-5.59,-5.5392,-5.4745,-5.4116,-5.3717,-5.3541,-5.3787,-5.4144,-5.4542,-5.44,-5.469,-5.4948,-5.4152,-5.3856,-5.3752,-5.3111,-5.2877,-5.2877,-5.2877,-5.2877,-5.2877,-5.2877,-5.2705,-5.2459,-5.1942,-5.2356,-5.2808,-5.2632,-5.3011,-5.3253,-5.2701,-5.239,-5.2257,-5.2528,-5.3011,-5.3218,-5.2666,-5.2563,-5.2218,-5.1252,-5.0735,-5.0361,-5.0047,-4.9585,-4.9117,-4.8646,-4.8228,-4.8001,-4.8001,-4.8001,-4.8001,-4.8001,-4.8001,-4.7438,-4.6179,-4.5914,-4.5218,-4.3959,-4.3698,-4.3598,-4.3598,-4.3367,-4.3367,-4.3598,-4.3367,-4.34,-5.0543,0.0,0.0,0.0,0.0,0.0,0.0,0.0,0.0,0.0,0.0,0.0,0.0,0.0,0.0,0.0,0.0,0.0,0.0,0.0,0.0,0.0,0.0,0.0,0.0,0.0,0.0,0.0,0.0,0.0,0.0,0.0,0.0,0.0,0.0,0.0,-5.8483,-5.685,-5.5652,-5.5023,-5.4052,-5.408,-5.4977,-5.5041,-5.4925,-5.463,-5.4386,-5.3906,-5.3258,-5.3232,-5.298,-5.2734,-5.3078,-5.3471,-5.3829,-5.3684,-5.3906,-5.4191,-5.341,-5.3151,-5.3052,-5.2386,-5.2188,-5.2188,-5.2188,-5.2188,-5.2188,-5.2188,-5.1981,-5.1636,-5.1218,-5.1459,-5.174,-5.174,-5.2149,-5.2356,-5.1873,-5.1533,-5.1425,-5.1735,-5.2149,-5.2425,-5.2222,-5.2188,-5.1946,-5.1218,-5.0341,-4.9777,-4.9731,-4.9175,-4.8769,-4.8614,-4.8228,-4.8001,-4.8001,-4.7637,-4.7438,-4.757,-4.7305,-4.6609,-4.5384,-4.5616,-4.5119,-4.3631,-4.3598,-4.3598,-4.3598,-4.3598,-4.3598,-4.3598,-4.3598,-4.3598,-5.05,0.0,0.0,0.0,0.0,0.0,0.0,0.0,0.0,0.0,0.0,0.0,0.0,0.0,0.0,0.0,0.0,0.0,0.0,0.0,0.0,0.0,0.0,0.0,0.0,0.0,0.0,0.0,0.0,0.0,0.0,0.0,0.0,0.0,0.0,0.0,-5.6986,-5.487,-5.3937,0.0,-5.2739,-5.2084,-5.2114,-5.2399,-5.2547,-5.2654,-5.2971,-5.2628,-5.1961,-5.2664,-5.2558,-5.1997,-5.2699,-5.3043,-5.3085,-5.2879,-5.2857,-5.2898,-5.2537,-5.2419,-5.2354,-5.2076,-5.1981,-5.1981,-5.1981,-5.1981,-5.1981,-5.1981,-5.1498,-5.1011,-5.1011,-5.1011,-5.1011,-5.1011,-5.1045,-5.108,-5.1011,-5.0493,-5.0218,-5.0873,-5.1045,-5.1291,-5.1981,-5.2084,-5.1843,-5.1055,-5.0095,-4.9471,-4.9278,-4.8793,-4.8483,-4.855,-4.8196,-4.8001,-4.8001,-4.7075,-4.6612,-4.6874,-4.6212,-4.545,-4.4721,-4.5317,-4.5052,-4.3631,-4.3598,-4.3598,-4.3598,-4.3598,-4.3598,-4.3598,-4.3598,-4.3598,0.0,-5.0369,0.0,0.0,0.0,0.0,0.0,0.0,0.0,0.0,0.0,0.0,0.0,0.0,0.0,0.0,0.0,0.0,0.0,0.0,0.0,0.0,0.0,0.0,0.0,0.0,0.0,0.0,0.0,0.0,0.0,0.0,0.0,0.0,0.0,-5.4296,-5.4465,-5.2961,-5.199,0.0,-5.1434,-5.1356,-5.1356,-5.2156,-5.2294,-5.1996,-5.2194,-5.1821,-5.1154,-5.1294,-5.1294,-5.1154,-5.1329,-5.1751,-5.225,-5.2187,-5.2572,-5.3,-5.2091,-5.1801,-5.1668,-5.0754,-5.0493,-5.0493,-5.0493,-5.0493,-5.0493,-5.0493,-5.0355,-5.0252,-5.0252,-5.0252,-5.0252,-5.0252,-5.07,-5.0942,-5.0355,-5.0114,-5.0045,-5.0218,-5.07,-5.1149,-5.1321,-5.1356,-5.0991,-4.9996,-4.9633,-4.932,-4.8832,-4.8578,-4.8388,-4.8164,-4.8033,-4.8001,-4.8001,-4.7075,-4.6612,-4.6874,-4.6212,-4.545,-4.4721,-4.4854,-4.4522,-4.3598,-4.3598,-4.3598,-4.3598,-4.3598,-4.3598,-4.3598,-4.3598,-4.3598,0.0,0.0,0.0,0.0,0.0,0.0,0.0,0.0,0.0,0.0,0.0,0.0,0.0,0.0,0.0,0.0,0.0,0.0,0.0,0.0,0.0,0.0,0.0,0.0,0.0,0.0,0.0,0.0,0.0,0.0,0.0,0.0,0.0,0.0,-5.2739,-5.2872,-5.2726,-5.1697,-5.1131,-5.0961,-5.0676,-5.0621,-5.0766,-5.1616,-5.1958,-5.1857,-5.1618,-5.1259,-5.0873,-5.0873,-5.0873,-5.0873,-5.0873,-5.1119,-5.147,-5.147,-5.1688,-5.1885,-5.1248,-5.0967,-5.0847,-5.0201,-5.0011,-5.0011,-5.0011,-5.0011,-5.0011,-5.0011,-5.0011,-5.0011,-5.0011,-5.0011,-5.0011,-5.0011,-5.0287,-5.0493,-5.008,-5.0011,-5.0011,-5.0011,-5.0321,-5.0562,-5.0562,-5.0562,-5.0307,-4.9599,-4.935,-4.9111,-4.8612,-4.8389,-4.8163,-4.8001,-4.8001,-4.8001,-4.8001,-4.6876,-4.6213,-4.6344,-4.5351,-4.4589,-4.4191,-4.4158,-4.3992,-4.3598,-4.3234,-4.3234,-4.3598,-4.287,-4.2738,-4.3069,-4.3069,-4.3069,0.0,0.0,0.0,0.0,0.0,0.0,0.0,0.0,0.0,0.0,0.0,0.0,0.0,0.0,0.0,0.0,0.0,0.0,0.0,0.0,0.0,0.0,0.0,0.0,0.0,0.0,0.0,0.0,0.0,0.0,0.0,0.0,-5.2401,-5.1251,-5.1657,-5.1785,-5.1458,-5.0772,-5.0549,-5.0848,-5.0424,-5.0385,-5.0641,-5.1296,-5.1682,-5.1786,-5.1154,-5.0873,-5.0873,-5.0873,-5.0803,-5.0697,-5.067,-5.0697,-5.0697,-5.0643,-5.0597,-5.0585,-5.0425,-5.0285,-5.0178,-5.0034,-5.0011,-5.0011,-5.0011,-5.0011,-5.0011,-5.0011,-5.0011,-5.0011,-5.0011,-5.0011,-5.0011,-5.0011,-5.0011,-5.0011,-5.0011,-5.0011,-5.0011,-5.0011,-5.0011,-5.0011,-5.0011,-5.0011,-4.9894,-4.9441,-4.9202,-4.8861,-4.8452,-4.8196,-4.8001,-4.8001,-4.8001,-4.8001,-4.8001,-4.6643,-4.5781,-4.5781,-4.4423,-4.3598,-4.3598,-4.3598,-4.3598,-4.3598,-4.287,-4.2837,-4.3598,-4.2241,-4.1782,-4.2187,-4.251,-4.2605,0.0,0.0,0.0,0.0,0.0,0.0,0.0,0.0,0.0,0.0,0.0,0.0,0.0,0.0,0.0,0.0,0.0,0.0,0.0,0.0,0.0,0.0,0.0,0.0,0.0,0.0,0.0,0.0,0.0,0.0,0.0,-5.0777,-5.0744,-5.1217,-5.0676,-5.0432,-5.0552,-4.9957,-4.9731,-4.9909,-5.0823,-5.1367,-5.1442,-5.1828,-5.1682,-5.1049,-5.0943,-5.0873,-5.0873,-5.0873,-5.0514,-4.9855,-4.9748,-4.9775,-4.9828,-4.9587,-4.9978,-5.0557,-5.0313,-5.02,-5.0178,-5.0034,-5.0011,-5.0011,-5.0011,-5.0011,-5.0011,-5.0011,-5.0011,-5.0011,-5.0011,-5.0011,-5.0011,-5.0011,-5.0011,-5.0011,-5.0011,-5.0011,-5.0011,-5.0011,-5.0011,-5.0011,-5.0011,-5.0011,-4.9772,-4.9172,-4.9049,-4.8767,-4.8164,-4.8033,-4.8001,-4.8001,-4.8001,-4.8001,-4.8001,-4.6643,-4.5781,-4.5781,-4.4423,-4.3598,-4.3598,-4.3598,-4.3598,-4.3598,-4.287,-4.2837,-4.3598,-4.2738,-4.1865,-4.0983,-4.2686,-4.3102,0.0,0.0,0.0,0.0,0.0,0.0,0.0,0.0,0.0,0.0,0.0,0.0,0.0,0.0,0.0,0.0,0.0,0.0,0.0,0.0,0.0,0.0,0.0,0.0,0.0,0.0,0.0,0.0,0.0,0.0,-5.0574,-5.0676,-5.0676,-5.0574,-5.027,-4.982,-4.9278,-4.9031,-4.8826,-4.87,-4.9664,-5.0244,-5.0439,-5.0976,-5.1332,-5.1505,-5.1084,-5.0627,-5.0241,-5.0697,-5.0171,-4.9082,-4.9451,-4.9346,-4.9056,-4.9299,-4.9602,-4.9923,-5.0118,-5.0149,-5.0063,-5.004,-5.0011,-5.0011,-5.0011,-5.0011,-5.0011,-5.0011,-5.0011,-5.0011,-5.0011,-5.0011,-5.0011,-5.0011,-5.0011,-5.0011,-5.0011,-5.0011,-5.0011,-5.0011,-5.0011,-5.0011,-5.0011,-5.0011,-4.9742,-4.9111,-4.9018,-4.8769,-4.8099,-4.7636,-4.7371,-4.7371,-4.7007,-4.6775,-4.6775,-4.5781,-4.5185,-4.5185,-4.4191,-4.3598,-4.3598,-4.3598,-4.3598,-4.3598,-4.287,-4.2837,-4.3598,-4.244,-4.1621,-4.1115,-4.2381,-4.2572,0.0,0.0,0.0,0.0,0.0,0.0,0.0,0.0,0.0,0.0,0.0,0.0,0.0,0.0,0.0,0.0,0.0,0.0,0.0,0.0,0.0,0.0,0.0,0.0,0.0,0.0,0.0,0.0,0.0,0.0,-4.991,-5.0247,-5.0281,-4.991,-4.9571,-4.9046,-4.8319,-4.8236,-4.8089,-4.7892,-4.8709,-4.9221,-4.9536,-5.0325,-5.1045,-5.1681,-5.1119,-5.0557,-5.003,-5.0627,-5.0039,-4.8794,-4.9389,-4.9249,-4.8767,-4.8939,-4.9137,-4.9326,-4.9507,-4.9475,-4.9424,-4.9424,-4.9562,-4.97,-4.97,-4.9838,-5.0011,-5.0011,-5.0011,-5.0011,-5.0011,-5.0011,-5.0011,-5.0011,-5.0011,-5.0011,-5.0011,-5.0011,-5.0011,-5.0011,-5.0011,-5.0011,-5.0011,-4.9952,-4.9683,-4.9111,-4.8956,-4.8606,-4.793,-4.7469,-4.7072,-4.6769,-4.6341,-4.598,-4.5814,-4.5119,-4.4688,-4.4688,-4.4026,-4.3598,-4.3598,-4.3598,-4.3598,-4.3598,-4.3069,-4.3035,-4.3598,-4.2307,-4.1513,-4.1253,-4.2307,-4.2274,0.0,0.0,0.0,0.0,0.0,0.0,0.0,0.0,0.0,0.0,0.0,0.0,0.0,0.0,0.0,0.0,0.0,0.0,0.0,0.0,0.0,0.0,0.0,0.0,0.0,0.0,0.0,0.0,0.0,0.0,-4.9326,-4.8725,-4.8659,-4.9293,-4.8119,-4.7662,-4.8112,-4.7752,-4.7685,-4.7892,-4.8653,-4.9172,-4.9536,-5.0468,-5.0908,-5.0943,-5.0908,-5.0873,-5.0838,-5.0873,-5.0336,-4.9431,-4.9366,-4.9358,-4.9307,-4.8204,-4.8411,-4.9152,-4.819,-4.7838,-4.781,-4.781,-4.8293,-4.8844,-4.8844,-4.9424,-5.0011,-5.0011,-5.0011,-5.0011,-5.0011,-5.0011,-5.0011,-5.0011,-5.0011,-5.0011,-5.0011,-5.0011,-5.0011,-5.0011,-5.0011,-5.0011,-5.0011,-4.9742,-4.9381,-4.9046,-4.8736,-4.8247,-4.7417,-4.7697,-4.7533,-4.6447,-4.6633,-4.6543,-4.5847,-4.5119,-4.4688,-4.4688,-4.4026,-4.3598,-4.3598,-4.3598,-4.3598,-4.3598,-4.3565,-4.3565,-4.3598,-4.2804,-4.1853,-4.0781,-4.2646,-4.2771,0.0,0.0,0.0,0.0,0.0,0.0,0.0,0.0,0.0,0.0,0.0,0.0,0.0,0.0,0.0,0.0,0.0,0.0,0.0,0.0,0.0,0.0,0.0,0.0,0.0,0.0,0.0,0.0,0.0,0.0,-4.7441,-4.7605,-4.7638,-4.7571,-4.7074,-4.6755,-4.6472,-4.6268,-4.6305,-4.6569,-4.7317,-4.8163,-4.8934,-4.9232,-4.9925,-5.0873,-5.0346,-5.0127,-5.0171,-5.0546,-4.994,-4.8775,-4.9129,-4.8998,-4.8615,-4.855,-4.8481,-4.8397,-4.8411,-4.8086,-4.7672,-4.7672,-4.7879,-4.8086,-4.8086,-4.8293,-4.8631,-4.9114,-4.9252,-4.9355,-4.9873,-5.0011,-5.0011,-5.0011,-5.0011,-5.0011,-5.0011,-5.0011,-5.0011,-5.0011,-5.0011,-5.0011,-5.0011,-4.9447,-4.8871,-4.8365,-4.7777,-4.7298,-4.7063,-4.6772,-4.6441,-4.6034,-4.5709,-4.5185,-4.4456,-4.4158,-4.3992,-4.3992,-4.3731,-4.3598,-4.3598,-4.3598,-4.3598,-4.3598,-4.3598,-4.3598,-4.3598,-4.3333,-4.2741,-4.1886,-4.3069,-4.3069,-4.1144,0.0,0.0,0.0,0.0,0.0,0.0,0.0,0.0,0.0,0.0,0.0,0.0,0.0,0.0,0.0,0.0,0.0,0.0,0.0,0.0,0.0,0.0,0.0,0.0,0.0,0.0,0.0,0.0,0.0,-4.5602,-4.6057,-4.6224,-4.5924,-4.6144,-4.6036,-4.5546,-4.5451,-4.5528,-4.5812,-4.6604,-4.7482,-4.8336,-4.8451,-4.8986,-4.9898,-5.0048,-5.0084,-5.0136,-5.0457,-4.9963,-4.9044,-4.9458,-4.9271,-4.8826,-4.8903,-4.8488,-4.7927,-4.8003,-4.7534,-4.6914,-4.6914,-4.7086,-4.7327,-4.7327,-4.75,-4.7775,-4.8293,-4.8603,-4.8913,-4.9459,-4.9804,-5.0011,-5.0011,-5.0011,-4.9942,-4.9666,-4.9804,-5.0011,-5.0011,-5.0011,-5.0011,-5.0011,-4.9269,-4.8489,-4.8107,-4.7319,-4.6776,-4.682,-4.6498,-4.6103,-4.5637,-4.5479,-4.4953,-4.3698,-4.386,-4.386,-4.3598,-4.3598,-4.3598,-4.3598,-4.3598,-4.3598,-4.3598,-4.3598,-4.3598,-4.3598,-4.3598,-4.3201,-4.2506,-4.3267,-4.3333,0.0,0.0,0.0,0.0,0.0,0.0,0.0,0.0,0.0,0.0,0.0,0.0,0.0,0.0,0.0,0.0,0.0,0.0,0.0,0.0,0.0,0.0,0.0,0.0,0.0,0.0,0.0,0.0,0.0,-4.446,-4.3988,-4.409,-4.4334,-4.4596,-4.5219,-4.5512,-4.5371,-4.5397,-4.5528,-4.5778,-4.6569,-4.7203,-4.7719,-4.8195,-4.8188,-4.7901,-4.9916,-5.0823,-5.0838,-5.0667,-5.0537,-5.0369,-5.0228,-5.0206,-5.0074,-4.9171,-4.8439,-4.7815,-4.6961,-4.6121,-4.5466,-4.5432,-4.5949,-4.6596,-4.6596,-4.7079,-4.7638,-4.7638,-4.8189,-4.8775,-4.8775,-4.9424,-5.0011,-4.9976,-4.9976,-4.9804,-4.8982,-4.943,-4.9976,-4.9976,-4.9976,-4.9976,-5.0011,-4.9027,-4.8241,-4.8275,-4.7335,-4.6659,-4.6659,-4.6996,-4.6712,-4.5373,-4.62,-4.598,-4.3797,-4.4291,-4.439,-4.3631,-4.3598,-4.3598,-4.3598,-4.3598,-4.3598,-4.3598,-4.3598,-4.3598,-4.3598,-4.3598,-4.3234,-4.2539,-4.3267,-4.3598,-3.9317,0.0,0.0,0.0,0.0,0.0,0.0,0.0,0.0,0.0,0.0,0.0,0.0,0.0,0.0,0.0,0.0,0.0,0.0,0.0,0.0,0.0,0.0,0.0,0.0,0.0,0.0,0.0,-4.2714,-4.2611,-4.2642,-4.3355,-4.3977,-4.4443,-4.4774,-4.4912,-4.4872,-4.5203,-4.5226,-4.4877,-4.5161,-4.5451,-4.5684,-4.5725,-4.6393,-4.7512,-4.7493,-4.8441,-5.0066,-5.0457,-5.0537,-5.0369,-5.0228,-5.0149,-5.0034,-4.9769,-4.9211,-4.8515,-4.8286,-4.7672,-4.6983,-4.6431,-4.6424,-4.6493,-4.5914,-4.588,-4.6155,-4.6769,-4.7431,-4.812,-4.8637,-4.9424,-4.9873,-4.9258,-4.9597,-4.9942,-4.9735,-4.939,-4.912,-4.912,-4.912,-4.9292,-4.9907,-4.8374,-4.7196,-4.7478,-4.6141,-4.5216,-4.5555,-4.552,-4.5471,-4.5607,-4.591,-4.5649,-4.4489,-4.4589,-4.439,-4.3631,-4.3598,-4.3598,-4.3598,-4.3598,-4.3598,-4.3598,-4.3598,-4.3598,-4.3598,-4.3598,-4.3499,-4.33,-4.3499,-4.3598,-3.9298,-3.9523,0.0,0.0,0.0,0.0,0.0,-4.3285,0.0,0.0,0.0,0.0,0.0,0.0,0.0,0.0,0.0,0.0,0.0,0.0,0.0,0.0,0.0,0.0,0.0,0.0,0.0,0.0,-4.1303,-4.1279,-4.1375,-4.2302,-4.2929,-4.3241,-4.3884,-4.4347,-4.4536,-4.5119,-4.5269,-4.5,-4.4653,-4.4501,-4.4523,-4.5056,-4.5561,-4.5965,-4.6495,-4.7302,-4.8338,-4.9328,-4.9823,-4.9917,-4.9721,-4.9579,-4.9562,-4.9873,-4.9465,-4.881,-4.881,-4.812,-4.7182,-4.6769,-4.6362,-4.6017,-4.5535,-4.5397,-4.55,-4.5949,-4.6638,-4.7424,-4.8155,-4.87,-4.8941,-4.843,-4.8672,-4.8976,-4.8665,-4.843,-4.843,-4.8741,-4.8534,-4.8465,-4.8976,-4.77,-4.6625,-4.6725,-4.5574,-4.4874,-4.5307,-4.5198,-4.5217,-4.5532,-4.5924,-4.5627,-4.4354,-4.4643,-4.4541,-4.3661,-4.3598,-4.3598,-4.3598,-4.3598,-4.3598,-4.3598,-4.3598,-4.3598,-4.3598,-4.3598,-4.3598,-4.3598,-4.3598,-4.3598,-3.9794,-3.9818,-4.0558,0.0,0.0,0.0,-4.1766,-4.2144,-4.2153,0.0,0.0,0.0,0.0,0.0,0.0,0.0,0.0,0.0,0.0,0.0,0.0,0.0,0.0,0.0,0.0,0.0,-4.0792,-4.0416,-4.0355,-4.0352,-4.0289,-4.1174,-4.169,-4.1716,-4.2929,-4.3818,-4.4311,-4.4941,-4.5372,-4.5537,-4.463,-4.4048,-4.3785,-4.5086,-4.5029,-4.4047,-4.6319,-4.6926,-4.6425,-4.7681,-4.8592,-4.9117,-4.884,-4.8734,-4.8879,-4.9597,-4.9465,-4.8913,-4.8913,-4.8051,-4.6975,-4.6872,-4.6362,-4.5742,-4.5569,-4.5535,-4.5535,-4.5535,-4.6052,-4.6769,-4.7424,-4.7638,-4.7672,-4.7596,-4.7638,-4.7527,-4.6872,-4.7182,-4.7775,-4.843,-4.8017,-4.7603,-4.77,-4.6983,-4.6411,-4.6199,-4.5528,-4.5118,-4.549,-4.55,-4.5419,-4.5261,-4.6039,-4.5845,-4.3949,-4.4656,-4.4753,-4.3661,-4.3598,-4.3598,-4.3598,-4.3598,-4.3598,-4.3598,-4.3598,-4.3598,-4.3598,-4.3598,-4.3598,-4.3598,-4.3598,-4.3598,0.0,0.0,0.0,0.0,0.0,0.0,-4.0951,-4.16,-4.2153,0.0,0.0,0.0,0.0,0.0,0.0,0.0,0.0,0.0,0.0,0.0,0.0,0.0,0.0,0.0,0.0,0.0,-3.9776,-3.9708,-3.9449,-3.9628,-4.0341,-4.0994,-4.1733,-4.2471,-4.3006,-4.3614,-4.4311,-4.4449,-4.4518,-4.4544,-4.4325,-4.3687,-4.2706,-4.2566,-4.3022,-4.4003,-4.5727,-4.6724,-4.7136,-4.6584,-4.7117,-4.8344,-4.8255,-4.8481,-4.881,-4.8982,-4.9327,-4.9769,-4.9769,-4.9597,-4.9252,-4.8568,-4.8258,-4.7913,-4.6707,-4.6389,-4.6389,-4.6389,-4.6493,-4.6631,-4.6803,-4.7286,-4.7534,-4.6975,-4.7286,-4.7638,-4.7527,-4.7148,-4.6872,-4.701,-4.6906,-4.701,-4.7596,-4.6535,-4.5845,-4.6411,-4.5637,-4.5029,-4.5084,-4.4862,-4.493,-4.5452,-4.5713,-4.5563,-4.4946,-4.5076,-4.4753,-4.3661,-4.3598,-4.3598,-4.3598,-4.3598,-4.3598,-4.3598,-4.3598,-4.3598,-4.3598,-4.3598,-4.3598,-4.3598,-4.3598,-4.3598,0.0,0.0,0.0,-4.0081,0.0,0.0,0.0,-4.056,-4.0562,0.0,0.0,0.0,0.0,0.0,0.0,0.0,0.0,0.0,0.0,0.0,0.0,0.0,0.0,0.0,0.0,0.0,-3.9601,-3.9031,-3.902,-3.922,-3.9723,-4.0385,-4.0976,-4.1486,-4.224,-4.2792,-4.3172,-4.3775,-4.4111,-4.4111,-4.3752,-4.2968,-4.1916,-4.2498,-4.315,-4.3957,-4.5152,-4.6101,-4.674,-4.6155,-4.6342,-4.6995,-4.7245,-4.7499,-4.7775,-4.8534,-4.9051,-4.9459,-4.9873,-4.9735,-4.9327,-4.8913,-4.8534,-4.8017,-4.6941,-4.632,-4.5983,-4.5983,-4.5983,-4.5983,-4.5983,-4.6259,-4.6466,-4.6086,-4.6259,-4.6535,-4.6535,-4.6259,-4.5983,-4.5983,-4.5983,-4.6121,-4.65,-4.5914,-4.5482,-4.5753,-4.5343,-4.5022,-4.5022,-4.4852,-4.4878,-4.5286,-4.532,-4.5122,-4.4696,-4.4666,-4.4352,-4.3661,-4.3598,-4.3598,-4.3598,-4.3598,-4.3598,-4.3598,-4.3598,-4.3598,-4.3598,-4.3598,-4.3598,-4.3598,-4.3598,-4.3598,0.0,0.0,0.0,0.0,0.0,-4.0518,0.0,0.0,0.0,0.0,0.0,0.0,0.0,0.0,0.0,0.0,0.0,0.0,0.0,0.0,0.0,0.0,0.0,0.0,0.0,0.0,-3.936,-3.8354,-3.862,-3.8901,-3.9043,-3.9803,-4.0266,-4.0421,-4.1312,-4.1861,-4.1999,-4.3005,-4.3667,-4.39,-4.3162,-4.2423,-4.1719,-4.2905,-4.3559,-4.3746,-4.4635,-4.5372,-4.6003,-4.597,-4.5914,-4.5822,-4.6246,-4.6493,-4.6769,-4.7913,-4.8568,-4.8879,-4.9562,-4.9459,-4.9016,-4.9016,-4.843,-4.7569,-4.701,-4.6155,-4.5397,-4.5397,-4.5397,-4.5397,-4.5397,-4.5397,-4.5397,-4.5397,-4.5397,-4.5397,-4.5397,-4.5397,-4.5397,-4.5397,-4.5397,-4.5397,-4.5397,-4.5397,-4.5318,-4.513,-4.5076,-4.5076,-4.5076,-4.5076,-4.5076,-4.5076,-4.5049,-4.4803,-4.4241,-4.4126,-4.3952,-4.3628,-4.3598,-4.3598,-4.3598,-4.3598,-4.3598,-4.3598,-4.3598,-4.3598,-4.3598,-4.3598,-4.3598,-4.3598,-4.3598,-4.3598,0.0,0.0,0.0,0.0,-4.1849,0.0,0.0,0.0,0.0,0.0,0.0,0.0,0.0,0.0,0.0,0.0,0.0,0.0,0.0,0.0,0.0,0.0,0.0,0.0,0.0,0.0,0.0,-3.7677,-3.7956,-3.8363,-3.8738,-3.9744,-4.0464,-4.0799,-4.0974,-4.1343,-4.1974,-4.2137,-4.2787,-4.3895,-4.3024,-4.2669,-4.2696,-4.2102,-4.2265,-4.2986,-4.4225,-4.4927,-4.5267,-4.566,-4.5838,-4.5787,-4.5736,-4.6055,-4.6631,-4.6803,-4.7672,-4.881,-4.8879,-4.9327,-4.9873,-4.9873,-4.8907,-4.7672,-4.7603,-4.6535,-4.5397,-4.5397,-4.5397,-4.5397,-4.5397,-4.5397,-4.5397,-4.5397,-4.5397,-4.5397,-4.5397,-4.5397,-4.5397,-4.5397,-4.5397,-4.5397,-4.5397,-4.5397,-4.5397,-4.5371,-4.5344,-4.5344,-4.5344,-4.5344,-4.5344,-4.5344,-4.5157,-4.4852,-4.4491,-4.4241,-4.3952,-4.3628,-4.3598,-4.3598,-4.3598,-4.3598,-4.3598,-4.3598,-4.3598,-4.3598,-4.3598,-4.3598,-4.3598,-4.3598,-4.3598,-4.3598,0.0,0.0,0.0,0.0,0.0,0.0,-4.0132,0.0,-3.8728,0.0,0.0,0.0,0.0,0.0,0.0,0.0,0.0,0.0,0.0,0.0,0.0,0.0,0.0,0.0,0.0,0.0,0.0,0.0,0.0,-3.8137,-3.8941,-3.9636,-4.0303,-4.0871,-4.0894,-4.1067,-4.1378,-4.1378,-4.1609,-4.2154,-4.1903,-4.1812,-4.1893,-4.1717,-4.1775,-4.217,-4.315,-4.3769,-4.4073,-4.4833,-4.5152,-4.5161,-4.5407,-4.5657,-4.5949,-4.6424,-4.701,-4.7638,-4.8499,-4.9016,-4.939,-4.9873,-4.8976,-4.7672,-4.7672,-4.6603,-4.5397,-4.5397,-4.5397,-4.5397,-4.5397,-4.5397,-4.5397,-4.5397,-4.5397,-4.5397,-4.5397,-4.5397,-4.5397,-4.5397,-4.5397,-4.5397,-4.5397,-4.5397,-4.5397,-4.5397,-4.5397,-4.5397,-4.5397,-4.5397,-4.5344,-4.5184,-4.4879,-4.4603,-4.4293,-4.401,-4.3747,-4.3598,-4.3598,-4.3598,-4.3598,-4.3598,-4.3598,-4.3598,-4.3598,-4.3598,-4.3598,-4.3598,-4.3598,-4.3598,-4.3598,-4.3598,-4.079,0.0,0.0,0.0,0.0,0.0,0.0,0.0,0.0,0.0,0.0,0.0,0.0,0.0,0.0,0.0,0.0,0.0,0.0,0.0,0.0,0.0,0.0,0.0,0.0,0.0,0.0,0.0,-3.7401,0.0,-3.8963,-3.9505,-4.0114,-4.0871,-4.0894,-4.0894,-4.0894,-4.0894,-4.0894,-4.0884,-4.1094,-4.1232,-4.1255,-4.1493,-4.1608,-4.1635,-4.2449,-4.287,-4.3127,-4.4216,-4.4665,-4.4684,-4.4984,-4.5225,-4.5466,-4.6052,-4.6397,-4.6769,-4.781,-4.8465,-4.881,-4.901,-4.8459,-4.7603,-4.7189,-4.6293,-4.5397,-4.5397,-4.5397,-4.5397,-4.5397,-4.5397,-4.5397,-4.5397,-4.5397,-4.5397,-4.5397,-4.5397,-4.5397,-4.5397,-4.5397,-4.5397,-4.5397,-4.5397,-4.5397,-4.5397,-4.5397,-4.5397,-4.5397,-4.5397,-4.5291,-4.5049,-4.4714,-4.4378,-4.4126,-4.3805,-4.3598,-4.3598,-4.3598,-4.3598,-4.3598,-4.3598,-4.3598,-4.3598,-4.3598,-4.3598,-4.3598,-4.3598,-4.3598,-4.3598,-4.3598,-4.3598,0.0,0.0,0.0,-4.1347,0.0,0.0,0.0,0.0,-3.9414,0.0,0.0,0.0,0.0,0.0,-3.8347,-3.8412,0.0,0.0,0.0,0.0,0.0,0.0,0.0,0.0,0.0,0.0,0.0,0.0,-3.7515,0.0,-3.8597,-3.9324,-4.0054,-4.086,-4.0894,-4.0894,-4.0894,-4.0894,-4.0907,-4.0908,-4.1105,-4.1255,-4.1403,-4.1538,-4.1604,-4.1617,-4.2447,-4.2729,-4.2719,-4.4112,-4.4615,-4.4514,-4.4397,-4.4768,-4.5397,-4.5432,-4.5914,-4.6631,-4.6665,-4.7603,-4.8568,-4.7155,-4.7182,-4.7396,-4.5914,-4.5432,-4.5397,-4.5397,-4.5397,-4.5397,-4.5397,-4.5397,-4.5397,-4.5397,-4.5397,-4.5397,-4.5397,-4.5397,-4.5397,-4.5397,-4.5397,-4.5397,-4.5397,-4.5397,-4.5397,-4.5397,-4.5397,-4.5397,-4.5397,-4.5397,-4.5291,-4.5049,-4.4714,-4.4378,-4.4126,-4.3805,-4.3598,-4.3598,-4.3598,-4.3598,-4.3598,-4.3598,-4.3598,-4.3598,-4.3598,-4.3598,-4.3598,-4.3598,-4.3598,-4.3598,-4.3598,-4.3598,0.0,0.0,-4.1302,-4.0054,0.0,0.0,0.0,0.0,0.0,0.0,0.0,0.0,0.0,0.0,-3.8408,-3.8408,-3.8205,-3.7812,0.0,0.0,0.0,0.0,0.0,0.0,0.0,0.0,0.0,-3.7408,-3.7267,-3.7685,0.0,-3.9408,-4.0043,-4.086,-4.0894,-4.0894,-4.0894,-4.0894,-4.0894,-4.0907,-4.1117,-4.1232,-4.1277,-4.1515,-4.1604,-4.1604,-4.1796,-4.1868,-4.1857,-4.2693,-4.3301,-4.3737,-4.4155,-4.4734,-4.5328,-4.4837,-4.5147,-4.5811,-4.5811,-4.6466,-4.7286,-4.6769,-4.6079,-4.5423,-4.5397,-4.4734,-4.394,-4.394,-4.394,-4.4044,-4.4527,-4.4665,-4.4803,-4.5259,-4.5397,-4.5397,-4.5397,-4.5397,-4.5397,-4.5397,-4.5397,-4.5397,-4.5397,-4.5397,-4.5397,-4.5397,-4.5397,-4.5397,-4.5397,-4.5397,-4.5211,-4.4714,-4.4575,-4.4321,-4.3805,-4.3658,-4.3598,-4.3598,-4.3598,-4.3598,-4.3598,-4.3598,-4.3598,-4.3598,-4.3598,-4.3598,-4.3598,-4.3598,-4.3598,-4.3598,-4.3598,-4.3598,-3.9978,-4.0349,0.0,-3.9435,-3.9505,0.0,-3.8892,0.0,0.0,0.0,0.0,0.0,0.0,0.0,-3.8408,-3.8408,-3.7894,-3.7221,0.0,-3.5363,0.0,0.0,0.0,0.0,0.0,0.0,-3.6095,-3.6763,-3.6642,-3.7102,0.0,0.0,-3.9664,-4.0446,-4.0756,-4.0894,-4.0894,-4.0894,-4.0918,-4.0976,-4.1117,-4.1232,-4.1277,-4.1515,-4.1604,-4.1604,-4.1471,-4.138,-4.137,-4.1962,-4.2431,-4.2891,-4.3301,-4.394,-4.463,-4.4665,-4.4837,-4.501,-4.501,-4.5354,-4.5699,-4.5147,-4.4665,-4.4311,-4.4216,-4.3733,-4.3241,-4.3517,-4.3414,-4.3379,-4.4104,-4.4104,-4.4104,-4.4837,-4.501,-4.5079,-4.5328,-4.5397,-4.5397,-4.5397,-4.5397,-4.5397,-4.5397,-4.5397,-4.5397,-4.5397,-4.5397,-4.5397,-4.5397,-4.5397,-4.5184,-4.4541,-4.4519,-4.4265,-4.3658,-4.3598,-4.3598,-4.3598,-4.3598,-4.3598,-4.3598,-4.3598,-4.3698,-4.3992,-4.3731,-4.3731,-4.3992,-4.3731,-4.3598,-4.3598,-4.3598,-4.3598]},{"header":{"parameterUnit":"m.s-1","parameterCategory":1,"la1":30.6,"la2":29.2853,"lo1":-89.7004,"lo2":-87.6739,"dy":0.0162,"dx":0.0183,"nx":112,"ny":82,"refTime":"2023-06-12T06:00:00:Z","depth":0,"parameterNumber":3,"parameterNumberName":"V-component_of_WINDS"},"data":[0.0,0.0,0.0,0.0,0.0,0.0,0.0,0.0,0.0,0.0,0.0,0.0,0.0,0.0,0.0,0.0,0.0,0.0,0.0,0.0,0.0,0.0,0.0,0.0,0.0,0.0,0.0,0.0,0.0,0.0,0.0,0.0,0.0,0.0,0.0,0.0,0.0,0.0,0.0,0.0,0.0,0.0,0.0,0.0,0.0,0.0,0.0,0.0,0.0,0.0,0.0,0.0,0.0,0.0,0.0,0.0,0.0,0.0,0.0,0.0,0.0,0.0,0.0,0.0,0.0,0.0,0.0,0.0,0.0,0.0,0.0,0.0,0.0,0.0,0.0,0.0,0.0,0.0,0.0,0.0,0.0,0.0,0.0,0.0,0.0,0.0,0.0,0.0,0.0,0.0,-3.0797,-3.1711,-3.513,-3.7521,-3.7979,-3.853,-3.7165,-3.3239,0.0,0.0,0.0,0.0,0.0,0.0,0.0,0.0,0.0,0.0,0.0,0.0,0.0,0.0,0.0,0.0,0.0,0.0,0.0,0.0,0.0,0.0,0.0,0.0,0.0,0.0,0.0,0.0,0.0,0.0,0.0,0.0,0.0,0.0,0.0,0.0,0.0,0.0,0.0,0.0,0.0,0.0,0.0,0.0,0.0,0.0,0.0,0.0,0.0,0.0,0.0,0.0,0.0,0.0,0.0,0.0,0.0,0.0,0.0,0.0,0.0,0.0,0.0,0.0,0.0,0.0,0.0,0.0,0.0,0.0,0.0,0.0,0.0,0.0,0.0,0.0,0.0,0.0,0.0,0.0,0.0,0.0,0.0,0.0,0.0,0.0,0.0,0.0,0.0,0.0,0.0,0.0,0.0,0.0,0.0,0.0,0.0,0.0,0.0,0.0,0.0,0.0,0.0,0.0,-3.0939,-3.4654,-3.6136,-3.7228,-3.7943,-3.7521,-3.5977,-3.32,0.0,0.0,0.0,0.0,0.0,0.0,0.0,0.0,0.0,0.0,0.0,0.0,0.0,0.0,0.0,0.0,0.0,0.0,0.0,0.0,0.0,0.0,0.0,0.0,0.0,0.0,0.0,0.0,0.0,0.0,0.0,0.0,0.0,0.0,0.0,0.0,0.0,0.0,0.0,0.0,0.0,0.0,0.0,0.0,0.0,0.0,0.0,0.0,0.0,0.0,0.0,0.0,0.0,0.0,0.0,0.0,0.0,0.0,0.0,0.0,0.0,0.0,0.0,0.0,0.0,0.0,0.0,0.0,0.0,0.0,0.0,0.0,0.0,0.0,0.0,0.0,0.0,0.0,0.0,0.0,0.0,0.0,0.0,0.0,0.0,0.0,0.0,0.0,0.0,0.0,0.0,0.0,0.0,0.0,0.0,0.0,0.0,0.0,0.0,0.0,0.0,0.0,0.0,-3.0287,-3.1959,-3.5432,-3.6415,-3.7081,-3.7649,-3.7535,-3.6296,-3.3489,-3.2358,0.0,0.0,0.0,0.0,0.0,0.0,0.0,0.0,0.0,0.0,0.0,0.0,0.0,0.0,0.0,0.0,0.0,0.0,0.0,0.0,0.0,0.0,0.0,0.0,0.0,0.0,0.0,0.0,0.0,0.0,0.0,0.0,0.0,0.0,0.0,0.0,0.0,0.0,0.0,0.0,0.0,0.0,0.0,0.0,0.0,0.0,0.0,0.0,0.0,0.0,0.0,0.0,0.0,0.0,0.0,0.0,0.0,0.0,0.0,0.0,0.0,0.0,0.0,0.0,0.0,0.0,0.0,0.0,0.0,0.0,0.0,0.0,0.0,0.0,0.0,0.0,0.0,0.0,0.0,0.0,0.0,0.0,0.0,0.0,0.0,0.0,0.0,0.0,0.0,0.0,0.0,0.0,0.0,0.0,0.0,0.0,0.0,0.0,0.0,0.0,0.0,0.0,-3.2217,-3.314,-3.5607,-3.6227,-3.6751,-3.7246,-3.6998,-3.5925,-3.363,-3.1603,0.0,0.0,0.0,0.0,0.0,0.0,0.0,0.0,0.0,0.0,0.0,0.0,0.0,0.0,0.0,0.0,0.0,0.0,0.0,0.0,0.0,0.0,0.0,0.0,0.0,0.0,0.0,0.0,0.0,0.0,0.0,0.0,0.0,0.0,0.0,0.0,0.0,0.0,0.0,0.0,0.0,0.0,0.0,0.0,0.0,0.0,0.0,0.0,0.0,0.0,0.0,0.0,0.0,0.0,0.0,0.0,0.0,0.0,0.0,0.0,0.0,0.0,0.0,0.0,0.0,0.0,0.0,0.0,0.0,0.0,0.0,0.0,0.0,0.0,0.0,0.0,0.0,0.0,0.0,0.0,0.0,0.0,0.0,0.0,0.0,0.0,0.0,0.0,0.0,0.0,0.0,0.0,0.0,0.0,0.0,0.0,0.0,0.0,0.0,0.0,0.0,0.0,-3.2515,-3.4323,-3.5704,-3.5792,-3.6017,-3.6806,-3.4788,-3.342,-3.3046,-2.9639,0.0,0.0,0.0,0.0,0.0,0.0,0.0,0.0,0.0,0.0,0.0,0.0,0.0,0.0,0.0,0.0,0.0,0.0,0.0,0.0,0.0,0.0,0.0,0.0,0.0,0.0,0.0,0.0,0.0,0.0,0.0,0.0,0.0,0.0,0.0,0.0,0.0,0.0,0.0,0.0,0.0,0.0,0.0,0.0,0.0,0.0,0.0,0.0,0.0,0.0,0.0,0.0,0.0,0.0,0.0,0.0,0.0,0.0,0.0,0.0,0.0,0.0,0.0,0.0,0.0,0.0,0.0,0.0,0.0,0.0,0.0,0.0,0.0,0.0,0.0,0.0,0.0,0.0,0.0,0.0,0.0,0.0,0.0,0.0,0.0,0.0,0.0,0.0,0.0,0.0,0.0,0.0,0.0,0.0,0.0,0.0,0.0,0.0,0.0,0.0,0.0,0.0,-3.247,-3.4187,0.0,-3.5762,-3.612,-3.6699,-3.5835,-3.4623,-3.2959,0.0,0.0,0.0,0.0,0.0,0.0,0.0,0.0,0.0,0.0,0.0,0.0,0.0,0.0,0.0,0.0,0.0,0.0,0.0,0.0,0.0,0.0,0.0,0.0,0.0,0.0,0.0,0.0,0.0,0.0,0.0,0.0,0.0,0.0,0.0,0.0,0.0,0.0,0.0,0.0,0.0,0.0,0.0,0.0,0.0,0.0,0.0,0.0,0.0,0.0,0.0,0.0,0.0,0.0,0.0,0.0,0.0,0.0,0.0,0.0,0.0,0.0,0.0,0.0,0.0,0.0,0.0,0.0,0.0,0.0,0.0,0.0,0.0,0.0,0.0,0.0,0.0,0.0,0.0,0.0,0.0,0.0,0.0,0.0,0.0,0.0,0.0,0.0,0.0,0.0,0.0,0.0,0.0,0.0,0.0,0.0,0.0,0.0,0.0,0.0,0.0,0.0,-3.0636,-3.2502,-3.413,0.0,-3.5838,-3.6188,-3.6627,-3.5636,-3.4255,-3.2475,0.0,0.0,0.0,0.0,0.0,0.0,0.0,0.0,0.0,0.0,0.0,0.0,0.0,0.0,0.0,0.0,0.0,0.0,0.0,0.0,0.0,0.0,0.0,0.0,0.0,0.0,0.0,0.0,0.0,0.0,0.0,0.0,0.0,0.0,0.0,0.0,0.0,0.0,0.0,0.0,0.0,0.0,0.0,0.0,0.0,0.0,0.0,0.0,0.0,0.0,0.0,0.0,0.0,0.0,0.0,0.0,0.0,0.0,0.0,0.0,0.0,0.0,0.0,0.0,0.0,0.0,0.0,0.0,0.0,0.0,0.0,0.0,0.0,0.0,0.0,0.0,0.0,0.0,0.0,0.0,0.0,0.0,0.0,0.0,0.0,0.0,0.0,0.0,0.0,0.0,0.0,0.0,0.0,0.0,0.0,0.0,0.0,0.0,0.0,0.0,0.0,0.0,-3.0996,-3.2705,-3.4401,-3.6214,-3.6127,-3.6084,-3.6424,-3.3457,-3.1545,0.0,0.0,0.0,0.0,0.0,0.0,0.0,0.0,0.0,0.0,0.0,0.0,0.0,0.0,0.0,0.0,0.0,0.0,0.0,0.0,0.0,0.0,0.0,0.0,0.0,0.0,0.0,0.0,0.0,0.0,0.0,0.0,0.0,0.0,0.0,0.0,0.0,0.0,0.0,0.0,0.0,0.0,0.0,0.0,0.0,0.0,0.0,0.0,0.0,0.0,0.0,0.0,0.0,0.0,0.0,0.0,0.0,0.0,0.0,0.0,0.0,0.0,0.0,0.0,0.0,0.0,0.0,0.0,0.0,0.0,0.0,0.0,0.0,0.0,0.0,0.0,0.0,0.0,0.0,0.0,0.0,0.0,0.0,0.0,0.0,0.0,0.0,0.0,0.0,0.0,0.0,0.0,0.0,0.0,0.0,0.0,0.0,0.0,0.0,0.0,0.0,0.0,0.0,-3.0636,-3.2699,-3.435,-3.5308,-3.5611,-3.5778,-3.5918,-3.4147,-3.2554,-3.1411,0.0,0.0,0.0,0.0,0.0,0.0,0.0,0.0,0.0,0.0,0.0,0.0,0.0,0.0,0.0,0.0,0.0,0.0,0.0,0.0,0.0,0.0,0.0,0.0,0.0,0.0,0.0,0.0,0.0,0.0,0.0,0.0,0.0,0.0,0.0,0.0,0.0,0.0,0.0,0.0,0.0,0.0,0.0,0.0,0.0,0.0,0.0,0.0,0.0,0.0,0.0,0.0,0.0,0.0,0.0,0.0,0.0,0.0,0.0,0.0,0.0,0.0,0.0,0.0,0.0,0.0,0.0,0.0,0.0,0.0,0.0,0.0,0.0,0.0,0.0,0.0,0.0,0.0,0.0,0.0,0.0,0.0,0.0,0.0,0.0,0.0,0.0,0.0,0.0,0.0,0.0,0.0,0.0,0.0,0.0,0.0,0.0,0.0,0.0,0.0,0.0,0.0,-3.045,-3.2499,-3.418,-3.5041,-3.559,-3.5875,-3.5875,-3.4492,-3.2697,-3.0644,0.0,0.0,0.0,0.0,0.0,0.0,0.0,0.0,0.0,0.0,0.0,0.0,0.0,0.0,0.0,0.0,0.0,0.0,0.0,0.0,0.0,0.0,0.0,0.0,0.0,0.0,0.0,0.0,0.0,0.0,0.0,0.0,0.0,0.0,0.0,0.0,0.0,0.0,0.0,0.0,0.0,0.0,0.0,0.0,0.0,0.0,0.0,0.0,0.0,0.0,0.0,0.0,0.0,0.0,0.0,0.0,0.0,0.0,0.0,0.0,0.0,0.0,0.0,0.0,0.0,0.0,0.0,0.0,0.0,0.0,0.0,0.0,0.0,0.0,0.0,0.0,0.0,0.0,0.0,0.0,0.0,0.0,0.0,0.0,0.0,0.0,0.0,0.0,0.0,0.0,0.0,0.0,0.0,0.0,0.0,0.0,0.0,0.0,0.0,0.0,0.0,0.0,-3.045,-3.2188,-3.3782,-3.5148,-3.5707,-3.5976,-3.5935,-3.432,-3.2188,-2.9539,0.0,0.0,0.0,0.0,0.0,0.0,0.0,0.0,0.0,0.0,0.0,0.0,0.0,0.0,0.0,0.0,0.0,0.0,0.0,0.0,0.0,0.0,0.0,0.0,0.0,0.0,0.0,0.0,0.0,0.0,0.0,0.0,0.0,0.0,0.0,0.0,0.0,0.0,0.0,0.0,0.0,0.0,0.0,0.0,0.0,0.0,0.0,0.0,0.0,0.0,0.0,0.0,0.0,0.0,0.0,0.0,0.0,0.0,0.0,0.0,-2.1569,0.0,0.0,0.0,0.0,0.0,0.0,0.0,0.0,0.0,0.0,0.0,0.0,0.0,0.0,0.0,0.0,0.0,0.0,0.0,0.0,0.0,0.0,0.0,0.0,0.0,0.0,0.0,0.0,0.0,0.0,0.0,0.0,0.0,0.0,0.0,0.0,0.0,0.0,0.0,0.0,0.0,-3.045,-3.165,-3.2851,-3.4217,-3.4776,-3.4961,-3.4527,-3.3492,-3.2002,-2.9973,-2.7966,0.0,0.0,0.0,0.0,0.0,0.0,0.0,0.0,0.0,0.0,0.0,0.0,0.0,0.0,0.0,0.0,0.0,0.0,0.0,0.0,0.0,0.0,0.0,0.0,0.0,0.0,0.0,0.0,0.0,0.0,0.0,0.0,0.0,0.0,0.0,0.0,0.0,0.0,0.0,0.0,0.0,0.0,0.0,0.0,0.0,0.0,0.0,0.0,0.0,0.0,0.0,0.0,0.0,0.0,0.0,0.0,0.0,0.0,0.0,0.0,-2.2767,0.0,0.0,0.0,0.0,0.0,0.0,0.0,0.0,0.0,0.0,0.0,0.0,0.0,0.0,0.0,0.0,0.0,0.0,0.0,0.0,0.0,0.0,0.0,0.0,0.0,0.0,0.0,0.0,0.0,0.0,0.0,0.0,0.0,0.0,0.0,0.0,0.0,0.0,0.0,0.0,-3.018,-3.134,-3.2478,-3.3617,-3.4214,-3.438,-3.4152,-3.3244,-3.194,-3.0118,-2.8462,0.0,0.0,0.0,0.0,0.0,0.0,0.0,0.0,0.0,0.0,0.0,0.0,0.0,0.0,0.0,0.0,0.0,0.0,0.0,0.0,0.0,0.0,0.0,0.0,0.0,0.0,0.0,0.0,0.0,0.0,0.0,0.0,0.0,0.0,0.0,0.0,0.0,0.0,0.0,0.0,0.0,0.0,0.0,0.0,0.0,0.0,0.0,0.0,0.0,0.0,0.0,0.0,0.0,-2.4437,-2.5276,-2.6451,-2.6121,-2.6175,-2.6426,-2.5157,-2.4557,-2.4526,0.0,0.0,0.0,0.0,0.0,0.0,0.0,0.0,0.0,0.0,0.0,0.0,0.0,0.0,0.0,0.0,0.0,0.0,0.0,0.0,0.0,0.0,0.0,0.0,0.0,-3.1422,-3.1177,0.0,0.0,0.0,0.0,0.0,0.0,0.0,0.0,0.0,0.0,0.0,0.0,-2.9766,-3.1071,-3.2271,-3.3161,-3.3679,-3.3906,-3.3844,-3.3161,-3.1981,-3.0222,-2.9166,-2.798,0.0,0.0,0.0,0.0,0.0,0.0,0.0,0.0,0.0,0.0,0.0,0.0,0.0,0.0,0.0,0.0,0.0,0.0,0.0,0.0,0.0,0.0,0.0,0.0,0.0,0.0,0.0,0.0,0.0,0.0,0.0,0.0,-1.4194,-1.5721,0.0,0.0,0.0,0.0,0.0,0.0,0.0,0.0,0.0,0.0,0.0,0.0,0.0,-2.3325,-2.3826,-2.5248,-2.61,-2.6352,-2.7298,-2.8102,-2.8598,-2.8558,-2.8545,-2.8604,-2.8163,0.0,-2.5371,-2.5168,0.0,0.0,0.0,0.0,0.0,0.0,0.0,0.0,0.0,0.0,0.0,0.0,0.0,0.0,0.0,0.0,0.0,0.0,0.0,0.0,0.0,0.0,-3.1171,-3.1407,-3.2309,-3.2959,0.0,-3.1298,-2.9973,-2.8173,-2.7614,0.0,0.0,0.0,0.0,0.0,0.0,0.0,-2.9332,-3.0615,-3.1816,-3.2727,-3.3203,-3.3327,-3.2934,-3.2752,-3.2126,-3.0677,-2.9352,-2.8297,-2.7689,-2.6271,0.0,0.0,0.0,0.0,0.0,0.0,0.0,0.0,0.0,0.0,0.0,0.0,0.0,0.0,0.0,0.0,0.0,0.0,0.0,0.0,0.0,0.0,0.0,0.0,0.0,0.0,0.0,0.0,0.0,-1.3612,-1.4988,-1.5812,-1.699,-1.7822,0.0,0.0,0.0,0.0,0.0,0.0,0.0,0.0,0.0,-2.2831,-2.4109,-2.5083,-2.5765,-2.7053,-2.7995,-2.8396,-2.9063,-2.9741,-3.0515,-3.0341,-3.0274,-3.0247,-2.9793,-2.891,-2.7731,-2.6633,-2.6182,-2.619,0.0,0.0,0.0,0.0,-2.7703,-2.8918,-2.9592,-3.0018,0.0,0.0,0.0,0.0,0.0,0.0,0.0,0.0,0.0,0.0,0.0,0.0,0.0,-3.2512,-3.3357,-3.3922,-3.3909,-3.341,-3.2354,0.0,-2.9911,-2.9642,-2.8669,0.0,0.0,0.0,0.0,0.0,-2.9601,-3.0677,-3.1567,-3.1917,-3.2607,-3.283,-3.2318,-3.2277,-3.1981,-3.1133,-3.0015,-2.9063,-2.8338,-2.7291,-2.649,0.0,0.0,0.0,0.0,0.0,0.0,0.0,0.0,0.0,0.0,0.0,0.0,0.0,0.0,0.0,0.0,0.0,0.0,0.0,0.0,0.0,0.0,0.0,0.0,0.0,0.0,0.0,0.0,-1.5129,-1.6281,-1.6363,-1.7997,-1.8806,0.0,0.0,0.0,0.0,0.0,0.0,-2.1039,-2.1742,-2.3053,-2.4951,-2.6097,-2.7206,-2.8216,-2.9169,-2.982,-3.0333,-3.0623,-3.1101,-3.1664,-3.1517,-3.141,-3.1303,-3.0728,-3.0181,-2.9628,-2.788,-2.706,-2.6819,-2.6673,-2.7208,-2.8086,-2.7921,-2.8858,-3.0259,-3.1148,-3.1531,-3.1773,-3.2442,0.0,-3.0479,-2.947,0.0,0.0,0.0,0.0,-2.9315,-3.0536,-3.12,-3.1837,-3.3175,-3.3826,-3.428,-3.4636,-3.4594,-3.3976,0.0,-3.1795,-3.1464,-3.0222,0.0,0.0,0.0,0.0,-2.9083,-2.9891,-3.0719,-3.1251,-3.1394,-3.1988,-3.2265,-3.1849,-3.1843,-3.1671,-3.1236,-3.0553,-2.9808,-2.9001,-2.8112,-2.7264,-2.6332,0.0,0.0,0.0,0.0,0.0,0.0,0.0,0.0,0.0,0.0,0.0,0.0,0.0,0.0,0.0,0.0,0.0,0.0,0.0,0.0,0.0,0.0,0.0,0.0,0.0,0.0,0.0,0.0,0.0,-1.8314,-2.1101,0.0,0.0,0.0,0.0,-2.0626,-2.1101,-2.2041,-2.3295,-2.4459,-2.6048,-2.8123,-2.935,-3.0529,-3.1594,-3.2107,-3.2278,-3.2011,-3.2318,-3.2185,-3.1677,-3.1944,-3.1904,-3.161,-3.1022,-3.0595,-3.0181,-2.8449,-2.7418,-2.6878,-2.6033,-2.6417,-2.7504,-2.7174,-2.8436,-3.0364,-3.0835,-3.1461,-3.2238,-3.3757,-3.3211,-3.1836,-3.1359,-3.0406,0.0,0.0,-3.0369,-3.0846,-3.1736,-3.2134,-3.2459,-3.2922,-3.3245,-3.3607,-3.4278,-3.4061,-3.3538,0.0,-3.1981,-3.1112,-3.016,0.0,-2.8607,-2.8607,-2.898,-2.9435,-2.9932,-3.0438,-3.0908,-3.1353,-3.1449,-3.1496,-3.1449,-3.1416,-3.1215,-3.0739,-3.0677,-3.0429,-2.9953,-2.8607,-2.7752,-2.7537,-2.5994,0.0,0.0,0.0,0.0,0.0,0.0,0.0,0.0,0.0,0.0,0.0,0.0,0.0,0.0,0.0,0.0,0.0,0.0,0.0,0.0,0.0,0.0,0.0,0.0,0.0,0.0,0.0,0.0,-2.0538,-2.2925,0.0,-2.1491,-2.2148,-2.2799,-2.32,-2.3696,-2.4642,-2.6094,-2.6496,-2.7611,-2.9453,-3.0095,-3.0932,-3.2038,-3.2629,-3.2585,-3.2104,-3.2211,-3.2051,-3.1677,-3.1784,-3.177,-3.1637,-3.1049,-3.0742,-3.0528,-2.9138,-2.8395,-2.8158,-2.7629,-2.8359,-2.9501,-2.9105,-3.0341,-3.2216,-3.2685,-3.2992,-3.318,-3.3211,-3.268,-3.1873,-3.1194,-3.0882,-3.0772,-3.0937,-3.1066,-3.1359,-3.2166,-3.229,-3.2274,-3.286,-3.3043,-3.3162,-3.3355,-3.3552,-3.3618,-3.3456,-3.2994,-3.2561,-3.223,-3.0926,-2.9953,-2.9953,-2.958,-2.9477,-2.9932,-3.0429,-3.0644,-3.0508,-3.1042,-3.1275,-3.0975,-3.068,-3.0408,-3.0243,-2.9684,-2.927,-2.9125,-2.8216,-2.7468,-2.6876,-2.5936,-2.5664,0.0,0.0,0.0,0.0,0.0,0.0,0.0,0.0,0.0,0.0,0.0,0.0,0.0,0.0,0.0,0.0,0.0,0.0,0.0,0.0,0.0,0.0,0.0,0.0,0.0,0.0,-2.3272,-2.236,-2.4642,-2.5535,-2.3591,-2.4339,-2.523,-2.5662,-2.6262,-2.7055,-2.831,-2.8338,-2.922,-3.0953,-3.12,-3.1768,-3.2794,-3.3081,-3.2933,-3.2251,-3.2345,-3.2144,-3.1677,-3.177,-3.165,-3.1356,-3.0955,-3.0621,-3.0287,-2.9513,-2.9001,-2.8648,-2.8235,-2.8914,-3.0038,-2.9821,-3.0914,-3.271,-3.3354,-3.387,-3.4109,-3.339,-3.2845,-3.2313,-3.1781,-3.1799,-3.2001,-3.2019,-3.2111,-3.2331,-3.2863,-3.2716,-3.2556,-3.2935,-3.2843,-3.2682,-3.2815,-3.3273,-3.3632,-3.3738,-3.3716,-3.3613,-3.341,-3.2271,-3.1319,-3.1174,-3.0491,-3.016,-3.0636,-3.0814,-3.0775,-3.0276,-3.0793,-3.0959,-3.0496,-3.0214,-2.987,-2.9559,-2.8959,-2.8483,-2.8173,-2.7717,-2.7217,-2.6668,-2.5937,-2.5639,-2.5758,0.0,0.0,0.0,0.0,0.0,0.0,0.0,0.0,0.0,0.0,0.0,0.0,0.0,0.0,0.0,0.0,0.0,0.0,0.0,0.0,0.0,0.0,0.0,-2.099,-2.3651,-2.5131,-2.3934,-2.649,-2.7579,-2.5718,-2.7053,-2.7977,-2.8077,-2.8665,-2.9296,-2.9812,-3.0151,-3.1022,-3.2671,-3.2749,-3.3123,-3.3895,-3.3881,-3.3427,-3.2643,-3.2826,-3.2505,-3.1677,-3.1957,-3.161,-3.0795,-3.0795,-3.0301,-2.9499,-2.9472,-2.8951,-2.8167,-2.7509,-2.7953,-2.89,-2.8886,-2.9897,-3.1561,-3.2776,-3.3971,-3.49,-3.455,-3.389,-3.3266,-3.3248,-3.3248,-3.3248,-3.3248,-3.3505,-3.3798,-3.3798,-3.3505,-3.3211,-3.3193,-3.2588,-3.2198,-3.2795,-3.3117,-3.3407,-3.3593,-3.3881,-3.3927,-3.3451,-3.2996,-3.2504,-3.205,-3.165,0.0,-3.1884,-3.1621,-3.1177,-3.0758,-3.068,-3.0541,-3.0056,-2.9973,-2.9559,-2.8649,-2.8545,-2.8131,-2.7309,-2.7247,-2.7113,-2.684,-2.5978,-2.5178,-2.457,0.0,0.0,0.0,0.0,0.0,0.0,0.0,0.0,0.0,0.0,0.0,0.0,0.0,0.0,0.0,0.0,0.0,0.0,0.0,0.0,0.0,0.0,-2.3573,-2.3552,-2.518,-2.6558,-2.7122,-2.8662,-2.9379,-2.8632,-2.9139,-2.9753,-3.0153,-3.0222,-3.0505,-3.1521,-3.1656,-3.2096,-3.3151,-3.3085,-3.3235,-3.3881,-3.3654,-3.3213,-3.2643,-3.2625,-3.2318,-3.1677,-3.1757,-3.1423,-3.0795,-3.0795,-3.0408,-2.9766,-2.9339,-2.8764,-2.8194,-2.7722,-2.7866,-2.8259,-2.8032,-2.9416,-3.1606,-3.3449,-3.4295,-3.4539,-3.441,-3.4257,-3.4018,-3.3743,-3.3651,-3.3651,-3.3651,-3.3523,-3.3376,-3.3376,-3.3083,-3.2698,-3.2404,-3.2166,-3.1901,-3.1505,-3.179,-3.218,-3.2296,-3.2911,-3.3372,-3.3393,-3.2747,-3.2132,-3.2008,-3.1381,0.0,-3.105,-3.0648,-3.0503,-3.0702,-3.0694,-3.068,-3.0548,-2.9589,-2.8731,-2.8152,-2.7179,-2.6517,-2.6314,-2.5958,-2.5743,-2.5655,-2.5615,-2.5712,0.0,0.0,0.0,0.0,0.0,0.0,0.0,0.0,0.0,0.0,0.0,0.0,0.0,0.0,0.0,0.0,0.0,0.0,0.0,0.0,0.0,0.0,-2.358,-2.5141,-2.5977,-2.7062,-2.8111,-2.9176,-3.0011,-3.0593,-3.0653,-3.0832,-3.1116,-3.165,-3.1486,-3.1821,-3.2676,-3.2706,-3.3079,-3.3983,-3.3823,-3.3978,-3.4255,-3.3948,-3.3494,-3.2906,-3.2666,-3.2305,-3.1837,-3.1597,-3.1169,0.0,-3.0608,-3.014,-2.9339,-2.9005,-2.843,0.0,0.0,0.0,0.0,0.0,-3.0485,-3.2489,-3.3705,-3.4337,-3.4576,-3.428,-3.4147,-3.411,-3.389,-3.3817,-3.378,-3.3615,-3.3395,-3.3175,-3.301,-3.2771,-3.2533,-3.2313,-3.2129,-3.1873,-3.1396,-3.1537,-3.1721,-3.155,0.0,0.0,-3.2452,-3.2514,-3.2478,-3.205,-3.1588,-3.1195,-3.0988,-3.0739,-3.0644,-3.0683,-3.0714,-3.0639,-3.0402,-2.9476,0.0,0.0,0.0,-2.5999,-2.5627,-2.5446,0.0,0.0,0.0,-2.591,-2.595,0.0,0.0,0.0,-2.8727,-2.9543,0.0,0.0,0.0,0.0,0.0,0.0,0.0,0.0,0.0,0.0,0.0,0.0,0.0,0.0,0.0,0.0,-2.4806,-2.6327,-2.8089,-2.9004,-2.9689,-3.0189,-3.0769,-3.1288,-3.1807,-3.1879,-3.2097,-3.2592,-3.2628,-3.2871,-3.3443,0.0,0.0,0.0,0.0,-3.4794,-3.4776,-3.4429,-3.3988,-3.34,-3.2826,-3.2482,-3.2366,-3.1584,-3.0995,-3.0627,-3.0445,-2.9713,-2.8657,-2.8617,-2.8056,-2.7215,-2.7175,-2.7323,-2.779,-3.033,-3.2173,-3.3473,-3.3933,0.0,0.0,-3.4131,-3.3927,-3.3853,-3.378,-3.378,-3.3725,-3.334,-3.323,-3.312,-3.2698,-3.257,-3.2514,-3.2478,-3.2184,-3.1928,-3.1928,-3.1873,-3.1596,-3.1162,-3.1293,-3.1348,-3.1062,-3.2174,-3.2876,-3.2029,-3.1864,-3.1754,-3.136,-3.1257,-3.1091,-3.0727,0.0,0.0,-3.0109,-2.9539,-2.8711,-2.7537,-2.6936,-2.6165,-2.523,-2.5432,-2.5419,-2.5211,-2.5787,-2.5849,-2.5333,-2.6531,-2.7185,-2.7307,-2.8514,-2.9574,0.0,0.0,0.0,0.0,0.0,0.0,0.0,0.0,0.0,0.0,0.0,0.0,0.0,0.0,0.0,-2.4446,-2.6206,-2.7775,-2.9006,-2.9879,-3.0472,-3.0793,-3.1324,-3.1771,-3.2097,-3.2314,-3.2555,-3.2881,-3.2917,-3.3101,-3.3418,-3.4133,0.0,-3.4369,-3.4885,-3.5005,-3.4763,-3.4242,-3.3788,-3.34,0.0,0.0,-3.3788,-3.2055,-3.1536,-3.2124,-3.0899,-2.982,-2.8938,-2.8711,-2.7936,-2.6881,-2.6653,-2.6573,-2.7004,-3.016,-3.1085,-3.13,-3.4588,-3.5172,-3.4537,-3.4738,-3.4568,-3.4165,-3.3523,-3.356,0.0,-3.334,-3.323,-3.312,-3.2698,-3.2368,-3.2038,-3.1689,-3.1561,-3.1506,-3.1506,-3.1506,-3.1331,-3.0925,-3.1015,-3.1051,-3.0675,-3.1149,-3.1543,-3.1533,-3.1195,-3.0905,-3.0822,-3.0491,-3.039,-3.0674,-3.0692,-3.0639,-3.0548,-2.9444,-2.8628,-2.8359,-2.7241,-2.6165,-2.523,-2.5233,-2.5267,-2.5211,-2.5338,-2.5654,-2.627,-2.6524,-2.7021,-2.78,-2.8657,-2.918,0.0,0.0,0.0,0.0,0.0,0.0,0.0,0.0,0.0,0.0,0.0,-2.1317,0.0,0.0,-2.4566,-2.5844,-2.7148,-2.8379,-2.9453,-3.0177,-3.0805,-3.1336,-3.1759,-3.2157,-3.2555,-3.2724,-3.2881,-3.3147,-3.3304,-3.37,-3.4259,-3.4817,-3.5131,-3.5219,-3.547,-3.5418,-3.4977,-3.4402,-3.4028,-3.3855,-3.3748,-3.4003,-3.4493,-3.3536,-3.3557,-3.4095,-3.2815,-3.1897,-3.1253,-3.0294,-2.9267,-2.8461,-2.8304,-2.8246,-2.8544,-3.1239,-3.2386,-3.2902,-3.5148,-3.5358,-3.4667,-3.47,-3.444,-3.4,-3.3413,-3.3358,-3.3395,-3.279,-3.2625,-3.2514,-3.2093,-3.1836,-3.1634,-3.1433,-3.1377,-3.1377,-3.1377,-3.1231,-3.0974,-3.0571,-3.0396,-3.0218,-2.9898,-3.0315,-3.0817,-3.1177,-3.1155,-3.0967,-3.0727,-3.0722,-3.062,-3.0381,-3.0569,-3.0611,-3.0381,-2.9081,-2.8173,-2.7945,-2.6868,-2.6123,-2.5916,-2.5757,-2.5602,-2.54,-2.5594,-2.5828,-2.6052,-2.6569,-2.6981,-2.7249,-2.8299,-2.908,0.0,0.0,0.0,0.0,0.0,0.0,0.0,0.0,-2.0955,-2.2283,-2.2561,-2.2983,-2.4371,-2.5059,-2.5832,-2.7063,-2.7968,-2.885,-2.9815,-3.0419,-3.1059,-3.1867,-3.2145,-3.2447,-3.2857,-3.2978,-3.3147,-3.3376,-3.3593,-3.4069,-3.4941,-3.5393,-3.5622,-3.5962,-3.6099,-3.5792,-3.5204,-3.4616,-3.4295,-3.4215,-3.4647,-3.4943,-3.5188,-3.5269,-3.553,-3.5926,-3.4476,-3.367,-3.3221,-3.1945,-3.0946,-3.0176,-3.0639,-3.0793,-3.0947,-3.2538,-3.3844,-3.4861,-3.5393,-3.5357,-3.4954,-3.4532,-3.4128,-3.3725,-3.3248,-3.3156,-3.3046,-3.2239,-3.2001,-3.1928,-3.1579,-3.1433,-3.1377,-3.1377,-3.1377,-3.1377,-3.1377,-3.1066,-3.0662,-3.0277,-2.9855,-2.9522,-2.9368,-2.9795,-3.0403,-3.089,-3.1201,-3.1236,-3.0735,-3.1046,-3.0933,-3.0056,-3.036,-3.035,-2.9798,-2.8773,-2.7924,-2.7351,-2.677,-2.6455,-2.6604,-2.6472,-2.6169,-2.5607,-2.5913,-2.5937,-2.5612,-2.6445,-2.6775,-2.6528,-2.7592,-2.8594,-1.836,-1.842,-1.9024,-2.0436,-2.0509,-2.0907,0.0,0.0,-2.3351,-2.477,-2.5035,-2.5228,-2.588,-2.6447,-2.7087,-2.7932,-2.8946,-2.9827,-3.0431,-3.0974,-3.1602,-3.241,-3.2531,-3.2555,-3.2628,-3.305,-3.334,-3.3376,-3.34,-3.3737,-3.4383,-3.4966,-3.5382,-3.5597,-3.5989,-3.5792,-3.5204,-3.4616,-3.4189,-3.3921,-3.4549,-3.5521,-3.6707,-3.5958,-3.6243,-3.7095,-3.4399,-3.2693,-3.189,-3.2523,-3.1732,-3.033,-3.2512,-3.3196,-3.2859,-3.3087,-3.3541,-3.4093,-3.5228,-3.5357,-3.4954,-3.4532,-3.4128,-3.367,-3.29,-3.2918,-3.3046,-3.2239,-3.2001,-3.2001,-3.1946,-3.1653,-3.1377,-3.1377,-3.1377,-3.1377,-3.1377,-3.1066,-3.0662,-3.0277,-2.9855,-2.9675,-2.9823,-3.0046,-3.0229,-3.0469,-3.0997,-3.1215,-3.076,-3.0772,-3.0586,-3.0056,-3.0067,-2.9735,-2.8835,-2.9001,-2.8607,-2.7392,-2.7924,-2.7779,-2.6667,-2.6957,-2.6702,-2.5628,-2.5651,-2.5636,-2.5612,-2.5738,-2.6052,-2.6487,-2.6652,-2.7003,-1.9639,0.0,0.0,0.0,-2.2066,-2.2947,-2.4311,-2.4613,-2.4855,-2.6122,-2.6363,-2.652,-2.7051,-2.7461,-2.7965,0.0,-2.9396,-3.0185,-3.1448,-3.1341,-3.1441,-3.2258,-3.2106,-3.2193,-3.2978,-3.3243,-3.3376,-3.3376,-3.3871,-3.4345,-3.4842,-3.554,-3.5891,-3.5946,-3.6031,-3.5712,-3.495,-3.4523,-3.449,-3.4993,-3.5691,-3.6742,-3.804,-3.8138,-3.8135,-3.7866,-3.6201,-3.4883,-3.3836,-3.383,-3.3205,-3.2359,-3.3365,-3.3971,-3.4203,-3.3995,-3.4281,-3.4895,-3.5194,-3.5009,-3.4605,-3.4183,-3.3798,-3.3321,-3.2496,-3.2368,-3.2386,-3.1799,-3.1634,-3.1634,-3.1634,-3.1506,-3.1377,-3.1377,-3.1377,-3.1322,-3.1084,-3.0901,-3.0589,-2.9965,-2.969,-2.9573,-2.9405,-2.9712,-3.0065,-3.0102,-3.1023,-3.1698,-3.1476,-3.1698,-3.1571,-3.0897,-3.0325,-2.9756,-2.9075,-2.8961,-2.8669,-2.809,-2.8152,-2.8069,-2.7779,-2.7676,-2.7309,-2.6597,-2.6325,-2.606,-2.5787,-2.6016,-2.6135,-2.6177,-2.6652,-2.6734,-2.0364,0.0,0.0,-2.2235,-2.3381,-2.4504,-2.5144,-2.559,-2.6158,-2.7342,-2.7488,-2.7689,-2.8307,-2.8658,-2.8928,-2.9648,-3.0045,-3.0708,-3.1878,-3.1506,-3.1272,-3.1886,-3.1534,-3.1662,-3.2628,-3.2917,-3.3234,-3.3491,-3.4109,-3.4706,-3.5271,-3.5909,-3.6242,-3.6099,-3.5992,-3.5778,-3.5491,-3.4993,-3.5299,-3.6239,-3.7126,-3.7915,-3.8784,-3.9536,-3.9248,-3.8135,-3.7381,-3.6405,-3.5309,-3.4659,-3.4179,-3.3761,-3.3761,-3.4273,-3.4954,-3.4457,-3.4791,-3.5522,-3.4917,-3.4495,-3.4147,-3.3651,-3.3285,-3.2918,-3.2221,-3.2001,-3.1928,-3.1506,-3.1377,-3.1377,-3.1377,-3.1377,-3.1377,-3.1377,-3.1377,-3.1267,-3.0882,-3.0699,-3.0424,-2.9709,-2.9489,-2.9384,-2.9268,-2.9627,-2.9981,-3.0157,-3.1047,-3.1726,-3.1913,-3.2168,-3.2086,-3.1477,-3.0553,-2.9807,-2.932,-2.8869,-2.8566,-2.8442,-2.8235,-2.8214,-2.8421,-2.8338,-2.7986,-2.7309,-2.689,-2.6419,-2.5913,-2.6145,-2.6135,-2.5906,-2.655,-2.6509,0.0,0.0,-2.151,-2.3333,-2.4202,-2.5023,-2.6592,-2.6966,-2.7299,-2.8674,-2.8731,-2.8812,-2.981,-3.0115,-3.0202,-3.0541,-3.1036,-3.1376,-3.1393,-3.1372,-3.1384,-3.1384,-3.1167,-3.1022,0.0,-3.1783,-3.2664,-3.3825,-3.3899,-3.4439,-3.554,-3.5649,-3.5738,-3.6086,-3.5792,-3.6078,-3.7002,-3.639,-3.6545,-3.7557,-3.8403,-3.8723,-3.8861,-3.9267,-3.8854,-3.7741,-3.697,-3.6011,-3.4967,-3.4556,-3.4179,-3.3761,-3.3761,-3.4273,-3.4918,-3.4082,-3.4558,-3.5449,-3.4257,-3.3835,-3.3707,-3.29,-3.2625,-3.2533,-3.2129,-3.2001,-3.1928,-3.1506,-3.1377,-3.1377,-3.1377,-3.1377,-3.1377,-3.1377,-3.1377,-3.1267,-3.0882,-3.0497,-3.0094,-2.9654,-2.9269,-2.9172,-2.9745,-2.9863,-3.0098,-3.0645,-3.082,-3.1053,-3.171,-3.1605,-3.1457,-3.1381,-3.0553,-2.9808,-2.9352,-2.8897,-2.8421,-2.7966,-2.8359,-2.84,-2.7966,-2.8794,-2.8628,-2.733,-2.7019,-2.6557,-2.5913,-2.5701,-2.5738,-2.5906,-2.5948,-2.5948,-2.0931,0.0,-2.3056,-2.4745,-2.5699,-2.6496,-2.757,-2.8226,-2.8667,-2.886,-2.9525,-2.9743,-2.9113,-2.9651,-3.0294,-3.0535,-3.0818,-3.1365,-3.2404,-3.2212,-3.1788,-3.1536,-3.1158,0.0,0.0,0.0,0.0,-3.2665,-3.328,-3.3994,-3.4929,-3.5571,-3.6302,-3.6955,-3.6949,-3.723,-3.8093,-3.7869,-3.8105,-3.8831,-3.9297,-3.958,-3.9547,-3.8967,-3.8357,-3.769,-3.6422,-3.5532,-3.4933,-3.4282,-3.3957,-3.3761,-3.3761,-3.4116,-3.4563,-3.3976,-3.4055,-3.433,-3.3651,-3.3413,-3.3285,-3.2478,-3.2203,-3.2129,-3.1708,-3.1579,-3.1561,-3.1414,-3.1377,-3.1377,-3.1377,-3.1377,-3.1377,-3.1377,-3.1377,-3.1267,-3.0882,-3.0479,-3.0075,-2.9654,-2.925,-2.9035,-2.9272,-2.9494,-2.9901,-3.0498,-3.0839,-3.1097,-3.1288,-3.1078,-3.0946,-3.0954,-3.0355,-2.9932,-2.9766,-2.9063,-2.8545,-2.84,-2.8235,-2.8041,-2.7924,-2.8214,-2.8028,-2.7309,-2.6727,-2.6262,-2.5913,-2.5701,-2.5696,-2.5906,-2.5906,-2.5906,-2.1788,-2.2935,-2.4263,-2.5856,-2.6887,-2.7867,-2.9118,-2.9817,-3.0333,-3.0584,-3.1031,-3.0931,-2.9411,-2.9758,-3.0131,-3.007,-3.0183,-3.0776,-3.2123,-3.1803,-3.1322,-3.1376,-3.0939,0.0,0.0,0.0,0.0,-3.2516,-3.377,-3.4584,-3.4781,-3.5803,-3.6739,-3.7145,-3.775,-3.851,-3.9454,-3.9205,-3.9323,-3.9879,-3.9977,-3.9967,-3.9796,-3.8785,-3.7964,-3.7279,-3.6046,-3.5224,-3.471,-3.4094,-3.3761,-3.382,-3.3683,-3.3926,-3.4351,-3.3622,-3.3552,-3.3725,-3.3193,-3.29,-3.268,-3.2001,-3.1781,-3.1726,-3.1469,-3.1377,-3.1377,-3.1377,-3.1377,-3.1377,-3.1377,-3.1377,-3.1377,-3.1377,-3.1377,-3.1267,-3.0882,-3.0479,-3.0075,-2.9654,-2.925,-2.8975,-2.8975,-2.9195,-2.9541,-2.9901,-3.0123,-3.0475,-3.1268,-3.0933,-3.073,-3.09,-3.0408,-2.9994,-2.9994,-2.929,-2.8794,-2.8628,-2.8338,-2.809,-2.7924,-2.809,-2.7883,-2.7309,-2.6748,-2.6262,-2.5913,-2.5701,-2.5696,-2.5906,-2.5906,-2.5906,-2.2794,-2.3937,-2.512,-2.6791,-2.8026,-2.928,-3.1288,-3.1839,-3.2265,-3.3411,-3.2998,-3.2057,0.0,0.0,-3.0153,-2.9343,-2.9299,-2.9817,-3.0989,-3.0423,-3.0254,0.0,0.0,0.0,0.0,0.0,0.0,-3.333,0.0,-3.5913,-3.5022,-3.6355,-3.7139,-3.6911,-3.8298,-3.9635,-4.0951,-4.0238,-4.0149,-4.0601,-4.0207,-3.9813,-3.9419,-3.8631,-3.7655,-3.6559,-3.5806,-3.507,-3.435,-3.3991,-3.3761,-3.3768,-3.3409,-3.3757,-3.4244,-3.3127,-3.3173,-3.3633,-3.2845,-3.2331,-3.1946,-3.1506,-3.1377,-3.1377,-3.1377,-3.1377,-3.1377,-3.1377,-3.1377,-3.1377,-3.1377,-3.1377,-3.1377,-3.1377,-3.1377,-3.1267,-3.0901,-3.0497,-3.0075,-2.9672,-2.9269,-2.8993,-2.9012,-2.8993,-2.8993,-2.9012,-2.8741,-2.9335,-3.1434,-3.0942,-3.0695,-3.1244,-3.0512,-2.9994,-2.9994,-2.9559,-2.9083,-2.8649,-2.8566,-2.8338,-2.7903,-2.8317,-2.811,-2.7247,-2.6998,-2.6536,-2.587,-2.5658,-2.5696,-2.5906,-2.5906,-2.5906,-2.4214,-2.5458,-2.701,-2.9466,-3.0305,-3.1009,-3.2915,-3.3456,-3.3375,-3.2688,-3.2556,-3.1703,0.0,0.0,0.0,-3.0652,-3.1673,0.0,-3.4082,-3.3019,0.0,-3.161,0.0,-3.3408,-3.366,-3.622,0.0,0.0,-3.6805,-3.7236,-3.7602,-3.8141,-3.8811,-3.9402,-3.9877,-4.0465,-4.1464,-4.1102,-4.0933,-4.1012,-4.007,-3.9419,-3.9025,-3.7964,-3.7039,-3.6183,-3.5429,-3.483,-3.435,-3.3991,-3.3665,-3.3409,-3.3306,-3.3426,-3.3499,-3.2932,-3.2813,-3.2826,-3.2331,-3.2093,-3.1946,-3.1506,-3.1377,-3.1377,-3.1377,-3.1377,-3.1377,-3.1377,-3.1377,-3.1377,-3.1377,-3.1377,-3.1377,-3.1377,-3.1377,-3.1341,-3.1249,-3.0681,-3.0167,-3.0057,-2.947,-2.9067,-2.9439,-2.9177,-2.9085,-2.9379,-2.8655,-2.8502,-2.99,-2.9744,-2.9688,-3.0293,-3.0139,-2.9994,-2.9994,-2.924,-2.8746,-2.8628,-2.7986,-2.76,-2.7475,-2.76,-2.7226,-2.6248,-2.6194,-2.5829,-2.5167,-2.5105,-2.5295,-2.5696,-2.5696,-2.578,-2.7859,-2.9083,-3.0438,-3.2467,-3.3131,-3.355,-3.4561,-3.4784,-3.438,-3.3066,-3.2789,0.0,-2.8481,0.0,0.0,0.0,0.0,0.0,-3.5514,-3.4556,-3.396,0.0,-3.5428,0.0,-3.7273,-3.8775,-3.9901,0.0,-3.9276,-3.8611,-3.8432,-3.921,-3.9858,-4.0174,-4.0848,-4.128,-4.1474,-4.1268,-4.0994,-4.0669,-3.9847,-3.9179,-3.8631,-3.7655,-3.6713,-3.5806,0.0,-3.4659,-3.4128,-3.3922,-3.3614,-3.3329,-3.3322,-3.3224,-3.295,-3.2521,-3.234,-3.2276,-3.1873,-3.1726,-3.1689,-3.1451,-3.1377,-3.1377,-3.1377,-3.1377,-3.1377,-3.1377,-3.1377,-3.1377,-3.1377,-3.1377,-3.1377,-3.1377,-3.1377,-3.1377,-3.1377,-3.0901,-3.0351,-3.0002,-2.9415,-2.9048,-2.9269,-2.9122,-2.9067,-2.9269,-2.8483,-2.8106,-2.8991,-2.8917,-2.8953,-2.9525,-2.9848,-2.9994,-2.9994,-2.9518,-2.9013,-2.8649,-2.8131,-2.7676,-2.733,-2.7309,-2.6978,-2.6206,-2.5978,-2.5657,-2.5208,-2.4998,-2.5126,-2.5612,-2.5612,-2.5696,-3.2134,-3.334,-3.4225,-3.5474,-3.5971,-3.6234,-3.62,-3.5886,-3.5195,-3.3839,0.0,-3.1578,-2.8972,-2.9656,-3.0534,-3.0592,0.0,-3.2424,-3.6386,-3.5742,-3.5761,-3.8147,-3.8442,-3.929,-4.1391,-4.0837,-4.1261,-4.3636,-4.1827,-4.011,-3.8827,-4.0012,-4.0608,-4.0184,-4.143,-4.1748,-4.1097,-4.1046,-4.0686,-4.0036,-3.9539,-3.894,-3.822,-3.7467,-3.6508,-3.5412,0.0,0.0,-3.3761,-3.3761,-3.358,-3.3243,-3.321,-3.2946,-3.2542,-3.2137,-3.1951,-3.1946,-3.1524,-3.1377,-3.1377,-3.1377,-3.1377,-3.1377,-3.1377,-3.1377,-3.1377,-3.1377,-3.1341,-3.1304,-3.1304,-3.1304,-3.1304,-3.1304,-3.1341,-3.1377,-3.1377,-3.1066,-3.0552,-2.9727,-2.9287,-2.9048,-2.8993,-2.8975,-2.8975,-2.8975,-2.8333,-2.8048,-2.8446,-2.8298,-2.8436,-2.9003,-2.9577,-2.9921,-2.9994,-2.9921,-2.9529,-2.8669,-2.8516,-2.8152,-2.7351,-2.7309,-2.7081,-2.6625,-2.621,-2.5865,-2.5564,-2.5144,-2.519,-2.557,-2.557,-2.5696,-3.3762,-3.4877,-3.6156,-3.7739,-3.7962,-3.7871,-3.7862,-3.6929,0.0,0.0,-3.1576,-3.0105,-2.7932,-2.9643,-3.175,-3.2761,0.0,0.0,0.0,0.0,-3.7528,0.0,0.0,0.0,0.0,0.0,0.0,0.0,0.0,0.0,-4.1946,-4.2268,-4.2042,-4.1442,-4.1108,-4.0823,-4.0686,-4.0378,-4.0155,-4.0018,-3.9008,-3.8289,-3.7827,-3.7073,-3.6114,-3.507,0.0,0.0,-3.3761,-3.3761,-3.3426,-3.2775,-3.278,-3.2539,-3.2152,-3.1758,-3.1751,-3.1946,-3.1524,-3.1377,-3.1377,-3.1377,-3.1377,-3.1377,-3.1377,-3.1377,-3.1377,-3.1377,-3.1139,-3.0882,-3.0882,-3.0882,-3.0882,-3.0882,-3.1139,-3.1377,-3.1377,-3.1066,-3.0552,-2.9727,-2.9525,-2.936,-2.9048,-2.8975,-2.8975,-2.8975,-2.859,-2.821,-2.7977,-2.7691,-2.7956,-2.8973,-2.9189,-2.9484,-2.9994,-2.9629,-2.9167,-2.8619,-2.826,-2.7806,-2.733,-2.7309,-2.7081,-2.6625,-2.6542,-2.6086,-2.5277,-2.5392,-2.5422,-2.5295,-2.5506,-2.5696,-3.8024,-3.8973,-3.9867,-4.0881,-4.0425,-3.9391,-3.7743,0.0,0.0,0.0,-3.0271,-2.933,-2.7942,0.0,0.0,0.0,0.0,0.0,0.0,0.0,0.0,0.0,0.0,0.0,0.0,0.0,0.0,0.0,0.0,0.0,-4.2244,-4.2073,-4.1816,-4.144,-4.0875,-4.0498,-4.0292,-4.0121,-3.9847,-3.9436,-3.8683,-3.8032,-3.745,-3.6885,-3.6029,-3.4984,-3.4984,0.0,-3.382,-3.3631,-3.3203,-3.2728,-3.2902,-3.2474,-3.1779,-3.2007,-3.1938,-3.1653,-3.1451,-3.1377,-3.1377,-3.1377,-3.1377,-3.1377,-3.1377,-3.1377,-3.1377,-3.1377,-3.1249,-3.1047,-3.0846,-3.0937,-3.0992,-3.0589,-3.0791,-3.1121,-3.1341,-3.1066,-3.0681,-3.0277,-2.9855,-2.9507,-2.9324,-2.9122,-2.8975,-2.8975,-2.8645,-2.8263,-2.7862,-2.7529,-2.7549,-2.815,-2.874,-2.9213,-2.9484,-2.9629,-2.9384,-2.8669,-2.8413,-2.7979,-2.733,-2.7309,-2.7206,-2.6978,-2.675,-2.6351,-2.5937,-2.5594,-2.5415,-2.5379,-2.5402,-2.5506,-4.1767,-4.2589,-4.3092,-4.3243,-4.2322,-4.0524,-3.7293,-3.5375,0.0,0.0,-2.9416,-2.8892,-2.8236,0.0,0.0,0.0,0.0,0.0,0.0,0.0,0.0,0.0,0.0,0.0,0.0,0.0,0.0,0.0,0.0,0.0,-4.1697,-4.1371,-4.1166,-4.1166,-4.0789,-4.0412,-4.0036,-3.995,-3.9539,-3.8785,-3.8323,-3.769,-3.6953,-3.6559,-3.5823,-3.4847,-3.4847,0.0,0.0,-3.3511,-3.3117,-3.2728,-3.3086,-3.2474,-3.157,-3.2155,-3.1931,-3.1377,-3.1414,-3.1377,-3.1377,-3.1377,-3.1377,-3.1377,-3.1377,-3.1377,-3.1377,-3.1377,-3.1322,-3.1176,-3.0864,-3.1011,-3.1121,-3.0589,-3.0681,-3.0992,-3.1304,-3.1139,-3.0882,-3.0809,-3.0277,-2.9782,-2.9599,-2.9324,-2.9085,-2.8993,-2.8645,-2.8242,-2.7877,-2.7456,-2.723,-2.7255,-2.8265,-2.9003,-2.9068,-2.9629,-2.9642,-2.8814,-2.8669,-2.8255,-2.7475,-2.7351,-2.7309,-2.7309,-2.6957,-2.6708,-2.6625,-2.5899,-2.5597,-2.5586,-2.5444,-2.5423,-4.1936,-4.3261,-4.4081,-4.3056,-4.2321,-4.0815,-3.7396,0.0,0.0,-3.0331,-2.9181,-2.8527,-2.8193,-2.847,-2.9505,0.0,0.0,-3.4504,0.0,0.0,0.0,0.0,0.0,0.0,0.0,0.0,0.0,0.0,0.0,0.0,0.0,-4.1371,-4.1166,-4.1166,-4.0789,-4.0412,-4.0036,-3.9693,-3.9145,-3.8375,-3.7655,-3.6919,-3.6183,-3.5789,-3.5172,-3.4436,0.0,0.0,0.0,-3.3802,-3.3357,-3.2672,-3.2711,-3.2221,-3.1529,-3.1587,-3.1532,-3.1432,-3.1377,-3.1377,-3.1377,-3.1377,-3.1377,-3.1377,-3.1377,-3.1377,-3.1377,-3.1377,-3.1121,-3.0846,-3.0791,-3.0809,-3.0919,-3.1194,-3.1304,-3.1341,-3.1377,-3.1341,-3.1212,-3.0864,-3.0736,-3.0442,-2.9751,-2.9604,-2.9397,-2.903,-2.8645,-2.8242,-2.7877,-2.7433,-2.7049,-2.6719,-2.7691,-2.8595,-2.9088,-2.9629,-2.9787,-2.927,-2.8856,-2.838,-2.7883,-2.7469,-2.7309,-2.7309,-2.7268,-2.704,-2.6625,-2.6706,-2.6337,-2.5607,-2.5783,-2.5744,-4.215,-4.3586,-4.4419,-4.3728,-4.2389,-4.0421,-3.7379,0.0,0.0,-3.0201,-2.9108,-2.851,-2.8389,-2.8149,-2.8505,0.0,0.0,0.0,0.0,0.0,0.0,0.0,0.0,0.0,0.0,0.0,0.0,0.0,0.0,0.0,0.0,-4.0892,-4.0823,-4.0823,-4.0446,-4.007,-3.9693,-3.9094,-3.8512,-3.7981,-3.7005,-3.6388,-3.608,-3.5463,-3.4898,-3.4385,0.0,0.0,0.0,-3.334,-3.2963,-3.2711,-3.2463,-3.1878,-3.1267,-3.1652,-3.1522,-3.1161,-3.1303,-3.1543,-3.1708,-3.1211,-3.1431,-3.1708,-3.1451,-3.1377,-3.1377,-3.1377,-3.1267,-3.1084,-3.0846,-3.0607,-3.0534,-3.0919,-3.1029,-3.1029,-3.1029,-3.1212,-3.1322,-3.1176,-3.0956,-3.0607,-3.0039,-2.9745,-2.936,-2.8718,-2.8498,-2.815,-2.749,-2.7306,-2.7086,-2.6628,-2.7599,-2.839,-2.858,-2.9484,-2.9808,-2.9332,-2.8876,-2.84,-2.7945,-2.7489,-2.7309,-2.7309,-2.7309,-2.7226,-2.704,-2.6843,-2.6431,-2.5784,-2.5734,-2.5571,-4.1849,-4.3557,-4.4657,-4.415,-4.252,-4.0286,0.0,0.0,-3.224,-3.023,-2.9179,-2.8636,-2.8517,-2.808,-2.8114,0.0,0.0,-2.992,0.0,0.0,0.0,0.0,0.0,0.0,0.0,0.0,0.0,0.0,0.0,0.0,0.0,-4.031,-4.031,-4.0412,-4.0173,-3.9744,-3.9128,-3.8597,-3.7964,-3.7261,-3.6474,-3.6006,-3.5725,-3.5114,-3.4745,-3.4596,0.0,0.0,0.0,-3.3403,-3.3042,-3.2694,-3.252,-3.1931,-3.1215,-3.1769,-3.1619,-3.1107,-3.1285,-3.1579,-3.1697,-3.1099,-3.132,-3.1763,-3.134,-3.1313,-3.1377,-3.1377,-3.1377,-3.1304,-3.1029,-3.0754,-3.0589,-3.0754,-3.0882,-3.0937,-3.0809,-3.1102,-3.1377,-3.1377,-3.1157,-3.0846,-3.0442,-3.002,-2.9525,-2.8847,-2.8443,-2.8003,-2.7435,-2.7141,-2.6903,-2.6628,-2.7634,-2.8284,-2.8325,-2.9347,-2.9849,-2.9539,-2.9083,-2.8607,-2.8152,-2.7696,-2.7434,-2.7309,-2.7309,-2.7247,-2.7102,-2.6915,-2.6392,-2.5689,-2.568,-2.5525,-4.0892,-4.3111,-4.4682,-4.398,-4.2675,-4.066,0.0,0.0,-3.2643,-3.0626,-2.9544,-2.8856,-2.8576,-2.8517,-2.8588,-2.9048,0.0,0.0,0.0,0.0,0.0,0.0,0.0,0.0,0.0,0.0,0.0,0.0,0.0,0.0,0.0,-3.9676,-3.9642,-4.0036,-4.0036,-3.9488,-3.8357,-3.834,-3.7587,-3.6114,-3.6097,-3.5736,-3.5016,-3.4632,-3.4637,0.0,0.0,0.0,0.0,-3.4365,-3.3747,-3.2762,-3.3145,-3.2576,-3.1564,-3.1858,-3.1733,-3.1402,-3.1395,-3.1377,-3.1313,-3.1009,-3.1138,-3.1313,-3.1009,-3.112,-3.1377,-3.1377,-3.1377,-3.1377,-3.1377,-3.1359,-3.1267,-3.0882,-3.1084,-3.1267,-3.0882,-3.1102,-3.1377,-3.1377,-3.1377,-3.1249,-3.0846,-3.0461,-3.0057,-2.9617,-2.8594,-2.7822,-2.7822,-2.7068,-2.6591,-2.6591,-2.7603,-2.8281,-2.8281,-2.9343,-2.9994,-2.9994,-2.9559,-2.9083,-2.8628,-2.8152,-2.7717,-2.7309,-2.7309,-2.7081,-2.6625,-2.7081,-2.6558,-2.521,-2.5668,-2.5643,-3.7731,-3.9476,-4.0726,-3.9921,-3.9176,-3.8092,-3.5686,0.0,-3.2294,-3.0552,-2.9544,-2.9067,-2.9221,-2.8817,-2.9069,-3.0876,-3.0686,0.0,0.0,0.0,0.0,0.0,0.0,0.0,0.0,0.0,0.0,0.0,0.0,0.0,0.0,-3.9299,-3.9265,-3.9642,-3.9402,-3.8974,-3.834,-3.7804,-3.721,-3.6483,-3.6001,-3.5674,-3.5381,-3.5023,0.0,0.0,0.0,0.0,0.0,-3.4236,-3.3883,-3.3456,-3.3073,-3.2315,-3.1555,-3.1904,-3.1571,-3.1107,-3.1303,-3.1561,-3.1697,-3.1099,-3.132,-3.1697,-3.1099,-3.112,-3.1377,-3.1377,-3.1377,-3.1377,-3.1377,-3.1377,-3.1212,-3.0552,-3.0901,-3.1121,-3.0167,-3.0497,-3.0901,-3.0626,-3.0571,-3.0442,-3.002,-2.9855,-2.9544,-2.8865,-2.8187,-2.773,-2.7454,-2.6903,-2.6755,-2.7116,-2.7872,-2.8315,-2.829,-2.9355,-2.9994,-2.9994,-2.9559,-2.9104,-2.8628,-2.8173,-2.7717,-2.7309,-2.7309,-2.7247,-2.7081,-2.7247,-2.675,-2.5668,-2.5347,-2.523,0.0,-3.7324,-3.8544,-3.7975,-3.7436,0.0,0.0,0.0,-3.1744,-3.0259,-2.9434,-2.9104,-2.9549,-2.907,-2.924,-3.0874,0.0,0.0,0.0,0.0,0.0,0.0,0.0,0.0,0.0,0.0,0.0,0.0,0.0,0.0,0.0,0.0,-3.8666,-3.908,-3.8718,-3.8185,-3.7735,-3.72,-3.6745,-3.6316,-3.581,-3.5615,-3.5606,-3.5188,0.0,0.0,0.0,0.0,0.0,-3.4286,-3.3928,-3.3588,-3.3091,-3.2429,-3.1715,-3.1889,-3.1527,-3.0901,-3.1093,-3.1322,-3.1441,-3.0864,-3.1063,-3.1531,-3.1211,-3.1157,-3.1194,-3.1341,-3.1267,-3.1194,-3.1341,-3.1377,-3.1212,-3.0571,-3.0919,-3.1084,-3.0039,-3.0332,-3.0662,-3.0277,-3.0204,-3.0112,-2.9855,-2.9672,-2.9397,-2.892,-2.8223,-2.771,-2.7432,-2.6921,-2.6791,-2.7349,-2.796,-2.8368,-2.8555,-2.9481,-2.9994,-2.9994,-2.9725,-2.9352,-2.8897,-2.8421,-2.7966,-2.751,-2.7392,-2.7226,-2.704,-2.6874,-2.6584,-2.6169,-2.5388,-2.5166,0.0,-3.6067,0.0,0.0,0.0,0.0,0.0,-3.2423,0.0,-2.9819,-2.925,-2.9104,-2.9544,-2.9269,-2.9159,-2.969,0.0,0.0,0.0,0.0,0.0,0.0,0.0,0.0,0.0,0.0,0.0,0.0,0.0,0.0,0.0,0.0,-3.7925,-3.831,-3.7909,-3.7386,-3.6742,-3.6702,-3.6355,-3.561,-3.5668,-3.5664,-3.5605,-3.5196,0.0,0.0,0.0,0.0,0.0,-3.4379,-3.3929,-3.334,-3.3193,-3.2701,-3.1962,-3.2016,-3.1506,-3.0827,-3.0791,-3.0791,-3.0727,-3.0393,-3.0564,-3.0918,-3.124,-3.1047,-3.0864,-3.1267,-3.1102,-3.0882,-3.1267,-3.1377,-3.1267,-3.0882,-3.1084,-3.1157,-3.0332,-3.0461,-3.0626,-3.0204,-3.0112,-3.0112,-3.0112,-2.9782,-2.9586,-2.9586,-2.8594,-2.7875,-2.7846,-2.7177,-2.6918,-2.7457,-2.8014,-2.8548,-2.9132,-2.9679,-2.9994,-2.9994,-2.9994,-2.9787,-2.9332,-2.8897,-2.8421,-2.7875,-2.7489,-2.7102,-2.6667,-2.6169,-2.6169,-2.6584,-2.5606,-2.5411,-3.1139,0.0,-3.279,-3.2184,-3.2276,-3.2258,0.0,0.0,-3.0681,-2.9764,0.0,-2.9195,-2.9929,-2.947,0.0,0.0,0.0,0.0,0.0,0.0,0.0,0.0,0.0,0.0,0.0,0.0,0.0,0.0,0.0,0.0,0.0,0.0,-3.7421,-3.7513,-3.7258,-3.708,-3.7188,-3.6927,-3.6569,-3.6066,-3.6062,-3.6069,-3.6052,-3.5668,0.0,0.0,0.0,0.0,-3.4828,-3.4207,-3.3827,-3.3611,-3.2952,-3.2436,-3.1997,-3.1972,-3.1689,-3.1194,-3.0901,-3.0791,-3.0736,-3.038,-3.0281,-3.0354,-3.0479,-3.0626,-3.0864,-3.1267,-3.1102,-3.0882,-3.1267,-3.1377,-3.1267,-3.0882,-3.1084,-3.1066,-2.9965,-3.0039,-3.013,-2.9415,-2.9269,-2.9269,-2.9269,-2.9177,-2.9122,-2.9122,-2.867,-2.8323,-2.8397,-2.7977,-2.7908,-2.8641,-2.8818,-2.9152,-2.9732,-2.9942,-2.9994,-2.9994,-2.9994,-2.9787,-2.9332,-2.9187,-2.8752,-2.7945,-2.7489,-2.7247,-2.7143,-2.6314,-2.6169,-2.6584,-2.5295,-2.5185,-2.9855,-3.0772,-3.1561,-3.1139,-3.1194,-3.1212,-3.0607,0.0,0.0,0.0,0.0,0.0,0.0,0.0,0.0,0.0,0.0,0.0,0.0,0.0,0.0,0.0,0.0,0.0,0.0,0.0,0.0,0.0,0.0,0.0,0.0,0.0,-3.7152,-3.7338,-3.6803,-3.6587,-3.6784,-3.6656,-3.6391,-3.6155,-3.5979,-3.5944,-3.5925,-3.5522,0.0,0.0,0.0,0.0,-3.4095,-3.3517,-3.3225,-3.292,-3.2168,-3.1679,-3.1447,-3.1265,-3.0938,-3.0516,-3.0296,-3.0222,-3.0222,-3.0204,-3.0204,-3.0204,-3.0204,-3.0222,-3.0314,-3.0717,-3.0681,-3.0607,-3.1011,-3.1102,-3.1102,-3.1066,-3.1084,-3.0882,-3.0039,-3.0039,-2.9965,-2.914,-2.8975,-2.8975,-2.8975,-2.8828,-2.8773,-2.8957,-2.8468,-2.8234,-2.8574,-2.8252,-2.831,-2.8999,-2.9093,-2.9331,-2.9942,-2.9994,-2.9994,-2.9994,-2.9994,-2.9891,-2.9622,-2.9415,-2.8876,-2.7945,-2.7696,-2.7469,-2.7309,-2.6584,-2.6376,-2.6584,-2.5511,-2.5355,-2.9617,-3.0901,-3.2001,-3.1634,-3.1322,-3.0992,-3.0607,0.0,0.0,0.0,0.0,0.0,0.0,0.0,0.0,0.0,0.0,0.0,0.0,0.0,0.0,0.0,0.0,0.0,0.0,0.0,0.0,0.0,0.0,0.0,0.0,0.0,0.0,-3.7324,-3.6656,-3.624,-3.6113,-3.6198,-3.6182,-3.6109,-3.5779,-3.5595,-3.5522,-3.5119,-3.4697,0.0,0.0,0.0,-3.3052,-3.2707,-3.23,-3.1853,-3.1109,-3.0716,-3.0599,-3.032,-2.9948,-2.9593,-2.9599,-2.9525,-2.9544,-2.9892,-3.002,-3.002,-3.002,-2.9764,-2.9562,-2.991,-3.0057,-3.0204,-3.0589,-3.0699,-3.0791,-3.1121,-3.0937,-3.0589,-3.0185,-3.0112,-2.9892,-2.9122,-2.8975,-2.8975,-2.8975,-2.8663,-2.8517,-2.8847,-2.8244,-2.8011,-2.8651,-2.8391,-2.8437,-2.9286,-2.9303,-2.9436,-2.9942,-2.9994,-2.9994,-2.9994,-2.9994,-2.9994,-2.9994,-2.9559,-2.8897,-2.8048,-2.7966,-2.7696,-2.7309,-2.677,-2.6542,-2.663,-2.5787,-2.5632,-3.0314,-3.1524,-3.2019,-2.9965,-2.9654,-2.9745,0.0,0.0,0.0,0.0,0.0,0.0,0.0,0.0,0.0,0.0,0.0,0.0,0.0,0.0,0.0,0.0,0.0,0.0,0.0,0.0,0.0,0.0,0.0,0.0,0.0,0.0,0.0,-3.6892,-3.6746,-3.6362,-3.5668,-3.5998,-3.6036,-3.5705,-3.565,-3.5449,-3.51,-3.4697,-3.4275,0.0,0.0,-3.3138,-3.2661,-3.1981,-3.1468,-3.1024,-3.0288,-2.9768,-2.9493,-2.9735,-2.9751,-2.9668,-2.9629,-2.936,-2.9085,-2.914,-2.9159,-2.9159,-2.9159,-2.9122,-2.9085,-2.9159,-2.9415,-2.9764,-3.0185,-3.0296,-3.0314,-3.0369,-3.0332,-3.0167,-2.9764,-2.9672,-2.9525,-2.9067,-2.8975,-2.8975,-2.8975,-2.8663,-2.8407,-2.848,-2.8106,-2.8219,-2.9327,-2.9062,-2.9181,-3.036,-3.0109,-2.9889,-2.9994,-2.9994,-2.9994,-2.9994,-2.9994,-2.9994,-2.9994,-2.9559,-2.9063,-2.8524,-2.8131,-2.7696,-2.7309,-2.6438,-2.6322,-2.6815,-2.5321,-2.5315,-2.9067,-3.0039,-3.0699,-2.958,-3.0424,-3.1322,0.0,0.0,0.0,0.0,0.0,0.0,0.0,0.0,0.0,0.0,0.0,0.0,0.0,0.0,0.0,0.0,0.0,0.0,0.0,0.0,0.0,0.0,0.0,0.0,0.0,0.0,0.0,0.0,-3.6441,-3.622,-3.5632,-3.5595,-3.5485,-3.5302,-3.5064,-3.4862,-3.466,-3.4055,-3.367,-3.3468,0.0,-3.2661,-3.2192,-3.1547,-3.0835,-3.0216,-2.9526,-2.8979,-2.8668,-2.8946,-2.9058,-2.9082,-2.9203,-2.914,-2.8975,-2.8975,-2.8975,-2.8975,-2.8975,-2.8975,-2.8975,-2.8975,-2.9269,-2.9617,-2.9819,-2.9855,-2.991,-3.0149,-3.002,-2.98,-2.9617,-2.9562,-2.9452,-2.9067,-2.8975,-2.8975,-2.8975,-2.8462,-2.8132,-2.8352,-2.7852,-2.7767,-2.8634,-2.8804,-2.912,-2.9761,-2.9931,-2.9994,-2.9994,-2.9994,-2.9994,-2.9994,-2.9994,-2.9994,-2.9994,-2.9559,-2.9083,-2.8628,-2.8152,-2.7696,-2.7309,-2.6376,-2.6069,-2.6347,-2.5222,-2.5209,-2.8263,-2.8938,-2.969,-2.9599,0.0,0.0,0.0,0.0,0.0,0.0,0.0,0.0,0.0,0.0,0.0,0.0,0.0,0.0,0.0,0.0,0.0,0.0,0.0,0.0,0.0,0.0,0.0,0.0,0.0,0.0,0.0,0.0,0.0,0.0,-3.6072,-3.5776,-3.5192,-3.4899,-3.4752,-3.4733,-3.4422,-3.4165,-3.3963,-3.329,-3.296,-3.2918,-3.2454,-3.1986,-3.1531,-3.0877,-3.0136,-2.9365,-2.8749,-2.8334,-2.8123,-2.8324,-2.8457,-2.8636,-2.8916,-2.8975,-2.8975,-2.8975,-2.8975,-2.8975,-2.8975,-2.8975,-2.8975,-2.8975,-2.9195,-2.9434,-2.9434,-2.9434,-2.9525,-2.9837,-2.9672,-2.9434,-2.9434,-2.9434,-2.9342,-2.9048,-2.8975,-2.8957,-2.8865,-2.8242,-2.7838,-2.8077,-2.753,-2.7305,-2.7954,-2.8446,-2.8888,-2.9206,-2.9741,-2.9994,-2.9994,-2.9994,-2.9994,-2.9994,-2.9994,-2.9994,-2.9994,-2.9559,-2.9083,-2.8628,-2.8152,-2.7696,-2.7309,-2.6376,-2.5982,-2.6111,-2.5328,-2.527,-2.914,-2.98,-3.0057,-2.9672,-2.9709,0.0,-3.2093,-3.1598,0.0,-3.3175,0.0,0.0,0.0,0.0,0.0,0.0,0.0,0.0,0.0,0.0,0.0,0.0,0.0,0.0,0.0,0.0,0.0,0.0,0.0,0.0,0.0,0.0,0.0,0.0,0.0,-3.5082,-3.3963,-3.3908,-3.3908,-3.3908,-3.3872,-3.345,-3.2716,-3.2344,-3.2126,-3.2027,-3.1396,-3.0817,-3.0374,-2.9672,-2.8961,-2.8201,-2.7813,-2.7817,-2.7995,-2.8037,-2.8439,-2.8993,-2.8993,-2.8975,-2.8975,-2.8975,-2.8975,-2.8975,-2.8975,-2.8975,-2.8975,-2.8975,-2.9012,-2.903,-2.903,-2.903,-2.903,-2.9067,-2.9048,-2.903,-2.903,-2.903,-2.9012,-2.8993,-2.8975,-2.8865,-2.8498,-2.8058,-2.7711,-2.7306,-2.694,-2.7012,-2.7954,-2.8226,-2.868,-2.9641,-2.9925,-2.9994,-2.9994,-2.9994,-2.9994,-2.9994,-2.9994,-2.9994,-2.9994,-2.9559,-2.9083,-2.8628,-2.8152,-2.7696,-2.7309,-2.6376,-2.6239,-2.6819,-2.5674,-2.5641,-2.7967,-2.8913,-2.9758,-2.9591,-3.0069,0.0,0.0,-3.2456,-3.3063,-3.4274,-3.5163,0.0,0.0,0.0,0.0,0.0,0.0,0.0,0.0,0.0,0.0,0.0,0.0,0.0,0.0,0.0,0.0,0.0,0.0,0.0,0.0,0.0,0.0,0.0,0.0,-3.5492,-3.4533,-3.4052,-3.3397,-3.2698,-3.2936,-3.29,-3.2588,-3.2217,-3.187,-3.1598,-3.0843,-3.0301,-2.9843,-2.9214,-2.8584,-2.8035,-2.7486,-2.7375,-2.7496,-2.784,-2.814,-2.8439,-2.8856,-2.8975,-2.8975,-2.8975,-2.8975,-2.8975,-2.8975,-2.8975,-2.8975,-2.8975,-2.8975,-2.8975,-2.8975,-2.8975,-2.8975,-2.8975,-2.8975,-2.8975,-2.8975,-2.8975,-2.8975,-2.8975,-2.8975,-2.8865,-2.8462,-2.804,-2.7693,-2.7233,-2.6848,-2.6755,-2.7122,-2.7514,-2.8048,-2.8785,-2.957,-2.9994,-2.9994,-2.9994,-2.9994,-2.9994,-2.9994,-2.987,-2.958,-2.9125,-2.8649,-2.8193,-2.7738,-2.7427,-2.7309,-2.6667,-2.6484,-2.6697,-2.5962,-2.5965,-2.7419,-2.8256,-2.9154,-2.9402,0.0,0.0,-3.2636,-3.3752,-3.4909,-3.645,-3.7074,0.0,0.0,0.0,0.0,0.0,0.0,0.0,0.0,0.0,0.0,0.0,0.0,0.0,0.0,0.0,0.0,0.0,0.0,0.0,0.0,0.0,0.0,0.0,0.0,0.0,-3.4458,-3.3587,-3.2644,-3.1616,-3.1763,-3.1836,-3.1836,-3.1431,-3.1139,-3.0801,-3.0085,-2.9556,-2.9101,-2.8499,-2.7973,-2.7548,-2.7245,-2.7133,-2.7297,-2.7779,-2.808,-2.8259,-2.8797,-2.8975,-2.8975,-2.8975,-2.8975,-2.8975,-2.8975,-2.8975,-2.8975,-2.8975,-2.8902,-2.8792,-2.8792,-2.8883,-2.8957,-2.8828,-2.8792,-2.8792,-2.8792,-2.87,-2.8645,-2.8773,-2.8792,-2.8718,-2.8443,-2.815,-2.7783,-2.7251,-2.6976,-2.672,-2.6609,-2.7062,-2.7711,-2.8461,-2.9416,-2.9994,-2.9994,-2.9994,-2.9994,-2.9994,-2.9994,-2.9787,-2.9332,-2.8856,-2.84,-2.7924,-2.7489,-2.7309,-2.7309,-2.6832,-2.6687,-2.6832,-2.6356,-2.6397,-2.7975,-2.8127,-2.8388,0.0,0.0,0.0,-3.4345,0.0,-3.6617,-3.9888,0.0,0.0,0.0,0.0,0.0,0.0,0.0,0.0,0.0,0.0,0.0,0.0,0.0,0.0,0.0,0.0,0.0,0.0,0.0,0.0,0.0,0.0,0.0,0.0,0.0,0.0,-3.3207,-3.232,-3.1514,-3.0772,-3.0369,-3.0185,-3.0204,-2.9875,-2.9671,-2.9671,-2.9002,-2.848,-2.8018,-2.7392,-2.6833,-2.6525,-2.6919,-2.7237,-2.7521,-2.7882,-2.8199,-2.8517,-2.8856,-2.8975,-2.8975,-2.8975,-2.8975,-2.8975,-2.8975,-2.8975,-2.8975,-2.8975,-2.8682,-2.8388,-2.8388,-2.8682,-2.8865,-2.848,-2.8388,-2.8388,-2.8388,-2.8058,-2.795,-2.8315,-2.8388,-2.8388,-2.8388,-2.8388,-2.8113,-2.7306,-2.7214,-2.7048,-2.6664,-2.7065,-2.7864,-2.898,-2.9627,-2.9994,-2.9994,-2.9994,-2.9994,-2.9994,-2.9994,-2.9787,-2.9311,-2.8856,-2.84,-2.7924,-2.7489,-2.7309,-2.7309,-2.6853,-2.6853,-2.7289,-2.6832,-2.6874,-2.788,-2.8406,0.0,0.0,0.0,0.0,0.0,0.0,0.0,0.0,0.0,0.0,0.0,0.0,0.0,0.0,0.0,0.0,0.0,0.0,0.0,0.0,0.0,0.0,0.0,0.0,0.0,0.0,0.0,0.0,0.0,0.0,0.0,0.0,0.0,0.0,-3.3413,-3.2384,-3.1315,-3.0315,-2.9665,-2.9635,-3.0204,-3.008,-2.9792,-2.9256,-2.8559,-2.792,-2.7295,-2.654,-2.6199,-2.6114,-2.6234,-2.6481,-2.6823,-2.7197,-2.7491,-2.7847,-2.8115,-2.826,-2.8206,-2.8165,-2.8189,-2.8189,-2.8189,-2.8189,-2.8189,-2.8189,-2.8097,-2.7893,-2.7618,-2.7838,-2.8152,-2.7985,-2.8187,-2.8315,-2.8022,-2.7856,-2.7858,-2.793,-2.8187,-2.8297,-2.8003,-2.7948,-2.7765,-2.7251,-2.6976,-2.6848,-2.7102,-2.7698,-2.8286,-2.9013,-2.9627,-2.9994,-2.9994,-2.9994,-2.9994,-2.9994,-2.9994,-2.9642,-2.8856,-2.869,-2.8255,-2.7469,-2.7372,-2.7309,-2.7309,-2.7164,-2.7164,-2.7309,-2.7164,-2.7185,-2.8306,0.0,0.0,0.0,0.0,0.0,0.0,0.0,0.0,0.0,0.0,0.0,0.0,0.0,0.0,0.0,0.0,0.0,0.0,0.0,0.0,0.0,0.0,0.0,0.0,0.0,0.0,0.0,0.0,0.0,0.0,0.0,0.0,0.0,0.0,0.0,-3.2836,-3.1675,-3.0611,-2.9642,-2.8891,-2.8755,-2.9232,-2.9112,-2.8745,-2.8212,-2.7487,-2.6876,-2.6336,-2.6035,-2.584,-2.572,-2.5816,-2.608,-2.6327,-2.662,-2.6876,-2.7092,-2.7508,-2.7669,-2.7691,-2.7781,-2.7822,-2.7822,-2.7822,-2.7822,-2.7822,-2.7822,-2.7711,-2.7528,-2.7233,-2.7361,-2.7583,-2.7583,-2.7728,-2.7838,-2.7581,-2.7473,-2.7343,-2.7508,-2.7728,-2.7875,-2.784,-2.7822,-2.7693,-2.7233,-2.7049,-2.7027,-2.7354,-2.8106,-2.8727,-2.9066,-2.9627,-2.9994,-2.9994,-2.9839,-2.9715,-2.9725,-2.9559,-2.9125,-2.8359,-2.8504,-2.8193,-2.733,-2.7309,-2.7309,-2.7309,-2.7309,-2.7309,-2.7309,-2.7309,-2.7309,-2.8936,0.0,0.0,0.0,0.0,0.0,0.0,0.0,0.0,0.0,0.0,0.0,0.0,0.0,0.0,0.0,0.0,0.0,0.0,0.0,0.0,0.0,0.0,0.0,0.0,0.0,0.0,0.0,0.0,0.0,0.0,0.0,0.0,0.0,0.0,0.0,-3.1669,-3.0493,-2.9514,0.0,-2.8116,-2.7767,-2.771,-2.7422,-2.7136,-2.6756,-2.6123,-2.5669,-2.5343,-2.5686,-2.5634,-2.536,-2.5703,-2.5799,-2.5891,-2.6221,-2.6353,-2.6446,-2.6986,-2.7215,-2.7254,-2.7616,-2.7711,-2.7711,-2.7711,-2.7711,-2.7711,-2.7711,-2.7454,-2.7123,-2.7123,-2.7123,-2.7123,-2.7123,-2.7141,-2.716,-2.7123,-2.6848,-2.6701,-2.705,-2.7141,-2.7344,-2.7711,-2.7767,-2.7638,-2.7289,-2.7341,-2.7422,-2.7527,-2.8455,-2.9132,-2.9172,-2.9679,-2.9994,-2.9994,-2.9559,-2.9268,-2.929,-2.8876,-2.84,-2.7945,-2.8317,-2.8152,-2.733,-2.7309,-2.7309,-2.7309,-2.7309,-2.7309,-2.7309,-2.7309,-2.7309,0.0,-2.9008,0.0,0.0,0.0,0.0,0.0,0.0,0.0,0.0,0.0,0.0,0.0,0.0,0.0,0.0,0.0,0.0,0.0,0.0,0.0,0.0,0.0,0.0,0.0,0.0,0.0,0.0,0.0,0.0,0.0,0.0,0.0,0.0,0.0,-3.1111,-3.0736,-2.9584,-2.8597,0.0,-2.7492,-2.7306,-2.7306,-2.7296,-2.6861,-2.6066,-2.5668,-2.5275,-2.4949,-2.5018,-2.5018,-2.4949,-2.5035,-2.5241,-2.5554,-2.5594,-2.5783,-2.6065,-2.6399,-2.6537,-2.654,-2.6774,-2.6848,-2.6848,-2.6848,-2.6848,-2.6848,-2.6848,-2.6774,-2.6719,-2.6719,-2.6719,-2.6719,-2.6719,-2.6958,-2.7086,-2.6774,-2.6646,-2.6609,-2.6701,-2.6958,-2.7196,-2.7288,-2.7306,-2.7327,-2.7358,-2.7371,-2.7691,-2.8621,-2.8973,-2.929,-2.9732,-2.9942,-2.9994,-2.9994,-2.9559,-2.9268,-2.929,-2.8876,-2.84,-2.7945,-2.8028,-2.7821,-2.7309,-2.7309,-2.7309,-2.7309,-2.7309,-2.7309,-2.7309,-2.7309,-2.7309,0.0,0.0,0.0,0.0,0.0,0.0,0.0,0.0,0.0,0.0,0.0,0.0,0.0,0.0,0.0,0.0,0.0,0.0,0.0,0.0,0.0,0.0,0.0,0.0,0.0,0.0,0.0,0.0,0.0,0.0,0.0,0.0,0.0,0.0,-3.0449,-3.0219,-2.9604,-2.8804,-2.8051,-2.7382,-2.7087,-2.6774,-2.6498,-2.6727,-2.6402,-2.5644,-2.5245,-2.5001,-2.4812,-2.4812,-2.4812,-2.4812,-2.4812,-2.4932,-2.5104,-2.5104,-2.528,-2.5587,-2.5901,-2.6109,-2.6258,-2.6482,-2.6591,-2.6591,-2.6591,-2.6591,-2.6591,-2.6591,-2.6591,-2.6591,-2.6591,-2.6591,-2.6591,-2.6591,-2.6738,-2.6848,-2.6628,-2.6591,-2.6591,-2.6591,-2.6756,-2.6885,-2.6885,-2.6885,-2.7031,-2.7352,-2.7638,-2.814,-2.8993,-2.9363,-2.9659,-2.9994,-2.9994,-2.9994,-2.9994,-2.9362,-2.8948,-2.8959,-2.8338,-2.7862,-2.7614,-2.7593,-2.7489,-2.7309,-2.7081,-2.7081,-2.7309,-2.6853,-2.677,-2.6978,-2.6978,-2.6978,0.0,0.0,0.0,0.0,0.0,0.0,0.0,0.0,0.0,0.0,0.0,0.0,0.0,0.0,0.0,0.0,0.0,0.0,0.0,0.0,0.0,0.0,0.0,0.0,0.0,0.0,0.0,0.0,0.0,0.0,0.0,0.0,-3.0254,-2.959,-2.9824,-2.9523,-2.8671,-2.8216,-2.7732,-2.7179,-2.6811,-2.6299,-2.5803,-2.6066,-2.5909,-2.5258,-2.4949,-2.4812,-2.4812,-2.4812,-2.4778,-2.4727,-2.4782,-2.4727,-2.4727,-2.4837,-2.502,-2.5221,-2.5624,-2.5898,-2.619,-2.6464,-2.6591,-2.6591,-2.6591,-2.6591,-2.6591,-2.6591,-2.6591,-2.6591,-2.6591,-2.6591,-2.6591,-2.6591,-2.6591,-2.6591,-2.6591,-2.6591,-2.6591,-2.6591,-2.6591,-2.6591,-2.6591,-2.6591,-2.6809,-2.7476,-2.7979,-2.8495,-2.9185,-2.9679,-2.9994,-2.9994,-2.9994,-2.9994,-2.9994,-2.9145,-2.8607,-2.8607,-2.7759,-2.7309,-2.7309,-2.7309,-2.7309,-2.7309,-2.6853,-2.6832,-2.7309,-2.6459,-2.6235,-2.6618,-2.6692,-2.6687,0.0,0.0,0.0,0.0,0.0,0.0,0.0,0.0,0.0,0.0,0.0,0.0,0.0,0.0,0.0,0.0,0.0,0.0,0.0,0.0,0.0,0.0,0.0,0.0,0.0,0.0,0.0,0.0,0.0,0.0,0.0,-2.9316,-2.9297,-2.957,-2.9258,-2.8898,-2.8528,-2.7834,-2.7354,-2.7028,-2.681,-2.6527,-2.6211,-2.6053,-2.5557,-2.4898,-2.4847,-2.4812,-2.4812,-2.4812,-2.4569,-2.4316,-2.4533,-2.4479,-2.437,-2.4858,-2.5123,-2.5276,-2.5844,-2.6063,-2.619,-2.6464,-2.6591,-2.6591,-2.6591,-2.6591,-2.6591,-2.6591,-2.6591,-2.6591,-2.6591,-2.6591,-2.6591,-2.6591,-2.6591,-2.6591,-2.6591,-2.6591,-2.6591,-2.6591,-2.6591,-2.6591,-2.6591,-2.6591,-2.6954,-2.8033,-2.8247,-2.8654,-2.9732,-2.9942,-2.9994,-2.9994,-2.9994,-2.9994,-2.9994,-2.9145,-2.8607,-2.8607,-2.7759,-2.7309,-2.7309,-2.7309,-2.7309,-2.7309,-2.6853,-2.6832,-2.7309,-2.677,-2.6543,-2.6615,-2.6998,-2.6998,0.0,0.0,0.0,0.0,0.0,0.0,0.0,0.0,0.0,0.0,0.0,0.0,0.0,0.0,0.0,0.0,0.0,0.0,0.0,0.0,0.0,0.0,0.0,0.0,0.0,0.0,0.0,0.0,0.0,0.0,-2.9199,-2.9258,-2.9258,-2.9199,-2.9023,-2.8474,-2.7527,-2.7248,-2.6648,-2.5894,-2.5992,-2.5808,-2.5423,-2.5485,-2.5384,-2.5121,-2.4915,-2.4693,-2.4504,-2.4727,-2.447,-2.3939,-2.4253,-2.4201,-2.3993,-2.4647,-2.5002,-2.5232,-2.5882,-2.6245,-2.6409,-2.6537,-2.6591,-2.6591,-2.6591,-2.6591,-2.6591,-2.6591,-2.6591,-2.6591,-2.6591,-2.6591,-2.6591,-2.6591,-2.6591,-2.6591,-2.6591,-2.6591,-2.6591,-2.6591,-2.6591,-2.6591,-2.6591,-2.6591,-2.7008,-2.814,-2.8301,-2.8727,-2.9837,-2.9766,-2.9601,-2.9601,-2.9373,-2.9228,-2.9228,-2.8607,-2.8235,-2.8235,-2.7614,-2.7309,-2.7309,-2.7309,-2.7309,-2.7309,-2.6853,-2.6832,-2.7309,-2.6584,-2.6198,-2.6193,-2.6676,-2.6667,0.0,0.0,0.0,0.0,0.0,0.0,0.0,0.0,0.0,0.0,0.0,0.0,0.0,0.0,0.0,0.0,0.0,0.0,0.0,0.0,0.0,0.0,0.0,0.0,0.0,0.0,0.0,0.0,0.0,0.0,-2.9253,-2.9451,-2.947,-2.9253,-2.8982,-2.8174,-2.6921,-2.6669,-2.6042,-2.4997,-2.5289,-2.5147,-2.4698,-2.4954,-2.5172,-2.5206,-2.4932,-2.4658,-2.4401,-2.4693,-2.4473,-2.3996,-2.4289,-2.422,-2.4049,-2.4667,-2.4969,-2.5201,-2.5703,-2.6099,-2.6279,-2.6279,-2.6353,-2.6426,-2.6426,-2.6499,-2.6591,-2.6591,-2.6591,-2.6591,-2.6591,-2.6591,-2.6591,-2.6591,-2.6591,-2.6591,-2.6591,-2.6591,-2.6591,-2.6591,-2.6591,-2.6591,-2.6591,-2.67,-2.7116,-2.814,-2.8408,-2.8774,-2.9516,-2.9518,-2.9343,-2.8942,-2.8817,-2.8731,-2.8628,-2.8193,-2.7924,-2.7924,-2.751,-2.7309,-2.7309,-2.7309,-2.7309,-2.7309,-2.6978,-2.6957,-2.7309,-2.6501,-2.6003,-2.5903,-2.6501,-2.648,0.0,0.0,0.0,0.0,0.0,0.0,0.0,0.0,0.0,0.0,0.0,0.0,0.0,0.0,0.0,0.0,0.0,0.0,0.0,0.0,0.0,0.0,0.0,0.0,0.0,0.0,0.0,0.0,0.0,0.0,-3.0079,-2.9713,-2.9672,-3.0133,-2.9056,-2.8145,-2.729,-2.6333,-2.5555,-2.4997,-2.5058,-2.4987,-2.4698,-2.4751,-2.483,-2.4847,-2.483,-2.4812,-2.4795,-2.4812,-2.4755,-2.4645,-2.495,-2.4878,-2.4718,-2.516,-2.5269,-2.5112,-2.5354,-2.5436,-2.5488,-2.5488,-2.5745,-2.6039,-2.6039,-2.6279,-2.6591,-2.6591,-2.6591,-2.6591,-2.6591,-2.6591,-2.6591,-2.6591,-2.6591,-2.6591,-2.6591,-2.6591,-2.6591,-2.6591,-2.6591,-2.6591,-2.6591,-2.7008,-2.7584,-2.8174,-2.8708,-2.8918,-2.8632,-2.9372,-2.9414,-2.8046,-2.8717,-2.9083,-2.8649,-2.8193,-2.7924,-2.7924,-2.751,-2.7309,-2.7309,-2.7309,-2.7309,-2.7309,-2.7289,-2.7289,-2.7309,-2.6812,-2.6343,-2.5918,-2.6843,-2.6791,0.0,0.0,0.0,0.0,0.0,0.0,0.0,0.0,0.0,0.0,0.0,0.0,0.0,0.0,0.0,0.0,0.0,0.0,0.0,0.0,0.0,0.0,0.0,0.0,0.0,0.0,0.0,0.0,0.0,0.0,-3.0078,-3.0255,-3.0203,-2.987,-2.9487,-2.8442,-2.6695,-2.5383,-2.4491,-2.3985,-2.4239,-2.4211,-2.4065,-2.4078,-2.435,-2.4812,-2.4556,-2.4381,-2.447,-2.4858,-2.4763,-2.4385,-2.4898,-2.4898,-2.4704,-2.5341,-2.5305,-2.5127,-2.5605,-2.5635,-2.5414,-2.5414,-2.5525,-2.5635,-2.5635,-2.5745,-2.5858,-2.6114,-2.6188,-2.6243,-2.6518,-2.6591,-2.6591,-2.6591,-2.6591,-2.6591,-2.6591,-2.6591,-2.6591,-2.6591,-2.6591,-2.6591,-2.6591,-2.6569,-2.6811,-2.7713,-2.7793,-2.8069,-2.8911,-2.9085,-2.8879,-2.8348,-2.8354,-2.8235,-2.7779,-2.7593,-2.7489,-2.7489,-2.7392,-2.7309,-2.7309,-2.7309,-2.7309,-2.7309,-2.7309,-2.7309,-2.7309,-2.7143,-2.6838,-2.6364,-2.6978,-2.6978,-2.6148,0.0,0.0,0.0,0.0,0.0,0.0,0.0,0.0,0.0,0.0,0.0,0.0,0.0,0.0,0.0,0.0,0.0,0.0,0.0,0.0,0.0,0.0,0.0,0.0,0.0,0.0,0.0,0.0,0.0,-3.0398,-3.0701,-3.0306,-2.9187,-2.8764,-2.7593,-2.5637,-2.4678,-2.3954,-2.3406,-2.3746,-2.3739,-2.351,-2.3631,-2.3958,-2.4405,-2.4275,-2.4292,-2.4453,-2.4951,-2.4979,-2.472,-2.52,-2.5308,-2.5147,-2.5593,-2.5376,-2.5016,-2.5457,-2.5341,-2.501,-2.501,-2.5102,-2.5231,-2.5231,-2.5323,-2.547,-2.5745,-2.5911,-2.6076,-2.6298,-2.6481,-2.6591,-2.6591,-2.6591,-2.6554,-2.6408,-2.6481,-2.6591,-2.6591,-2.6591,-2.6591,-2.6591,-2.6404,-2.6533,-2.7218,-2.7182,-2.7416,-2.8411,-2.8564,-2.846,-2.8173,-2.828,-2.809,-2.7372,-2.7407,-2.7407,-2.7309,-2.7309,-2.7309,-2.7309,-2.7309,-2.7309,-2.7309,-2.7309,-2.7309,-2.7309,-2.7309,-2.7061,-2.6625,-2.7102,-2.7143,0.0,0.0,0.0,0.0,0.0,0.0,0.0,0.0,0.0,0.0,0.0,0.0,0.0,0.0,0.0,0.0,0.0,0.0,0.0,0.0,0.0,0.0,0.0,0.0,0.0,0.0,0.0,0.0,0.0,-3.0414,-3.116,-3.1016,-2.9974,-2.807,-2.6903,-2.5618,-2.4251,-2.4202,-2.3954,-2.3388,-2.3728,-2.3599,-2.3081,-2.3441,-2.3633,-2.3687,-2.401,-2.4378,-2.4795,-2.5055,-2.5404,-2.5734,-2.6008,-2.6136,-2.6136,-2.6007,-2.5552,-2.4891,-2.4838,-2.4587,-2.4238,-2.422,-2.4496,-2.4776,-2.4776,-2.5032,-2.5396,-2.5396,-2.569,-2.6002,-2.6002,-2.6279,-2.6591,-2.6573,-2.6573,-2.6481,-2.6113,-2.6352,-2.6573,-2.6573,-2.6573,-2.6573,-2.6591,-2.6689,-2.674,-2.6759,-2.6917,-2.7074,-2.7074,-2.789,-2.8137,-2.733,-2.845,-2.8731,-2.7434,-2.7676,-2.7738,-2.733,-2.7309,-2.7309,-2.7309,-2.7309,-2.7309,-2.7309,-2.7309,-2.7309,-2.7309,-2.7309,-2.7081,-2.6646,-2.7102,-2.7309,-2.5594,0.0,0.0,0.0,0.0,0.0,0.0,0.0,0.0,0.0,0.0,0.0,0.0,0.0,0.0,0.0,0.0,0.0,0.0,0.0,0.0,0.0,0.0,0.0,0.0,0.0,0.0,0.0,-3.1391,-3.153,-3.1553,-3.0499,-2.9384,-2.8313,-2.6506,-2.541,-2.5001,-2.448,-2.3857,-2.3175,-2.3135,-2.2909,-2.2529,-2.2178,-2.2502,-2.3238,-2.31,-2.3561,-2.4419,-2.4951,-2.5404,-2.5734,-2.6008,-2.6245,-2.6464,-2.6463,-2.6097,-2.566,-2.5674,-2.5414,-2.5047,-2.4753,-2.4684,-2.4721,-2.4477,-2.4459,-2.4606,-2.4867,-2.5286,-2.5653,-2.5929,-2.6279,-2.6518,-2.626,-2.6371,-2.6554,-2.6444,-2.6261,-2.6186,-2.6186,-2.6186,-2.6278,-2.6536,-2.5924,-2.5558,-2.6182,-2.6172,-2.6369,-2.7102,-2.769,-2.807,-2.8222,-2.8549,-2.8524,-2.78,-2.7862,-2.7738,-2.733,-2.7309,-2.7309,-2.7309,-2.7309,-2.7309,-2.7309,-2.7309,-2.7309,-2.7309,-2.7309,-2.7247,-2.7123,-2.7247,-2.7309,-2.4975,-2.5851,0.0,0.0,0.0,0.0,0.0,-2.6851,0.0,0.0,0.0,0.0,0.0,0.0,0.0,0.0,0.0,0.0,0.0,0.0,0.0,0.0,0.0,0.0,0.0,0.0,0.0,0.0,-3.1836,-3.1675,-3.0966,-2.9551,-2.8279,-2.7217,-2.5785,-2.4899,-2.456,-2.4307,-2.3943,-2.3363,-2.3183,-2.2797,-2.232,-2.2036,-2.216,-2.2667,-2.274,-2.3135,-2.3772,-2.4326,-2.4909,-2.5503,-2.5883,-2.6154,-2.6353,-2.6518,-2.637,-2.6021,-2.6021,-2.5653,-2.5087,-2.4867,-2.4716,-2.4532,-2.4275,-2.4202,-2.4257,-2.4496,-2.4863,-2.5216,-2.5672,-2.5894,-2.6023,-2.5819,-2.5947,-2.6041,-2.5876,-2.5819,-2.5819,-2.5984,-2.5874,-2.5837,-2.6041,-2.5362,-2.5053,-2.5767,-2.5588,-2.5713,-2.6755,-2.7091,-2.7438,-2.7971,-2.8005,-2.7892,-2.7648,-2.7626,-2.7495,-2.7282,-2.7309,-2.7309,-2.7309,-2.7309,-2.7309,-2.7309,-2.7309,-2.7309,-2.7309,-2.7309,-2.7309,-2.7309,-2.7309,-2.7309,-2.4625,-2.4881,-2.5467,0.0,0.0,0.0,-2.648,-2.5574,-2.4644,0.0,0.0,0.0,0.0,0.0,0.0,0.0,0.0,0.0,0.0,0.0,0.0,0.0,0.0,0.0,0.0,0.0,-3.1089,-3.1577,-3.1529,-3.0893,-2.9676,-2.8298,-2.6816,-2.5376,-2.4785,-2.4164,-2.3499,-2.3895,-2.3998,-2.3768,-2.3481,-2.2991,-2.2309,-2.2418,-2.2267,-2.1961,-2.2654,-2.3014,-2.3146,-2.3514,-2.4227,-2.5094,-2.5628,-2.5913,-2.6058,-2.6371,-2.637,-2.6076,-2.6076,-2.5617,-2.4977,-2.4922,-2.4716,-2.4385,-2.4293,-2.4275,-2.4275,-2.4275,-2.4551,-2.4867,-2.5216,-2.5396,-2.5414,-2.5307,-2.5396,-2.5271,-2.4922,-2.5087,-2.547,-2.5819,-2.5598,-2.5378,-2.5362,-2.5047,-2.4873,-2.5346,-2.5107,-2.5203,-2.6131,-2.6269,-2.6487,-2.7061,-2.7051,-2.7072,-2.7263,-2.7232,-2.7224,-2.7282,-2.7309,-2.7309,-2.7309,-2.7309,-2.7309,-2.7309,-2.7309,-2.7309,-2.7309,-2.7309,-2.7309,-2.7309,-2.7309,-2.7309,0.0,0.0,0.0,0.0,0.0,0.0,-2.5279,-2.4811,-2.4644,0.0,0.0,0.0,0.0,0.0,0.0,0.0,0.0,0.0,0.0,0.0,0.0,0.0,0.0,0.0,0.0,0.0,-3.0937,-3.1023,-3.0338,-2.9256,-2.7855,-2.6813,-2.5574,-2.409,-2.3533,-2.3312,-2.3499,-2.3572,-2.3608,-2.356,-2.3136,-2.25,-2.176,-2.1689,-2.1567,-2.1521,-2.1995,-2.2537,-2.3117,-2.3353,-2.3943,-2.4632,-2.472,-2.5305,-2.6021,-2.6113,-2.6296,-2.6463,-2.6463,-2.6371,-2.6188,-2.5892,-2.5727,-2.5543,-2.49,-2.4666,-2.4666,-2.4666,-2.4721,-2.4794,-2.4886,-2.5142,-2.5341,-2.4977,-2.5142,-2.5396,-2.5271,-2.5069,-2.4922,-2.4996,-2.4941,-2.4996,-2.5307,-2.4808,-2.444,-2.4873,-2.4908,-2.496,-2.5183,-2.5576,-2.6006,-2.6507,-2.6526,-2.6705,-2.7207,-2.7218,-2.7224,-2.7282,-2.7309,-2.7309,-2.7309,-2.7309,-2.7309,-2.7309,-2.7309,-2.7309,-2.7309,-2.7309,-2.7309,-2.7309,-2.7309,-2.7309,0.0,0.0,0.0,-2.4381,0.0,0.0,0.0,-2.4191,-2.4492,0.0,0.0,0.0,0.0,0.0,0.0,0.0,0.0,0.0,0.0,0.0,0.0,0.0,0.0,0.0,0.0,0.0,-3.0524,-3.0494,-2.9806,-2.8757,-2.7237,-2.6101,-2.4865,-2.3293,-2.2815,-2.2693,-2.2895,-2.3092,-2.3208,-2.3208,-2.2715,-2.2189,-2.1588,-2.1479,-2.1397,-2.1439,-2.1839,-2.2299,-2.286,-2.3075,-2.3485,-2.401,-2.4463,-2.499,-2.547,-2.5874,-2.6149,-2.6298,-2.6518,-2.6444,-2.6296,-2.6076,-2.5874,-2.5598,-2.4959,-2.4629,-2.4514,-2.4514,-2.4514,-2.4514,-2.4514,-2.4661,-2.4771,-2.4569,-2.4661,-2.4808,-2.4808,-2.4661,-2.4514,-2.4514,-2.4514,-2.4587,-2.479,-2.4477,-2.4374,-2.4777,-2.4876,-2.4892,-2.4892,-2.5118,-2.5391,-2.5621,-2.5641,-2.5986,-2.679,-2.6838,-2.698,-2.7282,-2.7309,-2.7309,-2.7309,-2.7309,-2.7309,-2.7309,-2.7309,-2.7309,-2.7309,-2.7309,-2.7309,-2.7309,-2.7309,-2.7309,0.0,0.0,0.0,0.0,0.0,-2.357,0.0,0.0,0.0,0.0,0.0,0.0,0.0,0.0,0.0,0.0,0.0,0.0,0.0,0.0,0.0,0.0,0.0,0.0,0.0,0.0,-3.0134,-2.9965,-2.9235,-2.8133,-2.6708,-2.5418,-2.4075,-2.2637,-2.2314,-2.2199,-2.2272,-2.2626,-2.2792,-2.2853,-2.2409,-2.1967,-2.1544,-2.145,-2.1363,-2.1336,-2.183,-2.2191,-2.25,-2.292,-2.3206,-2.3473,-2.4267,-2.4721,-2.4867,-2.5543,-2.5892,-2.6058,-2.6353,-2.6298,-2.6131,-2.6131,-2.5819,-2.5359,-2.4996,-2.4606,-2.4202,-2.4202,-2.4202,-2.4202,-2.4202,-2.4202,-2.4202,-2.4202,-2.4202,-2.4202,-2.4202,-2.4202,-2.4202,-2.4202,-2.4202,-2.4202,-2.4202,-2.4202,-2.435,-2.4695,-2.4794,-2.4794,-2.4794,-2.4794,-2.4794,-2.4794,-2.4843,-2.5284,-2.6255,-2.6448,-2.6736,-2.7262,-2.7309,-2.7309,-2.7309,-2.7309,-2.7309,-2.7309,-2.7309,-2.7309,-2.7309,-2.7309,-2.7309,-2.7309,-2.7309,-2.7309,0.0,0.0,0.0,0.0,-2.4774,0.0,0.0,0.0,0.0,0.0,0.0,0.0,0.0,0.0,0.0,0.0,0.0,0.0,0.0,0.0,0.0,0.0,0.0,0.0,0.0,0.0,0.0,-2.9436,-2.764,-2.6181,-2.5338,-2.3881,-2.2719,-2.1865,-2.1786,-2.1925,-2.2318,-2.2346,-2.2452,-2.2607,-2.2337,-2.1917,-2.1346,-2.1394,-2.1246,-2.1024,-2.169,-2.2034,-2.2139,-2.3015,-2.3356,-2.3456,-2.3809,-2.4295,-2.4794,-2.4886,-2.5414,-2.6021,-2.6058,-2.6296,-2.6518,-2.6518,-2.6004,-2.5414,-2.5378,-2.4808,-2.4202,-2.4202,-2.4202,-2.4202,-2.4202,-2.4202,-2.4202,-2.4202,-2.4202,-2.4202,-2.4202,-2.4202,-2.4202,-2.4202,-2.4202,-2.4202,-2.4202,-2.4202,-2.4202,-2.4251,-2.4301,-2.4301,-2.4301,-2.4301,-2.4301,-2.4301,-2.4646,-2.5118,-2.5752,-2.6255,-2.6736,-2.7262,-2.7309,-2.7309,-2.7309,-2.7309,-2.7309,-2.7309,-2.7309,-2.7309,-2.7309,-2.7309,-2.7309,-2.7309,-2.7309,-2.7309,0.0,0.0,0.0,0.0,0.0,0.0,-2.4895,0.0,-2.6061,0.0,0.0,0.0,0.0,0.0,0.0,0.0,0.0,0.0,0.0,0.0,0.0,0.0,0.0,0.0,0.0,0.0,0.0,0.0,0.0,-2.6027,-2.4808,-2.3757,-2.2687,-2.1731,-2.1687,-2.1778,-2.1943,-2.1943,-2.2007,-2.2061,-2.1697,-2.1362,-2.1116,-2.0856,-2.0828,-2.0911,-2.1221,-2.1466,-2.1734,-2.2659,-2.3068,-2.3135,-2.3764,-2.4212,-2.4496,-2.4684,-2.4996,-2.5396,-2.5855,-2.6131,-2.6261,-2.6518,-2.6041,-2.5414,-2.5414,-2.4845,-2.4202,-2.4202,-2.4202,-2.4202,-2.4202,-2.4202,-2.4202,-2.4202,-2.4202,-2.4202,-2.4202,-2.4202,-2.4202,-2.4202,-2.4202,-2.4202,-2.4202,-2.4202,-2.4202,-2.4202,-2.4202,-2.4202,-2.4202,-2.4202,-2.4301,-2.4597,-2.5069,-2.5557,-2.6091,-2.664,-2.7071,-2.7309,-2.7309,-2.7309,-2.7309,-2.7309,-2.7309,-2.7309,-2.7309,-2.7309,-2.7309,-2.7309,-2.7309,-2.7309,-2.7309,-2.7309,-2.3491,0.0,0.0,0.0,0.0,0.0,0.0,0.0,0.0,0.0,0.0,0.0,0.0,0.0,0.0,0.0,0.0,0.0,0.0,0.0,0.0,0.0,0.0,0.0,0.0,0.0,0.0,0.0,-2.6739,0.0,-2.4111,-2.3212,-2.2465,-2.1731,-2.1687,-2.1687,-2.1687,-2.1687,-2.1687,-2.1624,-2.1221,-2.0952,-2.0907,-2.0518,-2.0462,-2.0759,-2.0876,-2.1083,-2.1444,-2.2408,-2.2819,-2.2952,-2.373,-2.411,-2.4238,-2.4551,-2.4735,-2.4867,-2.5488,-2.5837,-2.6021,-2.6059,-2.5766,-2.5378,-2.5157,-2.4679,-2.4202,-2.4202,-2.4202,-2.4202,-2.4202,-2.4202,-2.4202,-2.4202,-2.4202,-2.4202,-2.4202,-2.4202,-2.4202,-2.4202,-2.4202,-2.4202,-2.4202,-2.4202,-2.4202,-2.4202,-2.4202,-2.4202,-2.4202,-2.4202,-2.4399,-2.4843,-2.5362,-2.5945,-2.6448,-2.6976,-2.7309,-2.7309,-2.7309,-2.7309,-2.7309,-2.7309,-2.7309,-2.7309,-2.7309,-2.7309,-2.7309,-2.7309,-2.7309,-2.7309,-2.7309,-2.7309,0.0,0.0,0.0,-2.3932,0.0,0.0,0.0,0.0,-2.6088,0.0,0.0,0.0,0.0,0.0,-2.5926,-2.597,0.0,0.0,0.0,0.0,0.0,0.0,0.0,0.0,0.0,0.0,0.0,0.0,-2.5483,0.0,-2.2906,-2.1797,-2.1353,-2.1668,-2.1687,-2.1687,-2.1687,-2.1687,-2.1579,-2.1409,-2.1114,-2.0907,-2.0699,-2.0428,-2.0292,-2.0354,-2.0703,-2.1014,-2.1299,-2.2355,-2.2917,-2.3111,-2.342,-2.3804,-2.4202,-2.422,-2.4477,-2.4794,-2.4812,-2.5378,-2.5892,-2.5139,-2.5087,-2.5267,-2.4477,-2.422,-2.4202,-2.4202,-2.4202,-2.4202,-2.4202,-2.4202,-2.4202,-2.4202,-2.4202,-2.4202,-2.4202,-2.4202,-2.4202,-2.4202,-2.4202,-2.4202,-2.4202,-2.4202,-2.4202,-2.4202,-2.4202,-2.4202,-2.4202,-2.4202,-2.4399,-2.4843,-2.5362,-2.5945,-2.6448,-2.6976,-2.7309,-2.7309,-2.7309,-2.7309,-2.7309,-2.7309,-2.7309,-2.7309,-2.7309,-2.7309,-2.7309,-2.7309,-2.7309,-2.7309,-2.7309,-2.7309,0.0,0.0,-2.4087,-2.4425,0.0,0.0,0.0,0.0,0.0,0.0,0.0,0.0,0.0,0.0,-2.5906,-2.5906,-2.6135,-2.6292,0.0,0.0,0.0,0.0,0.0,0.0,0.0,0.0,0.0,-2.5709,-2.4375,-2.3207,0.0,-2.1564,-2.1291,-2.1668,-2.1687,-2.1687,-2.1687,-2.1687,-2.1687,-2.1579,-2.1177,-2.0952,-2.0862,-2.0473,-2.0292,-2.0292,-2.0611,-2.0818,-2.0926,-2.187,-2.2481,-2.2828,-2.3292,-2.3785,-2.4165,-2.384,-2.4005,-2.4422,-2.4422,-2.4771,-2.5142,-2.4867,-2.45,-2.4152,-2.4202,-2.3785,-2.3363,-2.3363,-2.3363,-2.3419,-2.3675,-2.3749,-2.3822,-2.4128,-2.4202,-2.4202,-2.4202,-2.4202,-2.4202,-2.4202,-2.4202,-2.4202,-2.4202,-2.4202,-2.4202,-2.4202,-2.4202,-2.4202,-2.4202,-2.4202,-2.4548,-2.5362,-2.5606,-2.6042,-2.6976,-2.7214,-2.7309,-2.7309,-2.7309,-2.7309,-2.7309,-2.7309,-2.7309,-2.7309,-2.7309,-2.7309,-2.7309,-2.7309,-2.7309,-2.7309,-2.7309,-2.7309,-2.3256,-2.3472,0.0,-2.4463,-2.4866,0.0,-2.5317,0.0,0.0,0.0,0.0,0.0,0.0,0.0,-2.5906,-2.5906,-2.6105,-2.6183,0.0,-2.6287,0.0,0.0,0.0,0.0,0.0,0.0,-2.6345,-2.4218,-2.34,-2.2514,0.0,0.0,-2.1089,-2.1449,-2.1614,-2.1687,-2.1687,-2.1687,-2.1642,-2.1616,-2.1177,-2.0952,-2.0862,-2.0473,-2.0292,-2.0292,-2.0564,-2.0744,-2.0852,-2.167,-2.2206,-2.2506,-2.2902,-2.3363,-2.373,-2.3749,-2.384,-2.3932,-2.3932,-2.4115,-2.4299,-2.4005,-2.3749,-2.3499,-2.351,-2.3253,-2.2931,-2.3078,-2.3023,-2.3004,-2.3389,-2.3389,-2.3389,-2.384,-2.3932,-2.3969,-2.4165,-2.4202,-2.4202,-2.4202,-2.4202,-2.4202,-2.4202,-2.4202,-2.4202,-2.4202,-2.4202,-2.4202,-2.4202,-2.4202,-2.4597,-2.5586,-2.5703,-2.6139,-2.7214,-2.7309,-2.7309,-2.7309,-2.7309,-2.7309,-2.7309,-2.7309,-2.7372,-2.7489,-2.7392,-2.7392,-2.7489,-2.7392,-2.7309,-2.7309,-2.7309,-2.7309]}]]